GFSCGP_prec_cloud_006.txt.gz
Cloud_Cover
67 69 100 100 85 15 5 5 61 5 2 5 20 44 38 24 19 5 5 5 5 5 3 4 4 40 66 15 87 100 100 100 95 80 88 100 98 100 92 69 24 5 15 5
98 88 100 100 100 47 0 0 2 5 5 4 3 5 5 5 25 50 16 8 18 13 53 48 48 12 5 4 8 70 48 2 20 39 20 57 50 20 5 5 5 27 28 68
65 88 96 53 1 21 4 2 3 3 4 2 0 4 16 53 88 32 41 96 86 65 17 6 47 52 5 5 5 5 5 4 0 5 1 4 0 1 5 5 5 5 19 7
8 0 0 1 5 3 1 3 5 3 4 20 59 14 7 8 11 12 16 16 6 5 6 92 76 12 60 5 5 23 89 89 22 5 5 0 0 1 0 0 0 0 0 0
2 0 0 0 0 0 0 4 52 55 61 41 5 4 0 0 0 0 0 0 5 5 48 54 100 89 94 98 98 46 12 5 5 0 0 0 0 0 0 0 0 0 4 5
2 0 1 5 5 5 4 4 3 1 0 0 0 0 0 0 0 3 5 5 5 5 1 5 34 46 100 97 100 15 3 5 4 1 0 0 2 1 1 3 1 5 5 5
9 5 5 5 0 0 0 0 0 0 2 0 0 0 0 0 0 2 5 5 5 0 0 14 100 78 35 6 5 4 4 2 0 0 5 5 5 4 5 5 5 5 2 4
0 0 0 0 0 0 0 0 0 0 5 0 0 0 0 0 0 0 4 1 0 4 63 68 25 0 5 4 0 5 5 5 6 5 5 0 0 2 3 1 4 6 55 37
0 0 0 0 0 0 0 0 0 0 0 0 0 0 0 0 0 0 0 0 5 33 4 0 5 5 1 5 5 5 6 49 8 5 5 5 5 5 5 5 24 16 5 5
0 0 0 0 0 0 0 0 0 0 0 0 0 0 0 0 0 0 0 0 2 0 3 5 5 4 5 5 5 5 31 71 38 82 87 70 41 5 5 5 5 5 4 0
0 0 0 0 0 0 0 0 0 0 1 2 1 0 0 0 0 0 0 0 5 5 5 9 5 7 18 10 40 87 93 82 100 100 33 5 1 0 5 5 5 4 0 0
1 1 0 0 0 0 0 0 0 0 0 14 5 1 0 0 0 0 0 0 4 5 53 6 5 74 82 100 100 61 80 100 100 72 5 0 4 5 5 5 5 2 4 5
0 0 0 5 2 2 4 0 0 0 0 0 4 0 0 0 0 0 0 0 4 5 5 5 52 100 100 99 72 100 100 93 78 5 0 4 5 5 5 5 2 5 5 6
0 0 0 5 5 5 2 0 0 0 0 0 1 0 0 5 5 3 4 5 5 5 5 5 70 100 100 24 99 99 62 5 5 5 2 5 5 5 5 5 5 5 3 64
1 4 5 5 4 2 4 0 0 0 2 3 0 0 5 5 5 5 5 2 3 5 5 55 100 99 26 99 91 36 15 5 5 5 5 5 5 5 5 5 5 5 5 7
6 40 4 0 2 5 5 5 5 5 5 8 5 5 5 5 5 5 5 5 6 5 57 100 100 100 100 12 65 11 5 5 5 5 6 6 10 6 17 35 5 5 99 99
5 12 5 5 5 40 99 5 6 12 75 6 42 11 5 20 64 70 91 100 100 100 100 100 100 94 5 6 5 5 5 5 20 67 65 39 36 95 73 19 3 5 32 37
19 5 5 5 5 65 53 61 5 12 5 8 6 7 27 100 100 100 91 100 100 100 100 83 14 26 24 55 50 11 31 68 100 98 82 6 84 100 44 1 0 5 5 5
33 5 39 23 8 54 100 98 17 5 5 28 5 99 72 40 97 100 58 29 54 84 90 34 86 100 100 100 98 92 97 100 100 100 46 51 68 65 4 0 2 5 18 99
5 5 5 5 6 54 100 100 100 5 34 44 100 100 100 98 100 100 25 34 61 100 86 92 100 100 100 100 99 100 100 100 100 100 98 90 47 5 5 4 5 8 94 89
69 72 5 74 5 31 100 70 33 37 99 100 100 100 77 96 92 100 88 98 100 100 100 100 100 100 100 82 100 100 100 100 100 100 93 17 5 5 30 6 5 5 5 5
31 47 75 64 40 22 7 14 85 100 100 100 59 82 98 100 100 92 100 100 100 100 100 100 100 100 94 100 100 100 100 100 100 75 8 5 5 5 51 19 5 5 5 5
100 100 100 97 65 5 34 99 100 100 100 64 94 99 100 100 86 96 100 100 100 100 100 100 100 100 100 100 100 100 100 100 100 6 5 5 5 6 88 7 5 18 5 5
100 100 100 100 100 100 100 100 100 12 5 24 71 100 100 100 100 100 100 100 98 100 100 100 100 100 100 100 100 100 96 87 9 5 5 6 5 10 98 100 100 98 76 43
100 100 87 5 95 97 100 100 94 27 81 79 80 84 77 100 100 100 100 98 100 100 100 100 100 100 100 100 100 77 72 47 14 10 38 7 18 73 72 86 100 88 30 5
100 85 5 5 17 15 100 99 40 79 99 78 99 100 100 100 100 100 100 100 100 100 100 100 100 100 100 100 100 60 63 34 62 100 100 100 99 100 98 98 100 82 5 5

GFSCGP_prec_cloud_012.txt.gz
Cloud_Cover
100 100 100 100 100 100 100 100 100 100 100 98 90 100 100 92 55 39 37 45 93 100 100 100 83 63 36 10 49 91 97 56 39 62 51 71 72 43 45 9 0 3 1 0
100 100 100 100 100 100 100 100 100 100 94 45 64 61 63 33 14 14 89 94 66 8 6 21 21 15 21 31 63 74 42 22 5 5 0 0 1 0 0 0 0 0 0 3
100 100 100 100 100 100 100 80 100 82 67 6 5 2 1 1 2 5 70 50 39 11 5 25 46 52 50 69 39 47 44 5 5 18 12 4 3 0 0 1 3 5 0 0
94 100 100 100 100 100 100 96 90 81 32 24 5 71 2 0 1 5 5 5 5 5 5 18 26 8 5 5 7 5 6 34 10 2 0 0 0 4 5 5 39 5 5 4
92 100 100 46 100 100 64 17 8 5 5 5 5 2 4 1 5 20 41 6 4 0 2 1 5 7 5 51 5 23 46 1 0 0 0 0 4 5 6 7 5 5 5 5
92 91 15 57 51 5 3 5 5 65 16 0 2 4 61 60 12 0 0 0 0 0 0 5 5 5 5 5 5 1 0 0 1 5 5 4 5 22 37 24 5 13 5 5
7 26 9 3 5 4 5 5 5 5 3 5 6 1 0 0 0 0 0 0 0 0 5 5 5 5 5 5 4 0 2 2 5 5 5 20 16 16 77 54 37 25 4 0
1 0 3 5 2 1 3 5 16 5 3 0 0 0 0 0 0 0 0 0 1 5 2 3 5 5 5 5 0 0 3 5 5 5 7 99 82 78 96 87 81 4 3 5
0 0 0 5 20 69 57 6 0 0 0 0 0 0 0 0 0 0 1 3 0 5 5 3 5 5 5 1 0 0 5 8 6 6 73 100 65 24 84 95 16 5 15 73
2 3 3 0 0 0 0 0 0 0 0 0 0 0 0 0 0 3 0 0 4 6 5 5 5 5 4 5 11 36 70 99 100 100 100 12 5 77 89 12 24 40 7 5
0 0 0 0 0 0 0 0 0 0 0 0 0 2 2 0 0 1 4 5 55 26 5 5 5 5 5 5 66 100 100 100 73 100 86 29 92 67 5 5 5 5 5 5
0 0 0 0 0 0 0 0 0 5 5 0 0 5 3 0 0 5 5 6 21 5 5 5 5 26 39 89 100 100 100 100 99 100 98 14 5 5 5 5 5 5 11 73
0 0 1 1 0 0 0 2 5 5 5 5 28 0 0 4 5 5 5 5 2 5 5 5 35 98 100 100 100 100 84 99 100 34 5 5 5 15 5 5 11 6 63 47
0 0 0 3 5 5 5 8 39 5 5 2 0 1 5 5 5 8 12 5 5 5 6 35 71 27 34 98 84 41 87 97 7 5 5 74 91 11 5 5 5 26 97 30
4 5 5 5 5 6 45 88 6 5 4 0 5 2 5 39 11 97 5 5 5 17 98 88 6 5 8 94 97 100 94 60 97 58 95 99 25 5 16 35 72 100 72 18
8 38 43 40 5 45 100 59 5 5 1 5 5 5 5 5 26 6 5 5 5 100 100 80 97 93 14 93 100 100 100 100 100 100 100 72 9 56 56 100 100 95 42 6
15 5 5 5 9 97 100 25 5 5 2 5 5 5 6 9 5 6 5 14 100 100 44 54 60 33 88 100 100 100 100 100 100 100 82 37 63 92 100 100 71 66 23 56
5 5 5 5 6 99 100 26 2 0 2 5 5 5 13 5 5 5 5 98 93 60 89 100 93 100 99 94 100 95 100 100 100 96 87 87 100 100 100 94 20 58 32 66
5 5 6 24 5 54 94 7 15 5 5 5 5 5 5 5 5 72 99 59 72 89 87 100 100 97 65 98 77 100 100 100 90 100 100 100 100 100 89 55 21 95 66 65
5 9 15 8 67 71 85 25 5 12 13 100 81 44 9 100 100 54 5 5 18 98 100 100 96 54 100 86 100 100 100 100 100 100 100 100 100 98 100 100 100 5 68 55
25 38 39 8 35 16 5 27 57 78 92 100 89 100 100 100 26 5 13 59 95 100 92 48 84 84 88 100 100 100 100 100 100 100 100 100 100 100 100 100 54 12 86 18
12 13 36 9 64 37 5 43 100 79 70 55 43 40 61 10 6 47 70 99 74 61 27 32 78 100 100 100 100 100 100 100 100 99 100 100 100 100 100 100 61 85 92 6
5 5 6 18 5 5 5 86 21 5 39 95 100 8 5 34 53 95 82 74 96 63 84 87 94 100 87 87 100 100 100 100 100 100 100 100 100 100 100 99 86 99 99 15
96 58 61 6 78 5 6 48 100 99 100 58 5 7 61 100 79 62 100 65 74 98 100 100 85 100 100 100 100 100 100 100 100 100 100 100 100 100 100 72 84 99 97 93
100 42 5 29 99 99 100 55 5 6 5 5 23 65 92 56 84 61 17 21 38 67 96 100 100 100 100 100 100 100 100 100 100 100 100 100 100 90 100 100 89 100 86 76
100 95 99 64 35 6 13 71 98 77 48 62 67 39 53 48 27 27 28 91 100 100 100 100 100 100 100 100 100 100 100 100 100 100 100 100 100 100 100 100 100 92 6 7

GFSCGP_prec_cloud_015.txt.gz
Cloud_Cover
100 100 100 100 100 100 100 100 100 99 99 100 100 100 94 100 100 97 100 100 100 80 71 28 24 38 16 5 30 17 100 100 89 93 55 64 98 89 21 7 0 0 0 0
100 100 100 100 100 100 100 100 100 100 99 100 100 100 86 66 78 74 74 68 64 42 5 13 27 5 8 73 85 85 96 99 91 73 12 7 5 2 0 0 0 0 1 3
100 100 100 100 100 100 100 100 100 100 100 83 100 87 64 76 32 5 4 3 5 5 5 5 13 37 100 100 96 76 63 52 20 52 5 0 0 0 0 0 0 1 5 5
97 100 100 100 100 100 100 100 100 94 36 29 7 97 68 4 3 4 5 5 4 4 5 6 59 94 46 7 5 6 5 5 5 3 0 0 69 99 6 5 5 5 5 5
100 100 100 100 100 99 100 99 99 100 15 100 40 2 97 100 5 6 5 3 12 70 52 5 4 0 5 5 5 5 5 2 0 0 0 0 2 5 5 5 5 5 6 89
100 99 99 97 97 100 100 100 99 28 99 58 26 87 100 89 95 52 6 4 1 0 0 0 0 1 5 5 5 5 0 0 0 0 0 0 5 5 22 85 73 70 17 5
90 96 100 100 95 100 100 96 64 62 100 17 86 21 84 100 49 4 0 0 0 0 0 0 0 0 5 5 5 5 4 0 0 0 3 5 7 5 39 100 17 5 5 31
100 100 100 97 46 98 8 93 30 100 86 100 65 3 3 0 0 0 0 0 0 0 0 0 0 0 0 5 5 5 5 4 1 0 5 5 6 87 100 100 16 5 5 5
92 100 99 18 5 5 83 5 4 32 43 1 0 16 20 0 0 0 5 0 0 0 0 0 0 0 0 5 5 5 2 5 5 5 10 100 100 100 100 63 10 5 5 5
29 89 5 5 7 5 5 8 3 0 0 3 84 47 29 0 0 0 0 0 0 0 2 5 5 5 5 5 5 5 5 7 28 74 24 32 91 98 100 30 5 5 5 5
5 9 16 5 4 8 4 0 0 1 9 4 0 10 0 0 0 0 0 1 0 3 5 5 5 5 5 5 5 5 39 30 22 92 17 97 92 99 34 67 30 5 37 10
4 2 4 2 1 0 0 5 4 0 0 0 0 1 0 5 3 0 5 1 5 8 5 6 5 5 5 5 82 99 19 66 100 98 64 70 100 100 100 59 9 68 44 5
0 0 5 5 0 0 0 0 0 0 0 4 24 4 3 5 0 4 18 21 16 8 5 5 5 5 19 100 40 5 24 67 95 81 71 96 100 98 55 17 63 92 20 60
0 0 2 5 92 11 0 3 5 5 5 5 0 0 0 2 5 8 5 2 0 2 2 5 5 5 100 86 5 6 79 77 100 88 100 99 100 59 35 83 70 23 94 100
0 0 2 5 1 3 6 19 52 5 5 5 0 0 0 5 5 5 5 5 5 5 5 5 5 90 98 70 32 21 94 100 100 100 100 100 86 95 100 70 73 99 100 100
0 5 2 0 1 9 48 32 5 3 5 5 0 5 5 5 5 5 5 5 6 5 5 20 100 88 33 53 31 89 100 100 100 100 100 100 100 100 100 96 100 100 100 98
5 4 5 5 5 5 85 5 5 0 0 0 5 5 5 2 3 5 5 5 5 10 98 60 5 45 82 58 81 100 100 100 97 93 100 100 100 100 100 100 100 100 80 44
0 5 5 9 5 57 8 0 0 5 5 2 5 5 5 5 12 34 5 5 99 100 12 22 56 10 38 76 90 98 97 64 95 97 100 100 100 100 100 100 100 88 68 47
2 5 5 20 5 5 5 11 5 5 5 5 5 5 5 12 9 5 5 52 92 6 5 7 10 61 84 61 8 35 97 100 43 98 100 100 100 100 100 100 100 100 96 100
5 5 5 5 51 63 7 5 6 5 5 28 5 5 9 87 13 5 5 6 5 21 19 21 58 37 5 7 26 88 100 100 100 99 100 100 100 100 100 100 100 100 100 100
5 44 40 5 35 23 47 34 81 48 6 5 10 99 77 53 22 95 100 22 18 15 24 88 47 55 90 86 100 100 100 100 100 100 100 100 100 100 100 100 100 100 100 100
19 16 34 11 63 81 76 57 53 5 5 14 5 5 6 95 100 80 70 85 38 80 100 97 96 96 81 97 99 100 100 100 100 100 100 100 100 100 100 100 100 100 100 100
54 43 14 5 5 6 13 5 5 5 5 5 10 98 81 75 11 30 14 7 70 96 48 36 18 84 94 52 100 100 100 100 100 100 100 100 100 100 100 100 100 100 100 96
34 5 5 5 5 3 5 5 5 5 5 36 21 8 57 10 7 5 50 89 74 81 70 29 39 76 100 100 100 100 100 100 100 100 100 100 100 100 100 100 100 100 97 100
22 5 5 5 5 5 5 6 50 11 5 11 98 84 15 10 13 29 60 59 51 15 11 55 100 100 100 100 100 100 100 100 100 100 100 100 100 100 100 100 100 91 100 100
5 5 12 26 77 100 100 97 45 9 91 100 56 5 11 30 36 56 35 33 40 87 100 100 100 100 100 100 100 100 100 100 100 100 100 100 100 100 100 93 92 100 100 33

GFSCGP_prec_cloud_018.txt.gz
Cloud_Cover
44 97 100 100 100 100 100 100 100 100 76 100 100 100 100 81 100 100 58 76 59 83 54 100 96 99 100 100 80 47 60 88 46 5 5 35 5 5 5 5 4 2 0 0
98 91 100 100 100 100 100 100 100 100 81 84 96 76 100 100 99 100 37 56 72 7 10 5 5 5 5 5 6 64 69 15 17 6 77 5 5 2 0 0 0 0 0 0
99 84 100 100 100 100 100 100 97 82 99 100 100 100 98 90 36 49 62 47 5 8 2 1 2 5 14 69 11 22 6 6 5 75 4 10 6 0 0 0 0 0 0 0
91 100 98 100 100 100 100 80 79 100 96 99 92 100 100 97 88 59 3 1 0 48 5 5 4 2 100 70 55 5 5 59 63 7 0 0 0 0 0 26 0 4 5 35
98 97 100 100 100 86 96 96 20 100 78 100 100 51 91 96 100 99 5 5 5 0 1 5 41 85 100 71 92 82 39 3 3 0 0 0 0 0 0 0 5 5 100 95
99 79 100 93 100 100 76 37 59 68 100 100 99 96 94 53 100 100 96 30 9 15 7 18 9 30 20 11 4 0 0 3 0 1 0 0 0 1 4 7 14 19 89 79
100 100 96 100 100 80 64 96 69 100 100 99 81 100 99 94 88 100 100 100 25 0 7 0 0 0 0 0 0 0 0 0 3 5 0 4 11 5 5 12 79 70 99 100
99 99 75 76 100 100 85 96 100 100 100 100 16 92 92 58 60 49 100 28 0 0 0 0 0 0 0 0 0 0 0 5 5 5 13 42 8 5 5 39 71 45 57 73
100 86 100 100 100 100 14 100 84 92 93 60 48 66 20 5 4 3 3 0 0 0 0 0 0 0 0 0 0 0 0 0 19 100 87 10 11 10 70 85 82 26 100 78
100 100 66 57 34 18 13 42 5 5 5 17 93 34 99 35 19 0 0 0 0 0 0 0 0 0 0 0 4 2 1 5 94 100 5 50 80 97 100 100 80 100 98 8
100 100 100 32 81 6 8 5 5 5 61 22 2 6 4 0 0 0 0 3 1 0 0 0 0 0 0 3 4 3 5 20 100 100 5 28 92 81 100 98 98 94 6 5
27 66 66 61 89 6 7 78 20 6 1 0 0 0 0 0 0 0 0 0 0 0 0 0 0 3 5 5 5 5 5 100 88 5 23 78 100 100 97 99 77 5 5 29
5 5 5 7 68 6 4 0 0 84 2 0 25 0 0 0 0 0 0 0 0 0 0 5 5 5 2 5 5 49 95 15 5 5 24 85 99 100 99 92 29 16 11 63
5 3 0 0 9 71 93 0 1 1 0 0 0 0 2 0 0 0 0 0 1 5 3 2 4 5 5 18 100 11 5 5 5 9 100 100 100 41 83 37 51 57 53 62
0 0 0 1 21 68 96 37 41 4 0 0 0 0 0 1 1 0 0 5 14 2 4 5 23 46 100 98 7 5 5 5 5 93 100 100 94 91 34 60 76 100 98 80
0 0 0 0 0 4 4 0 0 0 3 5 0 3 0 0 2 5 5 5 5 5 5 5 5 96 49 5 5 5 5 5 5 98 100 100 100 95 97 100 100 100 100 95
4 4 1 0 5 5 5 0 0 3 5 1 5 5 5 0 5 4 2 5 6 29 5 5 5 14 21 5 5 5 5 5 9 90 100 100 86 100 100 88 100 100 100 96
2 5 3 5 5 5 0 0 0 5 2 0 5 28 5 5 5 5 5 22 29 5 5 6 89 63 6 5 5 5 5 5 34 100 100 100 99 100 100 100 100 100 100 100
5 5 5 62 5 5 4 0 0 5 1 5 64 5 5 5 5 5 6 91 6 5 36 100 100 5 5 5 5 5 62 77 100 100 100 100 100 100 100 100 100 100 100 100
5 5 5 5 3 5 6 5 5 5 5 30 5 5 5 5 5 18 44 5 18 100 95 5 5 5 5 9 52 62 97 93 100 100 99 92 100 100 100 100 100 100 100 100
5 6 38 5 33 5 6 7 7 30 29 5 10 18 6 55 84 23 7 99 99 9 5 11 19 7 77 49 38 79 100 94 100 87 100 100 100 100 100 100 100 100 100 100
5 6 35 6 73 61 10 59 79 13 9 18 26 9 5 25 100 52 16 32 100 49 37 10 88 68 34 9 82 100 73 98 100 100 100 100 100 100 100 100 100 100 100 100
8 8 6 5 6 56 39 59 6 54 46 5 13 12 5 6 40 5 20 65 100 35 87 54 75 26 95 92 100 100 100 100 100 100 100 100 100 100 100 100 100 100 100 100
7 40 5 27 9 5 54 21 51 93 5 82 72 83 100 99 5 5 56 99 65 75 94 63 43 89 100 100 100 83 100 100 100 100 100 100 100 100 100 100 100 100 100 100
26 48 6 99 30 5 5 44 71 5 16 100 100 100 99 36 5 5 8 48 62 100 90 100 100 100 100 100 99 93 93 100 100 100 100 100 100 100 100 100 100 100 100 100
16 5 5 10 5 67 4 11 6 55 100 100 100 86 11 5 14 47 86 94 44 94 98 100 100 91 70 74 88 92 92 93 99 100 100 100 100 100 100 100 100 100 100 93

GFSCGP_prec_cloud_021.txt.gz
Cloud_Cover
5 19 61 92 100 100 100 100 100 100 79 100 88 90 94 92 100 100 100 100 100 100 64 9 17 41 97 27 5 77 100 100 100 68 40 88 59 5 5 23 5 6 6 5
6 50 69 78 99 82 100 98 100 100 90 13 100 100 100 99 99 100 100 100 100 100 100 58 5 5 5 59 5 14 53 100 41 5 74 60 5 5 5 22 5 4 0 0
80 46 100 100 97 90 100 66 100 100 100 92 46 100 100 64 100 75 100 100 81 77 19 5 5 5 5 20 3 38 46 86 25 5 5 10 5 25 2 0 0 0 0 2
42 40 73 99 62 39 75 99 90 62 66 95 22 76 81 100 100 100 49 95 25 6 6 5 2 0 4 8 22 5 5 5 35 24 23 2 0 0 0 0 0 0 1 5
98 100 94 96 80 6 98 82 100 100 97 99 46 97 100 100 95 99 47 11 18 9 0 3 5 1 0 4 18 5 5 2 1 0 5 0 0 0 0 0 0 0 5 16
28 100 100 100 99 100 88 91 82 96 99 100 73 70 100 90 16 49 79 90 11 5 40 5 5 5 3 100 100 60 43 38 1 4 4 5 5 2 3 1 5 8 80 10
80 100 99 100 100 80 100 92 80 83 94 95 70 100 100 94 75 37 90 100 69 62 15 5 0 27 5 29 100 100 66 0 0 3 4 5 5 5 17 54 55 67 85 16
100 72 100 100 100 100 83 83 96 89 100 100 87 83 53 22 78 7 100 100 75 65 68 54 0 0 0 0 25 85 8 0 3 5 12 73 80 73 100 100 100 75 32 5
84 12 96 100 100 100 100 61 96 100 100 100 100 97 5 4 5 4 50 100 97 6 91 44 0 0 0 0 0 0 0 0 2 2 90 100 100 100 100 100 91 58 64 65
41 26 4 100 99 43 100 98 76 44 99 100 90 39 5 10 33 22 4 4 70 100 70 0 0 0 0 0 0 0 0 0 4 5 95 90 100 99 100 98 91 100 77 100
89 83 100 100 95 25 50 29 16 3 5 32 20 24 6 5 2 0 0 0 0 0 0 0 0 0 0 0 0 0 0 2 3 80 33 17 82 98 84 89 81 73 100 84
100 100 65 95 36 6 48 27 94 5 5 6 5 37 20 0 0 0 0 0 0 0 0 0 0 0 0 0 0 0 0 92 100 70 5 94 8 80 100 100 98 100 94 91
5 97 100 98 8 5 6 12 77 73 32 5 4 0 0 0 0 0 0 0 0 0 0 0 0 0 0 1 3 5 10 72 6 5 4 6 96 100 100 100 100 91 74 93
3 4 36 8 5 10 71 8 21 17 3 1 0 0 0 0 0 0 0 0 0 0 0 2 5 5 5 5 16 9 5 6 5 0 2 50 98 94 100 79 94 81 35 97
36 10 6 5 1 6 12 5 90 62 2 1 0 0 0 0 1 0 4 0 1 49 1 0 4 72 22 36 34 61 37 50 5 5 5 57 71 80 84 89 98 58 82 73
5 5 0 0 0 0 4 4 3 5 0 3 1 1 0 0 0 5 0 5 5 5 5 5 5 5 5 3 4 60 5 5 5 5 47 100 58 70 97 96 93 100 90 100
4 0 1 0 0 0 0 0 0 0 0 0 0 0 1 0 3 5 5 9 2 0 5 17 93 7 5 84 44 5 5 5 5 57 100 95 16 89 99 99 100 100 100 100
0 2 5 5 3 3 0 0 0 0 0 0 5 5 5 3 0 0 5 11 10 5 5 21 12 100 97 9 5 5 5 7 62 100 100 100 100 93 100 100 100 100 100 100
78 5 5 5 5 5 5 2 0 0 0 0 5 2 5 5 5 11 24 5 5 5 5 32 65 54 5 5 21 5 14 97 100 40 20 92 99 87 100 100 100 100 100 100
4 5 5 5 5 24 57 5 0 0 2 5 4 5 5 5 6 5 5 5 5 5 12 10 98 6 5 18 5 5 8 26 37 100 80 98 77 100 100 100 100 100 100 100
8 6 5 11 15 27 33 5 5 5 4 5 5 5 9 44 82 65 7 24 30 87 87 82 6 5 5 17 62 99 100 100 100 92 75 100 100 100 100 100 100 100 99 100
5 26 25 51 79 36 5 14 5 5 5 22 5 26 88 76 54 5 5 6 77 100 100 32 5 8 72 96 95 100 100 100 100 100 100 100 100 100 100 100 100 100 100 100
5 5 5 5 5 5 10 5 5 59 99 56 15 8 6 28 5 13 51 100 100 100 87 59 26 41 98 100 100 100 100 100 100 100 100 100 100 88 100 100 100 100 100 100
17 5 5 5 5 41 54 32 84 100 100 88 6 75 55 11 39 100 100 100 99 99 97 100 100 100 99 100 98 100 100 100 99 86 64 93 100 100 100 98 92 88 92 68
38 6 9 88 29 5 6 36 35 71 100 44 19 33 31 76 100 100 100 98 33 40 79 75 100 99 98 100 100 100 100 99 20 41 81 97 94 52 41 4 4 5 5 5
26 91 100 100 100 24 55 14 7 16 16 42 100 96 99 100 100 100 80 50 71 10 52 53 77 92 100 100 100 100 97 20 55 31 5 1 1 5 4 2 3 5 8 45

GFSCGP_prec_cloud_024.txt.gz
Cloud_Cover
4 5 5 68 98 99 100 32 99 100 96 100 100 100 100 100 100 100 79 100 100 100 100 100 100 100 93 76 8 6 5 5 5 5 5 23 100 100 92 82 78 76 75 61
1 2 5 100 64 99 85 50 100 100 100 88 98 100 100 100 100 100 69 100 90 91 71 95 100 9 5 5 8 33 41 29 5 7 35 80 54 33 87 81 6 5 5 5
7 95 92 82 73 78 31 100 100 100 99 71 54 100 97 100 100 100 100 80 29 54 56 30 67 65 90 38 12 75 84 72 44 9 5 5 6 5 5 5 5 4 2 4
91 99 58 100 99 100 100 100 97 80 100 100 100 24 33 97 95 100 100 100 100 100 98 100 95 20 5 5 29 100 39 100 64 14 5 5 5 5 5 5 0 0 0 5
92 5 66 100 72 97 82 100 91 100 100 78 38 45 20 78 94 71 96 100 99 97 19 14 5 4 0 7 5 23 34 48 69 5 5 5 87 11 5 5 5 5 5 5
27 78 36 100 100 91 13 34 66 98 100 20 17 48 11 69 100 42 100 100 98 56 76 38 0 0 41 5 94 64 6 48 0 0 5 55 91 22 5 12 38 77 82 64
3 12 64 47 60 48 97 99 96 78 92 80 80 67 76 89 29 5 85 39 6 56 98 34 4 3 13 29 38 4 6 6 39 29 4 70 57 7 66 92 98 91 34 83
32 16 50 90 89 52 36 100 100 89 16 5 18 56 100 96 72 60 65 0 1 5 14 100 81 24 0 48 8 5 0 100 0 4 12 68 94 77 87 79 95 97 100 100
31 13 23 10 61 94 90 41 5 45 9 5 24 5 96 31 15 26 4 4 1 0 5 28 21 0 62 5 0 3 1 100 95 90 100 100 100 100 100 100 96 100 100 100
70 77 98 96 16 90 95 28 72 73 100 5 11 6 53 70 21 8 3 0 0 0 1 5 2 2 5 0 0 0 0 4 73 71 44 96 100 100 100 96 100 100 100 98
19 87 4 31 52 53 77 83 18 88 44 5 10 9 49 100 5 5 5 5 0 0 0 0 3 5 0 0 0 0 4 5 5 4 27 76 100 100 100 100 100 99 89 86
60 2 78 92 98 49 43 68 12 6 1 8 34 0 0 3 5 54 0 0 0 0 0 2 5 5 3 0 0 5 5 2 0 5 13 40 5 10 74 92 77 93 75 83
6 82 84 61 3 85 6 11 5 3 36 5 1 0 6 0 0 0 2 4 0 0 2 5 5 2 2 5 5 5 15 23 6 6 49 87 5 5 26 6 5 5 22 23
77 92 50 82 94 10 79 8 5 36 5 5 5 0 3 0 0 0 0 0 0 0 5 0 0 5 5 5 13 32 81 77 90 51 10 5 47 54 8 5 5 5 5 5
51 80 25 96 6 56 28 45 2 5 5 0 0 0 0 0 0 0 2 0 0 0 0 1 5 5 5 5 5 8 94 81 53 5 5 31 81 53 25 14 15 5 35 94
80 5 5 5 20 3 1 0 0 3 90 46 4 0 0 6 5 5 0 2 5 5 1 5 5 0 5 5 5 94 6 1 6 5 35 100 100 99 94 97 94 72 74 100
0 5 3 0 0 0 0 0 0 0 70 35 5 5 5 0 0 3 5 5 3 0 4 5 2 4 0 0 0 0 5 4 5 56 100 100 26 35 70 48 68 89 100 100
0 3 0 0 0 3 0 0 0 0 0 0 5 5 3 0 0 4 5 3 3 5 5 5 4 4 5 5 5 75 68 5 5 28 20 7 45 84 94 91 98 100 100 100
95 100 73 2 5 1 0 0 0 0 0 5 5 5 2 0 0 0 0 5 53 51 22 5 5 5 5 18 98 100 32 5 5 14 77 100 100 100 100 100 100 100 100 100
89 100 33 20 1 0 1 1 1 5 6 5 5 5 5 5 5 5 21 45 16 5 5 4 4 5 85 100 100 94 23 10 54 71 100 100 100 100 100 100 100 100 54 100
55 10 11 24 0 1 0 5 5 5 21 53 18 5 5 14 28 40 30 12 9 5 7 7 7 97 100 98 15 75 82 54 66 99 100 100 100 100 100 100 100 98 98 89
92 19 38 61 20 2 5 5 5 60 61 10 5 5 5 8 49 68 62 32 20 78 96 36 97 100 100 46 9 93 100 100 100 100 100 100 100 100 100 100 100 80 78 92
62 33 46 44 5 3 5 38 71 10 5 17 66 79 98 88 67 77 31 16 33 34 32 97 100 100 56 96 99 85 90 100 100 100 100 100 100 100 100 100 79 94 10 0
32 5 10 5 25 27 6 11 43 72 76 95 97 89 100 99 57 73 42 7 23 38 72 100 100 92 100 100 100 98 100 100 100 100 100 100 100 100 100 96 7 5 0 3
83 8 22 65 46 52 51 37 67 62 96 100 100 100 100 89 100 100 100 100 85 100 100 98 86 62 67 68 92 100 100 100 100 100 100 100 100 99 98 53 10 3 0 5
98 24 75 90 93 38 73 61 83 100 99 100 100 100 100 100 90 67 95 80 98 100 88 91 62 24 12 96 100 100 100 100 100 100 99 100 92 80 69 14 5 0 2 5

GFSCGP_prec_cloud_027.txt.gz
Cloud_Cover
0 0 4 100 28 88 99 100 100 100 100 100 100 97 100 100 100 100 100 100 100 100 100 100 100 100 100 100 100 100 100 100 100 100 100 100 100 100 100 100 100 100 79 12
0 0 0 5 63 32 100 100 100 100 98 100 98 78 99 63 98 97 100 100 100 100 100 100 100 100 99 94 100 100 100 100 100 100 100 98 100 94 90 90 38 43 5 5
0 3 12 100 100 96 100 100 100 100 100 100 100 95 100 99 10 5 94 99 92 100 100 99 100 100 100 100 100 100 100 100 98 66 6 5 5 5 18 37 24 5 3 5
0 0 52 100 86 78 100 97 100 100 100 100 100 100 100 99 71 69 20 6 49 23 6 3 4 94 100 89 87 12 5 20 86 56 100 58 100 5 77 90 79 5 5 5
0 1 50 71 86 89 63 100 53 92 12 62 91 78 100 100 98 38 59 35 72 100 100 100 62 5 8 83 65 74 24 87 60 90 10 94 54 41 67 97 99 5 40 5
5 0 5 22 82 81 100 100 47 29 85 92 47 75 46 91 100 78 77 80 8 21 75 18 72 72 9 41 12 90 85 100 100 100 85 94 8 5 7 95 6 58 20 22
5 1 2 5 75 66 75 95 100 100 83 35 32 6 27 56 99 62 72 100 40 6 5 6 70 23 26 24 83 62 100 100 81 81 98 14 4 6 85 73 83 100 45 85
5 4 0 7 52 95 41 60 100 100 70 78 72 34 93 57 44 99 51 60 44 99 21 5 5 15 18 18 100 100 100 100 90 65 82 28 32 6 100 92 94 35 79 100
2 4 5 5 7 24 93 100 77 79 36 50 41 5 14 37 98 7 5 40 40 40 4 5 6 5 44 63 63 72 26 3 0 0 14 42 4 5 62 100 100 100 100 100
0 4 5 5 5 25 94 40 30 20 13 5 45 51 5 26 5 5 18 4 5 5 5 13 46 14 5 5 5 1 1 0 0 0 0 2 25 100 100 94 99 86 100 100
0 0 4 5 99 79 100 12 75 64 56 5 10 49 6 5 5 4 5 3 5 5 5 5 3 0 0 0 0 0 0 0 0 1 5 5 5 23 19 55 80 100 100 100
0 0 0 18 66 8 5 10 34 6 3 5 4 4 2 5 87 97 95 5 5 5 0 0 0 0 0 3 5 5 0 0 0 5 5 5 57 43 93 100 100 100 100 100
0 0 0 1 4 65 5 4 5 1 0 5 1 0 5 5 6 54 71 5 0 0 0 0 0 0 0 4 1 0 3 1 4 40 91 26 49 69 91 100 44 5 5 8
5 0 0 2 5 60 6 36 4 5 5 23 5 3 96 81 74 96 3 5 4 0 0 0 4 5 5 30 97 70 15 74 61 100 49 46 15 72 100 100 100 95 95 49
4 1 13 75 100 32 1 4 6 6 10 5 3 1 0 2 25 1 5 5 1 0 22 51 71 99 97 53 22 29 97 97 34 52 97 87 84 100 100 100 100 100 94 82
5 5 28 95 6 5 4 5 6 5 33 3 0 0 0 0 0 0 0 0 0 5 5 2 0 0 2 5 24 75 19 93 100 97 8 38 100 100 100 100 100 100 100 100
33 4 5 5 4 0 5 82 78 19 0 0 0 0 0 0 0 0 0 0 0 0 0 0 1 5 5 5 5 9 18 47 14 5 5 63 100 100 100 100 100 100 100 99
6 90 14 3 0 4 0 0 0 0 0 0 0 0 0 0 2 4 0 0 0 0 2 5 5 5 14 34 7 3 0 5 5 5 5 99 100 100 100 100 100 100 100 100
5 5 0 0 5 2 0 0 0 0 0 5 0 0 0 0 0 1 0 3 5 5 5 5 5 5 5 5 5 5 5 21 63 48 35 100 100 100 100 100 100 100 100 100
5 3 0 15 5 7 98 0 0 0 2 5 4 5 0 0 0 4 5 5 5 5 5 5 5 5 5 5 5 5 8 89 100 81 35 98 100 100 100 100 100 100 100 100
5 25 1 18 21 86 97 2 0 0 4 3 10 9 5 5 5 5 5 5 19 67 38 5 5 6 5 5 5 5 91 100 82 70 76 100 100 100 100 100 100 100 100 100
4 13 15 1 3 9 17 69 5 0 0 1 5 10 30 29 47 17 5 19 13 5 17 75 87 95 42 28 68 100 100 92 100 99 100 100 100 100 100 100 100 100 100 99
5 5 3 0 5 88 8 5 5 5 4 2 5 5 30 51 22 42 42 34 75 100 100 100 100 100 99 99 100 100 94 84 100 98 100 100 100 100 100 100 100 100 23 60
1 9 5 5 54 22 25 19 10 5 5 17 5 5 10 46 50 68 99 100 100 96 72 96 100 100 57 49 94 87 92 91 33 95 100 100 100 100 99 55 8 18 100 100
5 5 95 100 51 57 94 44 25 36 40 32 53 63 79 88 100 100 100 100 100 100 100 100 100 96 81 93 90 72 62 65 86 88 75 26 11 12 5 33 56 100 100 100
100 100 83 99 5 42 100 97 100 100 99 98 100 100 100 100 100 100 100 100 100 99 100 100 99 99 81 78 66 81 76 46 21 5 5 5 5 18 38 87 100 100 100 59

GFSCGP_prec_cloud_030.txt.gz
Cloud_Cover
0 0 0 0 5 22 100 100 100 100 100 88 84 100 100 100 100 100 100 100 100 100 100 100 100 100 100 100 100 100 100 100 100 100 100 100 100 86 36 64 100 100 100 100
0 0 0 0 2 35 60 100 73 100 100 37 94 100 100 100 100 100 100 100 100 100 100 100 100 100 88 91 94 64 10 61 43 18 32 43 59 100 100 100 100 99 100 98
0 0 0 30 100 94 18 89 100 100 100 58 49 100 100 100 100 100 100 100 100 100 100 100 100 100 100 100 100 100 86 84 100 100 100 100 100 91 96 71 53 7 11 12
0 0 0 61 5 49 100 48 99 100 99 99 19 73 100 82 100 100 100 100 100 100 100 100 100 100 100 100 100 100 100 100 100 100 100 98 100 100 99 100 71 13 6 49
0 5 4 5 4 2 8 5 77 100 100 100 96 75 8 5 77 86 100 100 100 100 98 100 100 100 100 100 100 100 100 100 100 100 100 100 100 100 100 98 15 18 59 5
0 2 5 0 0 5 17 6 11 75 100 94 100 100 58 5 5 20 34 36 58 41 34 5 8 83 16 90 100 100 100 100 83 100 100 100 78 67 91 84 30 35 89 6
0 2 1 5 4 0 87 11 23 57 100 100 100 100 21 52 34 11 9 5 9 5 5 5 5 5 24 16 32 45 97 100 100 88 100 100 70 98 100 79 58 5 48 84
2 0 0 0 5 15 8 6 5 8 80 57 94 100 100 100 19 32 5 5 5 21 8 5 5 34 15 5 10 24 81 100 100 100 100 100 71 100 98 100 6 60 99 70
2 2 3 3 5 5 5 5 5 6 5 5 5 14 64 100 100 63 16 6 9 5 5 5 5 5 5 5 9 38 82 100 100 100 84 76 100 42 24 51 4 10 94 100
0 2 5 13 59 10 5 3 69 70 5 6 5 5 19 92 100 100 100 100 100 88 5 5 1 0 2 8 90 100 100 61 6 6 5 3 4 0 20 28 98 99 58 64
0 0 4 5 35 63 6 5 5 5 57 34 59 92 7 9 26 90 100 100 99 44 5 5 4 5 5 5 7 6 1 0 0 0 0 0 2 5 35 71 63 63 100 100
0 0 0 0 8 74 5 91 43 5 31 28 35 100 91 12 16 92 27 11 36 7 5 6 51 84 60 5 0 0 1 1 2 2 5 5 57 6 5 29 82 94 100 100
0 0 0 0 0 2 4 86 6 5 6 9 2 4 5 5 5 60 100 98 34 5 5 5 5 5 0 0 0 15 57 98 5 5 8 7 69 5 5 44 100 100 100 100
25 4 0 0 0 3 2 5 5 12 24 5 5 2 0 1 9 88 92 5 5 2 3 0 0 0 0 0 4 27 23 4 3 5 11 41 5 46 22 87 100 100 100 100
16 8 5 1 0 6 0 3 2 0 5 33 16 5 6 97 52 100 95 5 0 0 0 0 0 0 0 2 5 6 15 5 6 5 20 5 16 59 6 55 100 100 100 100
49 3 5 5 5 1 4 5 6 5 5 54 6 44 4 4 0 0 0 0 0 0 0 0 0 0 0 5 5 5 3 5 70 100 82 65 23 9 56 83 99 100 100 92
4 0 4 5 73 59 8 72 10 10 6 4 14 88 0 0 0 2 2 0 0 5 5 5 1 5 5 5 5 5 28 79 95 69 84 26 52 92 100 100 96 100 100 100
11 5 5 25 78 20 0 0 0 5 5 4 0 0 0 0 0 0 0 0 2 5 5 5 5 5 5 5 5 15 48 54 80 91 32 33 60 100 100 100 100 100 100 100
30 13 26 73 8 1 0 0 0 0 0 0 0 0 0 0 3 4 0 1 0 5 4 4 5 5 5 38 69 92 96 80 51 20 60 90 95 100 100 100 100 100 100 100
16 5 97 5 5 3 4 52 5 0 88 0 0 0 0 0 4 0 0 0 3 5 5 5 7 37 46 53 46 30 25 11 14 55 22 50 88 94 99 100 100 100 100 100
59 16 58 36 2 2 0 36 3 5 79 2 0 0 0 0 0 5 3 5 5 5 5 17 17 18 15 5 11 67 87 61 15 5 8 65 76 95 94 97 100 100 100 96
100 23 25 82 7 3 3 0 0 0 4 5 5 3 0 0 0 5 5 5 5 5 10 23 5 8 31 59 97 71 76 56 68 67 97 100 100 100 100 100 90 76 91 80
100 92 12 5 4 79 5 0 0 0 0 2 5 5 5 5 5 5 5 5 7 6 5 29 13 18 22 51 22 46 93 100 100 100 98 100 100 74 68 64 80 86 61 57
99 14 5 11 85 91 6 2 5 5 5 5 5 5 5 5 5 5 5 5 5 11 8 45 37 37 25 63 76 100 100 100 98 98 96 96 75 44 22 57 16 46 81 84
100 18 61 63 100 31 4 20 47 7 5 5 5 5 5 5 5 5 20 22 30 57 60 55 62 99 100 100 100 100 100 100 74 63 51 9 5 5 5 5 9 31 59 5
99 100 100 100 66 10 99 100 99 100 84 5 10 6 5 5 12 60 83 90 100 100 100 100 100 100 100 100 100 98 93 59 12 6 5 15 18 21 5 5 12 6 28 32

GFSCGP_prec_cloud_033.txt.gz
Cloud_Cover
0 0 0 0 0 5 18 99 34 16 97 100 100 100 100 100 100 100 100 100 100 100 100 100 100 100 100 100 100 100 100 100 100 100 100 100 100 100 100 100 100 100 100 100
0 0 0 0 0 0 4 84 97 100 100 94 73 100 100 100 100 100 100 100 100 100 100 88 100 97 100 100 100 100 100 100 100 98 100 100 100 100 100 100 100 100 100 100
0 0 0 0 5 5 0 6 84 58 100 100 100 100 100 100 100 100 100 100 100 100 99 100 100 95 100 100 89 97 97 100 100 100 100 100 100 100 100 100 100 67 48 27
0 0 0 0 1 28 4 4 14 80 100 100 100 100 100 100 99 100 100 100 100 100 78 98 100 100 95 91 80 9 31 96 33 19 72 100 93 74 76 98 100 99 100 47
0 0 0 0 0 20 60 10 73 98 100 100 100 100 100 98 38 97 100 100 100 100 100 100 100 100 100 100 100 100 100 100 88 100 100 96 71 44 26 97 91 100 63 57
0 0 0 0 0 1 86 5 5 98 100 100 100 100 100 37 75 68 100 100 100 100 100 100 100 100 100 100 91 100 95 92 97 100 92 100 100 100 92 81 100 100 97 85
0 0 0 0 0 1 5 5 5 15 93 100 90 93 14 99 99 57 28 59 100 90 31 24 67 99 100 100 95 100 100 100 100 100 100 100 100 100 100 100 100 100 100 66
0 3 0 0 0 0 1 4 5 5 12 47 100 100 100 13 80 32 56 98 92 50 31 4 3 5 82 100 80 98 100 94 100 100 100 100 100 100 100 100 100 100 99 33
5 5 0 0 0 1 2 6 4 5 6 99 100 100 100 100 91 17 40 65 83 17 12 5 5 5 5 5 5 31 25 62 100 100 100 100 100 100 100 85 37 97 76 91
5 5 0 0 0 1 5 5 3 2 40 100 100 100 100 80 100 100 96 76 32 6 54 44 23 14 5 5 21 5 6 5 30 100 100 100 100 100 82 100 99 30 100 93
0 1 2 0 5 5 5 5 5 4 5 5 30 100 100 96 100 96 100 100 100 84 99 96 19 5 2 0 0 5 5 36 97 99 56 44 35 41 86 98 87 99 90 74
2 5 4 0 5 5 5 2 4 3 13 9 100 100 6 68 100 100 100 97 60 6 9 5 5 4 1 5 14 20 50 51 20 97 100 100 100 100 100 100 90 100 77 62
5 5 0 4 0 1 0 2 2 5 5 51 100 100 28 55 80 97 94 100 100 13 5 5 9 5 5 16 84 30 18 4 25 100 100 100 78 92 97 41 95 98 14 78
5 4 0 0 0 0 0 5 46 14 5 6 91 100 7 5 5 18 78 66 63 99 11 2 5 5 25 71 8 1 2 4 25 74 68 33 37 51 80 81 35 70 64 66
6 5 5 0 0 0 0 0 4 0 1 2 78 98 100 6 35 85 50 5 6 13 2 5 5 5 2 1 3 3 7 5 8 5 4 1 0 48 8 5 32 100 100 100
79 6 5 0 0 5 4 0 0 0 0 2 20 90 82 40 32 20 5 8 5 0 0 0 0 0 0 4 5 3 0 0 3 0 1 5 8 59 100 100 100 100 100 100
100 20 5 5 0 5 0 75 2 5 2 6 81 8 5 5 5 57 0 5 4 1 0 3 5 0 0 0 0 0 0 0 2 5 5 5 7 64 100 100 100 100 100 100
67 84 11 36 1 3 2 2 4 17 0 0 4 4 0 1 4 2 0 0 1 5 1 3 0 0 2 0 2 3 3 5 5 8 6 29 99 100 97 100 100 100 92 96
100 55 31 49 0 5 0 0 0 0 3 0 0 0 0 0 0 0 5 5 5 5 3 5 5 5 5 5 5 5 5 12 17 20 38 96 100 72 100 100 100 100 100 100
100 59 5 5 7 64 1 0 0 0 19 5 0 0 0 0 0 0 1 0 1 5 5 5 36 50 84 90 69 48 32 9 6 36 69 73 50 98 97 55 99 81 100 100
96 18 47 49 51 100 39 1 0 0 0 1 4 5 2 5 5 5 1 0 0 3 2 5 5 6 5 5 5 17 62 74 73 74 87 95 85 86 100 100 99 100 94 94
100 100 100 95 89 100 10 1 0 0 0 0 0 0 2 5 1 1 2 0 0 0 3 4 5 5 5 5 5 15 70 64 72 93 100 100 100 90 99 46 29 67 73 60
100 100 100 17 88 100 26 5 0 1 1 0 0 0 4 12 5 8 5 5 5 3 0 5 5 5 5 5 5 8 76 75 49 11 37 95 100 87 52 43 76 66 19 46
100 100 50 67 100 100 53 5 5 5 5 0 0 0 0 5 5 5 5 5 5 5 5 5 5 5 5 5 42 37 5 5 8 62 98 99 73 100 85 100 78 60 80 59
100 100 81 19 100 98 12 10 46 96 5 2 4 3 3 5 5 5 5 5 5 5 5 5 5 5 17 64 52 42 58 31 91 100 100 99 100 99 100 53 57 77 70 16
87 100 100 99 100 100 100 100 100 100 33 23 5 12 5 5 36 50 52 53 8 14 12 17 8 30 90 86 99 87 60 99 100 99 96 78 82 86 45 82 97 84 36 7

GFSCGP_prec_cloud_036.txt.gz
Cloud_Cover
3 2 3 0 2 3 1 8 98 76 5 100 100 100 96 100 100 100 100 100 100 100 100 100 100 100 100 100 100 100 100 100 100 100 100 100 100 100 100 100 100 100 100 100
3 5 1 5 4 0 0 3 56 79 73 88 100 88 82 82 100 100 100 100 100 100 64 100 100 100 100 100 100 100 100 100 100 100 100 100 100 100 100 99 100 100 100 100
1 5 5 5 4 0 0 6 5 91 74 100 87 97 73 100 91 97 92 100 98 100 100 100 22 100 36 100 67 100 100 100 100 100 100 100 100 100 100 100 100 100 100 100
4 5 5 4 1 1 6 1 0 5 100 100 80 100 69 92 99 100 100 100 100 73 73 22 21 82 76 93 99 97 83 30 77 46 87 100 100 100 100 100 100 100 100 100
26 5 5 5 2 0 39 5 5 5 62 100 100 100 100 44 100 100 100 100 100 100 98 78 44 17 24 41 73 13 85 99 100 100 100 80 100 100 100 100 100 98 95 92
6 5 26 5 4 4 0 2 5 5 79 100 100 100 100 55 69 78 100 100 100 100 100 100 100 100 99 89 74 35 11 76 81 100 100 100 100 100 100 100 100 100 100 99
80 5 42 5 4 4 1 5 88 98 93 100 98 82 100 51 45 6 38 77 52 94 100 100 100 100 100 100 98 96 83 92 100 99 100 100 100 100 100 100 100 100 100 100
5 5 5 5 7 6 0 74 92 100 49 94 17 100 89 20 74 5 40 5 7 27 6 14 54 100 92 56 74 90 75 80 100 100 100 100 100 100 100 100 100 100 100 100
5 5 5 5 10 18 5 4 51 5 5 5 92 100 53 33 100 99 82 85 10 7 5 22 5 6 6 12 5 84 91 99 100 100 100 100 100 100 100 100 100 100 100 100
50 5 3 5 10 5 6 16 2 5 42 66 65 100 70 5 5 87 54 43 100 100 16 85 5 15 47 44 18 8 18 36 80 100 100 100 100 100 100 100 100 100 100 100
70 5 16 5 5 4 5 1 4 45 21 96 100 100 100 8 33 8 54 61 58 100 100 100 100 8 5 5 5 5 5 8 32 37 98 100 100 100 100 100 100 100 100 100
55 5 6 5 12 7 95 98 13 5 64 4 5 100 100 54 21 100 33 100 100 100 100 89 12 20 6 5 5 5 5 5 5 37 60 98 100 100 100 100 100 100 100 100
47 93 6 5 6 5 5 5 5 2 0 0 20 100 100 8 42 33 5 9 95 100 100 99 99 100 97 27 39 15 10 11 38 40 49 91 100 100 100 100 100 100 100 100
34 94 66 39 5 66 4 4 5 16 4 0 3 92 78 91 21 2 1 2 60 98 40 16 92 99 100 98 41 27 43 23 19 13 58 91 94 100 100 100 100 100 100 100
100 96 99 10 5 12 5 1 13 5 0 5 4 5 16 5 4 5 5 7 75 8 5 9 35 82 63 68 78 8 11 3 4 6 63 37 57 74 87 63 60 51 49 80
100 98 100 51 8 5 5 0 5 5 0 0 0 1 5 3 5 5 40 44 87 91 18 5 5 2 5 5 5 3 1 4 6 8 5 5 5 5 5 21 92 100 94 100
97 100 100 99 5 8 92 4 3 5 3 0 0 4 4 4 1 4 8 5 4 12 30 5 5 5 5 5 5 5 0 0 5 5 5 5 5 5 10 69 95 75 100 100
91 100 100 93 5 87 14 5 2 5 5 0 0 1 0 2 0 5 5 4 0 1 4 2 5 19 5 5 19 5 0 0 4 11 13 5 5 5 5 34 68 100 100 100
37 100 100 100 71 100 98 1 0 50 0 0 0 0 0 0 1 5 0 0 0 0 0 2 5 5 26 100 53 35 5 5 8 12 10 19 6 37 49 98 43 60 88 90
100 100 100 100 100 100 100 5 0 3 3 2 0 0 0 0 0 3 5 5 1 0 0 0 4 15 64 100 100 96 95 75 66 64 38 52 86 90 67 97 100 100 100 96
100 100 100 100 100 100 100 38 0 4 17 0 0 0 0 0 4 26 9 6 10 5 5 5 5 2 5 9 43 60 31 14 12 27 74 94 100 100 96 90 84 43 38 15
100 100 100 100 100 100 100 6 4 11 5 5 6 0 0 0 0 0 0 4 5 5 5 5 5 8 50 22 26 41 55 76 86 93 92 95 78 55 53 48 38 16 25 29
100 100 100 100 100 100 100 100 91 17 15 33 11 0 0 0 0 0 0 5 5 42 49 99 97 77 51 10 5 6 6 32 67 65 22 17 67 92 34 5 5 25 54 48
100 100 100 100 100 96 96 100 100 100 6 100 5 5 5 5 5 5 1 0 4 5 36 68 70 70 65 45 38 44 35 5 5 22 23 12 22 32 20 8 32 71 60 46
100 100 100 90 90 39 35 47 61 100 100 96 96 69 33 5 3 5 5 4 0 4 5 5 5 8 38 55 36 15 5 5 5 5 5 11 35 25 57 59 80 48 36 77
100 100 100 100 100 100 99 21 91 100 100 76 80 76 68 6 5 5 5 88 12 5 5 9 29 38 79 64 20 5 81 16 5 5 5 7 62 83 64 53 10 55 10 5

GFSCGP_prec_cloud_039.txt.gz
Cloud_Cover
5 5 4 16 37 76 100 80 100 48 100 96 97 66 99 100 23 100 100 100 100 100 100 100 100 100 100 100 100 100 100 100 100 100 100 100 100 100 100 100 100 100 91 97
32 5 5 49 5 5 8 100 74 78 2 41 42 97 100 86 72 99 100 100 99 88 100 100 100 100 100 100 100 100 100 100 100 100 100 100 100 100 100 100 100 100 100 100
74 44 33 5 4 5 79 100 100 51 88 5 85 97 90 96 61 100 100 100 100 100 100 100 100 100 100 100 100 100 100 100 100 100 100 100 100 100 100 100 100 100 100 100
72 5 5 5 5 10 98 23 28 5 4 99 30 92 100 98 94 100 100 99 88 100 12 37 100 100 73 100 98 100 100 100 100 100 100 100 100 100 100 99 94 100 100 100
35 18 50 6 5 50 99 98 5 14 100 97 51 43 89 84 73 91 77 46 100 99 9 5 14 25 62 77 98 90 58 96 96 100 100 100 98 100 100 100 96 100 100 100
100 10 23 31 16 21 75 46 51 30 44 99 70 89 75 100 50 94 97 75 100 100 100 100 49 5 6 30 67 54 41 86 78 100 96 100 97 98 100 100 100 100 99 100
94 99 86 7 51 5 8 94 92 88 100 84 92 8 42 100 88 100 86 82 10 46 95 100 100 100 100 68 74 77 55 9 5 17 89 88 100 100 100 100 100 100 100 100
100 100 100 100 57 73 5 91 100 100 96 100 80 18 48 69 15 6 8 20 16 56 5 5 5 25 94 100 100 100 94 78 82 88 99 100 100 100 100 100 100 100 100 100
100 100 100 100 100 24 96 90 60 100 6 12 86 33 18 5 4 5 5 5 5 7 85 5 5 5 18 5 10 5 38 50 86 100 100 100 100 100 100 100 100 100 100 100
100 100 100 100 100 51 14 100 95 88 72 80 53 100 100 76 22 4 2 5 5 5 5 6 33 16 5 5 6 59 97 100 69 80 100 100 100 100 100 100 100 100 100 100
100 100 100 100 100 14 5 17 59 100 100 92 98 100 100 33 4 5 49 5 5 5 41 69 100 39 14 59 31 7 57 100 100 18 84 99 100 100 100 100 100 100 100 100
100 100 100 100 97 21 99 42 99 100 100 53 7 2 100 48 5 5 98 27 4 2 5 5 22 74 89 5 8 71 23 40 90 100 36 5 50 100 100 100 100 100 100 100
100 100 100 100 99 23 97 98 100 100 100 92 100 2 100 5 54 9 5 5 5 3 4 5 5 10 8 26 34 6 14 19 51 100 95 89 100 100 100 100 100 100 100 100
100 100 100 100 100 87 64 100 63 95 100 35 35 65 100 84 99 81 27 36 5 3 0 6 14 12 5 5 74 98 100 100 55 100 100 100 100 100 100 100 100 100 100 100
100 100 100 100 100 99 100 100 82 100 97 99 9 100 71 89 87 78 88 38 1 0 2 2 0 0 4 7 98 100 99 86 39 50 85 100 100 87 96 100 100 100 100 100
99 100 100 100 100 83 99 100 95 90 100 66 27 93 97 100 7 5 3 12 5 5 36 13 5 5 4 1 14 61 77 90 88 64 74 67 72 98 94 99 99 71 88 95
80 89 100 100 100 100 59 100 53 49 5 17 29 5 24 53 21 3 2 0 1 2 5 5 5 14 4 4 5 5 5 2 1 1 1 1 1 4 6 9 18 7 65 99
49 92 100 100 100 40 100 100 99 56 5 5 5 5 5 86 34 0 2 5 4 0 1 1 1 0 5 54 90 33 5 5 5 5 5 5 5 5 5 5 5 49 63 74
100 100 100 100 100 100 100 100 100 92 84 5 26 35 46 5 0 0 0 0 0 0 0 0 1 1 5 5 71 55 5 5 5 5 6 25 45 47 49 62 89 91 48 60
100 100 100 100 100 100 100 100 95 60 100 2 58 24 5 5 0 0 0 0 0 0 0 5 6 7 5 5 5 5 5 5 5 9 45 28 17 59 74 95 100 100 100 99
100 100 100 100 99 100 100 100 100 87 94 6 36 11 6 5 4 0 0 0 0 3 5 5 5 22 24 22 6 5 10 5 5 37 23 11 56 92 100 99 99 98 100 99
100 100 100 100 100 100 100 100 100 80 68 5 5 7 99 5 5 0 1 0 0 0 0 0 3 2 5 5 6 31 54 68 50 50 74 98 99 94 99 94 98 93 91 98
100 100 100 100 100 100 100 100 100 32 27 15 5 80 100 5 5 4 5 0 0 0 0 3 5 3 5 5 5 63 88 100 100 99 100 98 89 83 90 95 92 86 78 61
100 100 100 100 100 100 100 100 100 100 100 73 91 100 100 73 12 30 5 5 5 5 0 4 9 16 5 7 21 63 100 90 65 35 62 75 56 68 94 70 72 69 12 5
100 100 100 100 100 100 100 100 100 72 95 67 99 100 96 100 100 95 12 5 5 5 5 5 78 39 58 5 10 73 85 46 68 80 78 59 97 86 61 14 5 5 8 5
100 100 100 100 100 100 100 100 100 100 100 69 6 5 10 96 100 100 100 5 28 21 5 59 100 54 43 5 8 72 46 64 6 9 54 100 70 10 5 5 5 5 5 5

GFSCGP_prec_cloud_042.txt.gz
Cloud_Cover
5 5 5 63 5 5 62 90 69 45 21 19 42 94 97 98 87 66 100 100 100 100 100 100 100 100 100 96 100 100 100 100 100 100 100 100 100 100 100 100 100 100 100 100
6 27 5 5 5 5 8 12 86 94 87 0 1 20 94 33 100 100 100 100 100 100 100 67 100 100 100 100 100 100 100 100 100 100 100 100 100 100 100 100 100 100 100 100
8 78 65 32 16 5 8 5 34 75 100 19 0 2 88 36 28 98 100 100 100 100 100 100 100 100 100 100 100 100 100 100 100 100 100 100 100 100 100 100 100 100 100 100
31 50 76 5 16 5 49 5 84 45 73 8 97 24 10 94 13 88 100 100 74 100 100 97 100 70 100 100 100 98 100 100 100 100 94 99 100 47 100 100 100 100 100 100
100 34 9 34 8 5 16 9 55 4 5 30 93 47 100 6 8 77 85 61 9 67 6 69 61 20 24 94 100 83 100 100 100 100 100 100 100 100 100 100 100 100 100 100
100 98 100 100 95 100 85 9 71 38 0 2 5 76 100 90 92 100 90 60 55 34 8 47 96 75 86 88 56 84 78 94 99 100 100 100 100 96 100 100 100 100 100 100
100 100 100 100 100 100 97 76 18 5 76 24 35 100 95 75 100 100 38 27 36 3 98 97 62 62 13 6 5 43 83 100 92 59 96 79 100 100 100 97 100 100 100 100
100 100 100 100 99 100 100 100 67 10 57 93 100 75 57 4 84 16 5 6 51 49 5 36 27 100 100 100 95 48 5 8 9 95 79 94 100 96 97 72 100 100 100 100
100 100 100 99 100 100 100 100 100 85 98 94 89 74 20 15 1 2 0 3 5 5 26 19 70 13 46 5 84 95 96 76 81 17 82 90 92 97 100 100 100 100 100 100
100 100 100 100 100 100 100 100 100 100 99 83 43 18 75 55 100 42 1 0 1 0 1 7 98 100 71 5 5 5 5 85 23 5 5 5 6 41 100 100 98 100 100 100
100 100 100 100 100 100 100 100 100 100 97 77 4 19 6 100 71 99 5 4 1 0 0 5 5 7 63 60 100 78 26 14 84 72 88 12 8 27 92 76 100 100 100 100
100 100 100 100 100 100 100 100 100 100 38 16 8 19 88 100 91 99 98 0 4 0 0 0 5 5 5 53 27 51 97 41 78 100 46 93 98 28 5 37 99 93 100 100
100 100 100 100 100 100 100 100 100 100 15 25 78 45 32 5 0 0 0 0 0 0 0 0 0 3 5 5 24 5 5 0 90 49 100 100 100 94 64 9 95 100 100 100
100 100 100 96 100 100 94 98 100 100 100 99 29 14 0 56 29 62 100 30 5 4 4 0 0 0 0 0 4 10 4 0 16 90 84 100 100 74 52 100 100 100 100 100
100 100 100 100 100 100 100 100 100 100 100 97 15 27 6 5 23 20 100 100 62 5 5 5 0 2 2 0 0 0 0 18 100 68 94 37 36 75 100 100 100 100 100 100
100 100 100 100 100 100 82 100 100 100 100 100 86 5 59 47 76 68 100 100 77 0 4 5 1 0 5 5 1 5 8 1 0 31 14 44 100 100 100 100 100 100 100 100
100 100 100 100 100 100 66 100 100 100 100 100 100 100 94 5 99 100 100 22 1 0 0 0 0 0 0 5 1 22 39 48 0 4 17 46 26 92 97 94 100 100 100 85
100 100 100 100 100 36 95 94 100 100 100 100 100 7 99 38 3 39 11 40 3 0 0 0 0 0 2 0 5 1 4 5 43 5 47 5 5 5 6 16 18 32 50 51
100 100 100 98 77 97 80 100 100 100 100 100 83 11 100 96 17 6 2 8 0 0 0 0 0 0 0 0 0 0 5 5 9 78 33 5 0 5 5 3 5 5 5 5
100 99 99 100 19 5 61 100 100 100 100 100 100 32 91 83 51 70 5 2 4 0 0 0 0 0 0 0 0 2 5 5 5 0 5 3 5 5 6 51 15 15 79 99
100 100 92 66 100 65 100 100 100 100 100 100 100 90 100 100 90 47 4 5 5 2 5 0 0 0 0 0 0 0 0 0 0 0 1 5 5 27 5 49 100 100 78 67
100 100 100 81 91 46 100 100 100 100 100 100 90 88 100 98 90 100 5 5 5 5 5 0 0 0 0 0 0 0 1 4 0 0 4 8 36 30 83 66 58 77 100 90
100 96 100 100 8 28 100 100 100 100 100 84 85 78 79 100 100 76 5 43 60 71 79 6 0 3 4 0 5 5 5 5 5 5 5 34 26 56 98 100 100 100 100 100
100 100 100 98 19 67 100 100 100 100 100 100 99 100 100 100 100 53 39 100 100 100 100 100 87 5 5 5 5 5 67 73 9 56 65 97 73 79 69 99 98 87 79 60
100 100 100 67 99 100 100 100 100 100 100 100 100 100 100 99 95 5 6 5 18 13 89 100 99 5 5 5 41 5 90 82 95 63 96 92 87 100 99 84 100 87 48 52
100 100 100 100 100 100 100 100 100 100 100 100 100 100 100 100 100 63 5 19 47 8 86 100 100 100 100 100 100 78 100 100 100 100 100 93 100 100 83 39 17 78 97 100

GFSCGP_prec_cloud_048.txt.gz
Cloud_Cover
100 100 100 100 18 5 5 74 45 2 15 63 3 0 0 0 2 45 40 100 100 100 100 97 96 82 42 89 100 100 100 100 100 100 100 100 100 100 100 100 100 100 100 100
100 100 24 16 50 10 5 5 29 30 5 78 74 3 5 0 0 57 36 96 100 96 100 78 99 100 100 100 100 100 100 100 100 100 100 100 100 100 100 100 100 100 100 100
100 93 48 36 5 8 6 50 100 100 22 7 12 4 3 0 0 5 34 95 74 94 77 87 26 100 100 100 100 100 100 100 100 100 100 100 100 100 100 100 100 100 100 100
100 14 98 89 5 5 5 74 100 100 6 15 34 5 3 0 0 0 4 31 94 80 18 74 99 84 100 100 100 100 100 100 100 100 100 100 100 100 100 100 100 100 91 72
93 2 5 17 39 13 58 36 100 100 100 5 24 5 83 2 6 25 38 5 88 99 35 26 45 88 45 100 63 100 100 100 100 100 100 100 100 100 100 97 63 94 100 100
55 5 5 5 3 5 5 20 89 100 100 17 5 7 5 17 0 5 5 9 31 2 97 11 13 33 32 89 100 95 100 100 100 100 86 99 100 100 98 77 100 100 100 100
55 5 5 34 5 5 5 24 8 100 100 46 5 5 5 32 2 0 3 2 99 21 3 4 11 41 82 64 100 99 99 99 100 100 100 96 65 100 100 100 100 100 100 100
6 5 10 98 11 100 54 5 41 100 100 99 5 5 5 2 5 0 1 0 0 0 5 1 3 3 6 38 69 100 100 86 88 100 100 100 100 100 100 98 100 100 70 100
35 44 100 5 86 58 24 5 27 100 100 99 34 6 5 0 3 1 0 0 0 0 8 2 0 0 4 5 5 5 78 95 12 5 22 82 100 100 78 95 94 100 100 72
99 5 99 100 64 5 5 5 8 100 100 100 99 5 5 3 1 0 1 29 3 0 1 0 0 0 0 12 76 92 100 100 99 72 100 100 100 100 100 93 90 100 100 100
94 8 98 54 5 20 89 21 56 100 100 100 98 12 49 49 27 39 68 52 61 5 7 0 0 5 0 93 14 41 100 100 100 100 100 100 80 98 100 100 100 100 100 100
99 98 38 15 94 87 100 100 100 100 100 88 7 100 18 20 5 35 46 5 4 4 5 5 1 0 0 46 95 100 100 100 45 100 89 100 100 73 100 100 100 100 100 100
99 16 39 70 4 6 89 100 100 100 100 98 6 100 2 66 20 26 5 5 33 86 63 0 0 0 0 0 5 74 5 10 72 52 100 100 100 100 100 100 100 100 100 100
100 98 82 91 100 100 100 100 100 100 100 100 6 100 53 33 99 56 49 92 76 24 5 12 100 6 0 0 0 2 2 0 2 100 98 100 100 100 100 100 100 100 100 100
100 100 100 100 100 100 100 100 100 100 100 100 100 90 100 98 36 16 100 100 100 98 8 5 5 0 4 0 0 0 0 2 1 3 73 100 100 100 100 100 100 100 100 100
57 99 100 100 100 100 100 100 100 100 100 100 100 100 100 100 98 39 98 100 100 74 97 12 22 1 70 4 5 0 0 0 0 5 70 87 100 100 100 100 100 100 100 100
99 100 100 93 100 100 100 100 100 100 100 100 100 100 100 100 99 62 34 57 100 100 34 62 45 5 0 5 0 0 4 9 1 22 50 100 100 100 100 94 90 100 100 100
100 99 100 95 100 100 94 100 100 100 100 100 100 100 100 100 100 95 7 20 100 100 100 100 61 5 5 5 0 0 35 77 99 100 100 100 100 100 100 100 100 100 100 100
100 100 100 100 100 77 7 100 100 100 100 100 100 100 100 100 100 100 100 97 100 100 100 98 96 29 90 5 5 4 5 50 100 100 100 100 100 100 100 100 100 100 100 100
100 100 100 100 100 100 98 100 100 100 100 100 100 100 100 97 8 40 27 36 98 100 100 100 100 65 72 100 6 5 5 5 5 34 53 98 100 100 100 94 6 32 96 100
100 100 100 100 100 83 72 100 100 100 100 100 100 83 96 60 7 90 24 84 100 95 73 100 100 100 100 84 2 3 0 3 5 5 5 20 33 5 3 5 5 5 6 1
33 100 98 90 100 100 99 100 100 100 100 100 100 87 8 5 43 51 80 83 99 100 88 100 100 100 100 100 30 26 4 1 0 1 5 2 4 2 0 3 5 0 2 5
7 1 15 98 100 100 100 100 100 93 100 100 100 88 16 17 17 92 100 77 90 100 94 100 100 100 100 77 18 62 7 5 39 94 38 5 5 5 5 5 5 5 9 77
0 57 100 100 100 100 100 100 100 98 100 100 61 100 97 85 81 91 93 84 97 98 100 100 100 100 100 100 100 100 100 100 100 6 5 5 8 5 18 40 49 63 93 60
100 100 84 100 100 100 100 100 100 100 100 100 99 94 100 100 67 48 89 100 100 100 100 100 100 100 100 100 100 100 100 100 97 36 6 5 11 25 9 26 66 90 94 67
99 100 100 100 100 100 100 100 100 100 100 100 100 98 100 100 99 100 100 100 84 100 100 100 100 100 100 100 100 100 100 100 100 57 52 82 97 98 53 84 100 94 100 100

GFSCGP_prec_cloud_051.txt.gz
Cloud_Cover
5 85 100 100 100 99 24 14 5 5 52 42 3 4 0 0 0 0 0 8 58 100 52 78 8 78 100 100 100 100 100 100 100 100 100 100 100 100 100 100 100 100 100 100
99 99 100 100 100 15 5 5 5 7 53 99 6 4 4 0 0 0 0 5 5 5 98 70 76 91 100 100 100 100 100 100 100 100 100 100 100 100 100 100 100 100 100 100
99 17 96 77 66 96 64 7 5 69 98 100 100 5 0 0 0 0 0 0 4 49 68 6 53 99 100 90 55 100 100 100 100 100 100 100 100 100 100 100 100 100 100 100
99 6 66 32 74 20 79 30 13 67 61 100 100 48 5 1 0 0 0 0 0 13 84 22 4 43 61 92 70 35 97 100 100 100 100 100 100 100 100 100 100 100 100 100
100 14 2 15 87 5 82 5 9 10 48 96 100 100 10 5 5 0 0 3 0 0 6 5 5 5 7 7 99 94 100 100 100 100 100 100 100 100 100 100 100 100 100 100
100 100 58 100 28 5 35 6 27 3 58 6 55 100 93 4 5 3 3 2 4 0 0 3 1 4 1 2 9 100 100 100 100 100 100 100 100 100 100 100 100 100 100 100
100 100 80 36 70 60 80 2 5 54 80 5 97 100 33 34 5 5 1 0 0 0 0 0 0 0 0 0 5 26 100 100 100 100 100 100 100 100 100 100 100 99 96 62
100 100 100 100 100 12 4 43 5 5 94 5 95 100 42 82 34 5 4 0 0 0 2 0 0 0 5 1 0 1 5 99 87 98 100 100 100 78 96 94 96 100 100 100
100 100 100 100 58 5 5 5 5 4 62 27 100 100 10 56 83 5 5 2 0 0 0 0 1 2 5 2 13 0 0 9 72 72 70 7 40 65 97 99 100 100 100 100
100 100 100 100 68 5 5 17 5 5 5 20 96 100 100 60 14 34 33 5 5 0 0 0 16 3 0 2 60 26 89 15 25 16 12 57 83 81 92 100 90 97 99 100
100 100 100 91 4 60 84 48 14 5 5 46 93 100 100 90 5 5 12 5 5 35 4 0 3 0 1 0 69 22 37 100 100 97 94 70 21 18 88 72 38 93 80 100
100 100 100 71 100 32 5 36 57 11 17 99 68 100 100 100 40 5 5 5 70 7 80 13 0 3 53 0 0 0 56 84 91 100 100 100 100 85 75 100 100 100 100 100
100 100 100 100 88 26 83 100 92 74 5 99 100 100 100 94 40 7 5 5 5 5 41 14 32 70 0 0 0 0 0 1 21 57 84 100 100 100 100 100 100 100 100 100
100 100 100 100 100 93 76 100 95 46 5 56 100 100 100 100 20 5 5 5 73 95 83 24 50 90 0 0 0 5 0 0 1 0 1 94 100 100 100 98 96 100 100 100
100 100 100 100 100 100 100 100 99 57 36 56 93 100 100 100 32 93 9 94 100 100 100 86 5 32 5 1 2 3 0 0 0 0 0 0 56 68 25 97 98 48 100 100
100 100 100 100 100 100 99 100 100 100 91 45 98 100 100 100 100 100 33 49 100 95 63 100 64 41 94 13 3 23 61 75 7 0 0 0 0 1 46 41 81 100 100 100
14 65 100 100 100 100 100 100 100 100 100 100 76 100 100 100 100 59 74 100 79 97 74 99 100 35 100 90 46 5 5 80 3 1 29 44 62 100 100 100 100 100 100 100
90 99 100 100 100 100 100 100 100 100 100 100 100 100 100 100 100 100 80 100 100 8 5 33 73 40 11 100 100 98 44 5 2 1 10 36 84 99 100 100 100 100 100 100
2 8 89 100 100 16 98 100 100 100 88 97 100 67 99 100 100 100 98 61 22 33 9 42 100 100 100 100 100 100 100 62 29 72 98 100 100 100 100 100 100 100 100 100
11 5 45 92 61 37 85 100 100 100 78 66 100 91 28 100 55 97 100 41 85 100 100 100 66 100 100 100 100 100 100 100 100 100 100 100 100 100 100 100 100 100 100 100
93 96 100 56 32 4 100 100 100 95 20 99 100 100 100 100 100 100 100 100 71 99 100 100 78 82 100 100 100 100 100 100 100 100 100 100 100 100 100 100 100 100 100 100
5 92 86 100 89 65 100 100 97 23 90 45 100 100 100 87 62 100 100 100 100 100 96 98 92 94 98 100 99 100 100 100 100 100 100 100 100 100 100 100 100 100 100 100
4 2 14 7 53 100 100 100 100 100 100 97 90 100 94 100 95 100 100 100 100 100 24 47 93 100 100 100 100 100 100 100 100 100 99 100 100 100 100 67 51 76 88 100
0 3 5 5 5 100 100 100 100 100 100 100 99 87 92 94 100 64 100 100 100 100 99 96 95 100 100 100 100 100 100 100 100 100 100 100 100 100 100 22 13 18 65 99
58 11 4 1 48 100 100 100 100 100 100 100 100 100 100 77 56 99 100 100 95 98 74 75 70 100 100 100 100 100 100 100 100 100 100 100 100 100 100 100 100 100 100 100
30 49 17 7 100 100 100 100 100 100 100 100 100 55 100 100 93 99 100 100 99 100 100 99 90 100 100 100 91 100 100 100 100 100 100 100 100 100 100 100 100 100 100 100

GFSCGP_prec_cloud_054.txt.gz
Cloud_Cover
100 100 100 100 99 54 100 54 79 5 5 5 11 5 5 1 0 3 12 0 0 8 20 77 8 0 33 100 100 100 100 100 100 100 100 100 100 100 100 100 100 100 100 100
100 100 100 100 46 75 96 19 17 11 5 20 8 7 6 5 1 0 0 0 0 1 56 84 90 87 23 75 100 100 100 100 100 100 100 100 100 100 100 100 100 100 100 100
100 100 100 67 87 100 50 5 5 98 7 53 38 6 100 5 7 1 0 0 0 0 16 84 100 100 100 100 96 100 100 100 100 100 100 100 100 100 100 100 100 100 100 100
100 100 100 100 100 68 42 78 39 21 12 5 24 5 68 5 15 14 0 0 0 0 0 4 95 100 100 100 100 100 100 100 100 100 100 100 100 100 100 100 100 100 100 100
97 100 100 99 100 23 43 84 5 26 5 5 17 10 0 5 68 51 6 2 0 0 0 0 11 79 100 81 97 100 100 100 100 100 100 100 100 100 100 100 100 100 100 100
44 100 100 100 100 100 97 23 5 2 4 94 12 95 74 11 28 11 6 9 0 0 0 0 0 4 93 56 59 89 100 100 100 100 100 100 100 100 100 100 100 100 100 100
100 100 100 100 100 100 99 5 5 32 74 20 67 100 100 12 96 10 5 28 12 3 0 0 0 0 49 71 60 56 72 100 100 100 100 100 100 100 100 100 100 100 100 100
100 100 100 100 100 100 100 9 46 100 32 37 94 99 100 36 100 74 5 5 10 5 4 1 0 0 0 2 33 13 33 11 85 100 100 100 100 100 100 100 100 100 100 100
100 100 100 100 100 100 100 59 100 86 100 6 99 86 71 43 100 100 6 5 5 5 5 1 5 0 0 0 0 0 19 0 1 5 7 74 97 100 100 100 97 100 100 100
100 100 100 100 94 65 98 100 100 30 62 17 25 87 81 13 100 100 100 87 5 5 5 5 5 4 0 0 0 2 32 6 3 14 38 24 5 5 4 68 89 74 56 9
99 100 100 100 100 100 100 100 100 100 14 5 92 100 70 7 100 100 100 100 70 5 5 5 5 0 0 0 0 19 100 100 27 92 100 100 98 73 27 43 91 5 5 62
100 39 100 100 100 100 100 100 100 100 66 42 97 99 60 5 11 100 100 100 100 94 5 5 4 4 3 0 0 0 1 80 98 100 90 100 100 90 100 98 100 99 70 49
82 90 100 100 100 100 100 100 100 100 86 6 74 95 100 22 5 55 100 100 100 100 100 24 10 89 8 13 5 0 0 0 2 16 98 100 100 100 100 100 100 79 94 88
100 93 100 100 100 99 100 100 100 98 42 94 100 100 100 100 87 58 79 72 100 100 100 100 100 100 100 34 3 0 0 0 0 0 3 5 5 91 100 100 100 94 97 96
93 100 97 100 100 100 78 100 93 42 82 47 100 87 88 99 56 5 57 40 100 98 100 100 100 43 75 96 92 12 4 0 0 0 0 0 0 1 5 96 100 100 100 100
100 99 100 100 100 100 100 100 5 7 5 74 37 100 100 100 98 76 100 100 100 5 96 100 100 100 91 65 94 80 100 71 6 0 0 0 0 0 0 0 37 100 100 100
100 100 100 100 100 100 100 100 20 58 94 61 5 54 100 90 100 100 100 100 100 7 47 100 100 100 100 100 97 100 100 100 100 63 0 0 0 0 0 0 14 75 100 100
100 100 100 100 100 100 100 100 100 40 90 100 7 8 56 99 68 100 100 100 100 77 17 76 100 100 100 100 100 100 100 100 100 100 98 49 1 0 0 44 93 100 100 100
100 100 100 100 100 100 100 100 100 100 100 100 98 98 100 100 100 100 99 100 93 98 85 68 98 100 100 93 100 100 100 100 100 100 100 100 100 100 95 100 100 100 100 100
74 100 100 100 100 100 100 100 100 100 100 100 100 100 100 100 100 100 100 100 100 100 99 99 100 100 100 70 100 100 86 29 95 100 100 100 100 100 100 100 100 100 100 100
40 61 53 100 100 73 100 100 100 100 74 100 100 100 100 100 100 100 100 100 100 98 100 100 100 100 100 100 100 100 94 100 99 100 100 100 100 100 100 100 100 100 100 100
41 31 88 97 100 31 2 2 15 64 8 20 92 84 100 85 96 100 100 100 100 100 100 100 100 100 100 100 100 100 100 100 100 100 100 100 100 100 100 100 100 100 100 100
4 2 5 2 4 0 0 0 4 27 5 32 3 5 41 100 78 16 68 99 98 100 100 100 100 100 100 100 100 100 100 100 100 100 100 100 100 100 100 100 100 100 100 100
3 4 5 2 0 0 0 0 28 99 99 100 100 98 96 75 88 82 99 91 99 100 100 100 100 100 100 100 100 100 96 100 99 100 100 100 100 100 100 100 100 100 100 100
53 5 2 2 0 0 0 18 0 89 36 100 100 100 100 100 100 97 99 94 87 100 100 97 100 100 100 100 57 86 86 100 100 99 100 100 100 100 100 100 100 100 100 100
76 25 17 1 84 99 70 77 0 44 100 97 100 100 100 100 100 100 100 100 100 83 100 100 100 100 100 100 98 100 100 100 89 91 95 100 100 96 100 100 100 100 100 100

GFSCGP_prec_cloud_060.txt.gz
Cloud_Cover
100 100 100 100 100 36 91 99 100 6 5 100 72 12 5 5 1 3 14 4 0 0 0 0 0 5 26 60 100 100 100 100 100 100 100 100 100 100 100 100 100 100 100 100
81 97 100 100 100 99 96 99 100 22 5 100 56 77 26 50 7 3 61 7 4 0 0 0 0 0 6 52 73 68 100 100 100 100 100 100 100 100 100 100 100 100 100 100
97 100 100 100 100 93 92 100 93 100 14 100 100 91 52 66 95 0 2 5 5 0 0 0 0 0 0 28 100 95 100 100 100 99 100 100 100 100 100 100 100 100 100 100
85 100 100 87 99 100 100 100 100 72 47 100 100 100 5 23 12 5 0 0 0 5 0 0 0 0 0 0 55 95 99 99 100 100 100 100 100 100 100 100 100 100 100 100
100 100 100 100 100 92 100 97 100 100 19 100 100 99 99 12 6 5 0 0 1 5 0 0 0 0 0 0 13 34 92 100 100 100 100 100 100 100 100 100 100 100 100 100
100 100 100 100 100 100 100 98 98 22 75 100 92 52 26 14 94 5 0 0 0 5 5 1 0 0 0 0 0 68 99 98 100 100 100 100 100 100 100 100 100 100 100 100
100 100 100 100 91 68 99 100 89 97 54 100 18 28 100 30 9 5 3 0 0 5 0 5 5 4 1 1 0 0 100 100 100 100 100 100 100 100 100 100 100 100 100 100
100 100 100 100 100 100 100 100 98 92 99 77 70 100 100 47 5 84 5 0 0 0 5 1 5 5 4 4 3 0 1 99 87 100 100 100 100 100 100 100 100 100 100 100
100 100 100 100 100 100 100 100 99 96 99 82 87 100 100 100 100 100 5 0 1 0 0 5 0 4 16 4 5 3 0 0 55 100 100 100 100 100 98 100 100 100 100 100
100 100 100 100 100 99 97 78 100 93 60 100 100 100 100 100 100 100 72 5 0 0 0 7 8 2 5 4 4 5 1 0 0 25 65 97 100 99 98 64 100 100 100 100
100 100 100 100 100 100 100 84 80 89 92 100 100 100 100 100 22 98 96 5 0 0 0 0 5 2 63 5 1 12 5 5 0 0 4 13 20 31 82 69 29 13 39 83
100 100 100 100 100 100 100 100 100 100 100 100 95 100 100 100 100 100 100 100 4 0 0 0 5 47 5 70 4 1 6 5 0 0 0 0 10 22 20 4 16 19 37 87
100 100 100 100 87 100 100 100 100 100 99 95 89 100 100 100 100 100 100 92 98 97 73 91 83 31 5 5 35 3 76 17 2 1 40 0 0 4 3 3 3 18 29 13
100 100 100 100 100 100 100 100 100 100 67 87 52 96 99 100 100 100 100 100 100 90 34 90 100 64 91 63 100 25 26 46 7 1 5 2 0 1 0 1 3 5 4 39
100 100 100 100 100 100 100 100 100 100 100 93 100 98 100 100 100 100 100 100 100 100 82 26 65 97 100 100 96 100 5 84 69 5 4 1 4 16 3 0 0 2 0 15
100 100 100 100 100 100 100 100 100 100 100 100 100 88 69 98 100 100 100 100 100 100 97 61 93 98 99 80 66 5 13 15 100 100 36 1 0 5 5 4 10 43 5 5
100 100 100 100 100 100 100 100 100 100 100 97 95 91 96 56 100 100 100 100 100 100 100 100 100 100 100 83 42 100 29 32 31 90 100 98 32 5 5 5 9 39 28 42
100 100 100 100 100 100 100 100 100 100 78 70 89 48 37 51 100 100 100 100 100 94 12 100 100 100 100 100 100 100 100 100 100 9 21 100 100 78 57 91 100 79 41 21
100 100 100 100 100 100 100 100 100 100 98 91 10 5 5 5 26 62 74 100 100 100 30 92 100 100 100 100 100 100 100 100 74 25 27 80 67 100 100 98 100 100 99 56
78 53 100 100 91 100 100 100 100 100 100 5 6 5 5 6 57 5 30 99 100 100 100 100 99 100 23 93 100 100 100 100 100 100 100 100 86 60 98 100 100 100 100 100
100 100 100 100 100 100 100 100 100 100 100 97 78 37 12 5 15 37 40 7 31 96 100 100 100 96 99 100 100 100 100 100 100 100 100 100 100 100 100 87 99 100 100 100
100 100 97 99 100 100 100 100 100 100 100 100 100 100 100 86 40 5 5 5 5 14 49 84 96 100 100 100 100 100 100 100 100 100 100 100 100 100 100 100 100 100 100 100
89 100 100 93 96 77 100 100 100 100 100 100 100 100 100 100 94 48 13 8 43 38 54 23 51 96 100 100 100 100 100 100 100 100 100 100 100 100 100 100 100 100 100 100
7 85 100 100 100 100 100 100 100 100 100 100 100 100 100 100 73 63 90 100 76 35 100 100 100 100 100 100 100 100 100 100 100 100 100 100 100 100 100 100 100 100 100 100
100 50 99 100 97 83 100 100 99 100 100 100 100 100 100 100 100 100 100 100 100 100 92 100 100 100 100 100 100 100 100 100 100 100 100 100 100 100 100 100 100 100 100 100
12 78 12 83 18 5 68 100 5 1 3 1 1 2 1 4 48 70 86 100 66 84 84 100 100 100 100 100 100 100 100 100 100 100 100 100 100 100 100 100 100 100 100 100

GFSCGP_prec_cloud_063.txt.gz
Cloud_Cover
100 100 97 100 100 100 100 100 100 69 100 45 5 5 34 9 5 3 34 6 0 0 0 0 0 0 0 24 100 100 100 100 100 100 100 100 100 100 100 100 100 100 100 100
100 100 100 100 100 100 76 76 81 94 100 10 8 5 44 24 3 5 89 83 0 0 0 0 0 0 0 1 100 85 100 100 100 95 100 100 100 100 100 100 100 100 100 100
100 100 100 100 100 100 99 97 100 100 100 82 27 5 5 28 1 5 38 48 16 0 0 0 0 0 0 0 67 100 100 100 100 100 96 100 100 100 100 100 100 100 100 100
100 100 100 100 100 100 100 100 100 100 100 98 93 92 5 6 11 5 4 16 8 0 0 0 0 0 0 0 11 82 76 100 86 100 67 100 100 96 99 100 100 100 100 100
100 100 100 100 100 100 100 100 100 100 100 40 100 100 17 5 7 5 14 5 4 0 0 3 0 0 0 0 7 12 100 74 99 100 100 93 100 100 100 100 100 100 100 100
100 100 100 100 100 100 100 99 100 100 100 77 100 100 93 87 15 39 5 1 0 0 0 0 0 1 0 0 0 6 88 99 88 100 100 100 100 100 100 100 100 100 100 100
100 100 100 100 100 100 100 100 100 100 100 100 100 100 100 100 36 5 5 0 1 0 0 0 0 1 0 1 0 0 16 100 74 100 100 100 100 100 100 100 100 100 100 100
100 100 100 100 100 100 100 100 100 100 100 100 100 100 100 93 78 6 30 4 5 6 0 0 0 0 1 4 1 0 0 9 100 100 100 100 100 100 100 100 100 100 100 100
100 100 100 100 100 100 100 99 100 100 100 100 100 100 100 84 80 95 25 5 31 100 5 0 0 0 4 1 3 3 5 0 13 100 100 100 100 100 100 100 100 100 100 100
100 100 100 100 100 100 100 100 100 100 100 100 100 100 100 100 98 92 94 5 17 100 83 0 0 0 1 5 2 5 5 5 0 18 100 99 98 100 100 100 94 100 100 100
100 100 100 100 100 100 100 100 100 100 100 100 100 100 100 100 100 100 100 84 2 74 72 4 0 0 0 0 0 5 4 23 5 0 16 95 100 100 91 100 95 18 36 54
100 100 100 100 100 100 100 100 100 100 100 100 100 100 100 100 100 100 97 86 71 94 100 98 25 0 0 0 0 0 9 5 99 5 2 6 23 37 6 95 61 22 5 9
100 100 100 100 100 100 100 100 100 100 100 100 100 100 100 100 100 100 100 98 100 97 100 96 60 3 0 0 0 0 2 0 38 100 81 7 0 1 0 0 0 1 16 2
100 100 100 100 100 100 100 100 100 100 100 100 100 100 100 100 100 100 100 100 79 95 79 59 89 100 5 9 5 33 5 5 27 60 100 78 5 1 0 0 0 0 0 1
100 100 100 100 100 100 100 100 100 100 100 100 100 100 100 100 100 100 100 100 76 100 98 88 80 100 100 89 70 64 21 5 4 75 90 100 10 5 1 3 5 2 0 5
100 100 100 100 100 100 100 100 100 100 100 100 100 100 100 100 100 100 100 100 100 99 100 99 100 100 100 100 58 64 100 62 5 5 4 11 100 46 4 0 5 5 5 4
100 100 100 100 100 100 100 100 100 100 100 100 100 100 84 79 100 100 100 100 100 100 100 100 100 100 100 100 92 72 65 26 26 43 18 5 5 65 97 100 94 100 23 5
100 100 100 100 100 100 100 100 100 100 100 100 100 97 90 52 78 100 93 100 100 100 100 100 100 100 100 100 74 76 89 83 40 68 96 93 76 89 100 100 100 100 100 100
100 100 100 100 100 100 100 100 100 100 100 100 100 90 6 72 100 100 27 100 100 100 100 100 100 100 100 98 73 63 98 100 100 19 90 97 100 80 62 77 99 94 100 100
100 100 100 100 100 100 100 100 100 100 100 100 100 100 100 100 100 100 100 100 100 100 100 100 100 100 100 100 100 95 100 100 97 78 99 95 96 83 79 5 5 75 100 100
94 100 100 100 100 100 100 82 100 100 100 100 100 100 100 100 92 98 5 5 60 92 98 100 100 100 57 100 100 100 50 92 100 100 100 100 100 79 99 82 90 94 100 100
73 100 100 100 100 100 100 100 100 100 100 100 100 94 94 16 32 28 5 5 5 5 42 81 98 100 94 100 100 100 100 100 100 100 100 99 100 100 100 100 100 100 100 100
100 100 100 100 100 100 100 100 94 100 100 100 100 99 83 49 59 59 28 6 5 5 5 17 16 60 100 100 100 100 100 100 100 100 100 100 100 100 100 100 100 100 100 100
100 100 100 100 100 100 100 100 100 100 100 100 100 90 100 100 100 83 68 53 56 82 86 93 20 42 93 100 100 100 100 100 100 100 100 100 100 100 100 100 100 100 100 100
100 100 98 100 100 100 100 100 100 100 100 98 67 40 78 100 100 100 100 100 100 90 78 88 98 98 89 92 100 100 100 100 100 100 100 100 100 100 100 100 100 100 100 100
100 100 73 94 100 100 100 100 100 100 100 100 88 38 9 5 32 57 99 100 100 100 100 100 100 100 97 92 100 100 100 100 100 100 100 100 100 100 100 100 100 100 100 100

GFSCGP_prec_cloud_066.txt.gz
Cloud_Cover
99 60 84 96 100 100 100 100 100 62 100 100 100 60 21 7 39 80 36 5 6 100 2 0 0 0 0 0 82 100 100 100 100 99 100 100 100 100 100 100 100 100 100 100
77 96 100 100 100 100 100 100 100 100 100 100 100 96 95 7 81 74 80 7 22 100 2 0 0 0 0 0 46 100 100 72 98 76 98 100 100 100 100 100 100 100 100 100
93 100 100 100 100 100 100 100 100 100 100 100 100 100 100 44 5 20 6 5 19 97 5 0 0 0 0 0 1 100 100 100 84 100 97 98 100 100 100 100 100 100 100 100
89 100 100 100 100 100 100 100 100 100 100 86 100 55 100 58 77 68 29 6 5 14 5 0 0 0 0 0 0 0 86 100 98 100 99 100 100 100 97 100 100 100 100 100
100 100 100 100 100 100 100 100 100 100 100 100 100 100 99 12 92 37 45 5 5 5 0 0 0 0 0 0 0 0 76 99 100 100 98 100 96 99 98 100 100 100 100 100
100 100 100 100 100 100 100 100 100 100 100 70 100 100 100 94 83 99 94 98 5 5 1 0 0 0 0 0 0 0 34 47 100 100 100 100 100 100 100 100 100 100 100 100
100 100 100 100 100 100 100 100 100 100 100 94 100 100 100 100 98 94 98 76 45 5 5 0 0 0 0 0 0 0 0 34 37 100 83 100 94 100 100 100 100 100 100 100
100 100 100 100 100 100 100 100 100 100 100 100 100 100 100 100 100 100 75 55 5 5 5 5 74 5 0 0 0 0 0 6 67 80 100 80 82 86 100 100 100 100 100 100
100 100 100 100 100 100 100 100 100 100 100 100 100 100 100 100 100 100 65 58 17 5 5 8 100 11 5 0 0 0 0 0 16 100 100 100 22 100 100 100 100 100 100 100
100 100 100 100 100 100 100 100 100 100 97 100 100 100 100 100 100 99 72 50 89 18 50 92 98 100 6 0 0 0 1 0 0 92 100 100 100 100 99 98 100 100 100 100
94 100 100 100 100 100 100 100 100 100 100 100 100 100 100 100 100 100 97 80 98 95 41 82 27 100 93 5 0 0 0 0 0 0 82 100 100 100 100 100 100 100 91 100
100 100 100 100 100 100 100 100 100 100 100 100 100 100 100 100 100 100 97 100 98 98 100 100 20 28 100 98 42 0 2 0 0 5 3 50 100 100 100 100 100 100 67 3
100 100 100 100 100 100 100 100 100 100 100 100 100 100 100 100 100 100 99 81 89 98 94 12 6 46 80 74 11 0 10 4 0 4 4 4 8 97 100 34 48 60 33 18
100 100 100 100 100 100 100 100 100 100 100 100 98 100 100 100 100 100 100 100 98 80 6 38 75 76 98 14 88 100 46 3 5 5 5 2 3 4 1 9 55 15 16 39
100 100 100 100 100 100 99 100 100 100 100 100 100 100 100 100 100 100 100 100 100 52 90 92 32 5 18 66 62 52 100 98 19 5 5 5 5 3 87 5 4 5 5 5
100 100 100 100 100 100 100 100 100 100 100 100 100 100 100 100 100 100 100 100 100 100 100 100 100 100 74 87 49 54 100 98 7 98 26 25 5 5 2 7 8 31 31 13
100 100 100 100 100 100 100 100 100 100 100 100 100 100 100 100 100 97 100 100 100 100 100 100 100 91 99 82 100 100 100 100 100 94 83 78 5 17 81 26 5 25 95 69
100 100 100 100 100 100 100 100 100 100 100 100 100 100 100 100 100 100 94 100 100 100 100 100 100 100 80 66 48 87 100 100 100 100 84 86 78 5 13 20 11 70 82 98
100 100 100 100 100 100 100 100 100 100 100 100 100 100 63 99 100 96 66 100 100 100 100 100 100 100 100 90 80 54 49 100 44 92 96 95 80 58 5 5 64 94 85 64
44 100 100 100 100 100 100 100 100 100 100 100 100 29 99 100 95 19 28 100 100 100 100 67 84 100 100 100 100 100 100 100 38 97 100 94 33 96 83 92 60 45 15 97
87 97 100 100 100 100 100 100 100 100 86 77 100 100 100 100 100 83 77 84 97 100 100 100 100 90 100 100 100 100 100 100 100 100 100 95 82 84 60 33 80 90 93 100
22 94 100 100 100 100 100 100 100 98 97 100 100 100 100 100 100 100 100 100 100 100 100 100 100 100 100 100 100 100 100 100 86 100 100 100 100 100 100 94 98 100 100 100
100 17 89 100 100 100 100 100 100 100 100 100 100 100 100 100 100 100 100 100 100 100 100 100 100 100 100 100 100 100 100 100 100 100 100 100 100 100 100 100 100 100 100 100
99 91 67 100 100 100 100 100 100 100 100 100 100 100 100 100 100 100 100 100 100 100 100 78 100 100 99 100 100 100 100 100 100 100 100 100 100 100 100 100 100 100 100 100
100 90 13 80 100 100 100 100 100 100 100 100 100 100 100 100 100 99 98 100 89 95 100 100 100 100 100 100 100 100 100 100 100 100 100 100 100 100 100 100 100 100 100 100
100 100 100 100 100 100 100 100 100 100 100 100 100 100 100 100 100 100 100 100 100 100 100 100 100 100 100 100 100 100 100 100 100 100 99 100 100 100 100 100 100 100 100 100

GFSCGP_prec_cloud_069.txt.gz
Cloud_Cover
0 5 5 100 100 100 100 59 74 100 100 100 98 100 90 98 100 6 5 5 88 38 5 6 0 0 0 0 0 11 100 100 100 100 100 100 100 100 100 100 100 100 100 100
3 5 5 60 97 49 97 86 82 100 100 86 84 100 100 95 100 46 11 12 68 38 28 92 0 0 0 1 22 42 100 100 100 87 93 96 100 100 100 100 100 100 100 100
82 9 48 71 72 94 99 100 100 100 100 40 58 100 100 100 100 100 5 11 10 22 5 5 0 0 0 0 58 30 100 100 100 100 100 100 100 100 100 100 100 100 100 100
5 57 93 62 63 100 100 100 100 100 100 80 98 95 100 82 100 100 10 5 24 46 5 5 0 0 0 0 2 41 48 100 100 100 86 100 100 100 100 100 100 100 100 100
0 94 67 74 100 100 100 100 100 99 21 99 100 100 100 100 100 100 65 6 5 37 81 6 0 0 0 0 0 48 21 60 100 100 100 88 100 100 100 100 100 100 100 100
5 88 98 100 100 100 100 73 100 98 100 64 100 100 100 100 100 100 84 95 64 6 72 78 3 0 0 0 1 60 98 68 75 99 100 98 99 94 79 70 100 100 100 100
13 100 100 100 100 100 100 90 100 100 100 100 100 88 100 100 100 100 100 95 100 30 6 87 20 0 0 0 8 58 98 100 48 100 100 100 41 69 98 33 100 100 100 100
100 100 96 100 100 100 100 100 100 100 100 100 100 42 100 99 100 100 100 100 77 71 9 82 52 5 1 32 5 5 45 97 83 73 100 100 52 34 7 100 96 100 100 100
100 100 98 94 100 100 100 100 100 100 100 100 100 100 100 100 100 100 100 100 93 21 8 77 70 5 5 100 12 1 24 29 64 98 100 100 100 100 18 15 50 99 100 100
100 100 100 92 100 100 100 100 100 100 100 100 100 100 100 100 100 100 100 100 100 70 5 5 40 5 5 43 91 5 1 0 38 83 100 100 100 100 64 20 52 56 93 100
100 100 100 100 100 100 100 100 100 100 100 100 100 100 100 100 100 100 100 100 100 99 26 14 83 61 5 5 24 8 5 14 4 32 60 100 100 99 100 100 100 98 70 48
100 100 100 100 100 100 100 100 100 100 100 100 100 100 100 100 100 100 100 100 100 100 99 36 98 5 8 86 99 71 100 97 5 2 0 68 100 100 100 100 100 100 97 86
100 100 100 100 100 100 100 100 100 100 100 100 100 100 100 100 100 100 100 89 100 100 100 100 100 100 12 94 64 84 26 11 27 100 18 0 5 94 100 100 100 100 100 100
100 100 100 100 100 100 100 100 100 100 100 100 100 100 100 100 100 100 90 87 100 100 100 100 100 100 78 90 99 63 34 33 93 100 62 26 4 0 14 89 100 100 100 100
100 100 100 100 100 100 100 100 100 100 100 100 100 100 100 100 100 100 100 94 95 100 100 100 100 97 36 63 100 100 100 97 12 16 100 100 36 2 0 0 30 100 100 100
100 100 100 100 100 100 100 100 100 100 100 100 100 100 100 100 100 100 100 100 99 100 100 100 100 38 53 97 100 98 100 100 98 57 70 82 100 96 5 5 5 4 31 52
100 100 100 100 100 100 100 100 100 100 100 100 100 100 100 100 100 100 100 100 100 100 100 100 100 73 55 100 100 76 56 49 8 92 98 100 98 100 100 99 14 6 5 55
96 100 100 100 100 100 100 100 100 100 100 100 100 100 100 100 100 94 100 93 99 100 100 100 100 100 100 99 100 100 79 24 9 46 58 93 100 100 79 52 51 96 88 94
2 100 100 100 100 100 100 100 100 100 100 100 100 100 100 100 100 75 80 100 100 100 100 100 100 100 100 100 100 98 100 93 80 92 96 90 93 100 100 97 77 99 19 30
0 49 100 100 100 100 100 100 100 100 100 100 100 100 100 100 100 98 100 100 100 72 40 88 100 100 100 100 100 94 96 95 81 95 100 100 100 100 100 100 100 86 100 100
69 5 91 100 100 100 100 100 100 100 100 100 100 100 100 100 100 60 82 100 100 100 100 98 94 98 100 100 100 100 100 95 97 86 58 100 100 100 100 100 100 100 100 100
99 89 89 100 95 100 100 100 100 100 100 100 100 100 100 100 100 100 100 100 100 100 100 100 100 99 100 100 100 100 100 100 100 100 100 100 100 100 100 100 100 100 100 100
100 90 82 7 61 100 100 100 100 100 100 100 100 100 100 100 100 100 100 100 100 100 100 100 100 100 100 100 100 100 100 100 100 100 100 100 100 100 100 100 100 100 100 100
51 97 98 100 9 84 100 100 100 100 100 100 100 100 100 100 100 100 100 100 99 100 100 100 100 100 100 100 100 100 100 100 100 100 100 100 100 100 97 100 100 100 100 100
100 100 100 91 96 74 100 100 100 100 100 100 100 100 100 100 100 100 100 100 100 100 100 100 100 100 100 100 100 100 100 100 100 100 100 100 97 100 100 100 100 100 100 100
100 100 87 100 100 100 100 97 100 100 100 100 100 100 100 100 100 100 100 100 100 100 100 100 100 100 100 100 97 100 100 100 97 100 100 100 94 100 100 100 100 100 100 100

GFSCGP_prec_cloud_072.txt.gz
Cloud_Cover
0 0 5 0 2 5 5 5 5 5 98 2 0 40 100 47 3 98 5 62 100 7 23 5 37 5 2 0 0 53 100 79 81 80 91 100 100 100 100 100 100 100 100 100
5 5 4 0 5 5 24 14 38 6 100 4 0 7 24 96 62 100 34 82 100 8 13 33 6 18 3 26 3 11 53 99 72 100 91 100 100 100 100 100 100 100 100 100
10 3 4 0 9 97 65 61 59 98 100 0 3 40 6 61 100 100 47 90 91 53 5 5 5 4 28 47 60 94 100 94 95 100 91 97 100 100 100 100 100 100 100 100
23 4 5 5 5 45 5 86 85 100 90 1 29 29 5 88 100 100 100 99 70 79 2 10 5 4 54 80 65 65 64 74 89 100 100 88 100 93 96 100 100 100 100 100
4 2 0 5 5 92 40 100 100 100 50 4 97 96 100 100 100 100 100 100 85 99 85 32 5 5 4 87 97 53 43 41 26 96 78 96 100 95 100 100 100 100 100 100
0 0 2 1 20 100 100 100 100 100 98 39 69 100 100 100 100 100 100 100 35 90 96 5 49 4 3 92 100 77 46 39 30 54 97 67 85 97 100 100 100 100 100 100
5 0 0 1 88 100 100 100 100 100 97 52 100 100 100 100 100 100 100 100 100 97 100 29 5 5 39 95 100 100 46 84 62 51 74 63 64 96 42 100 100 100 100 100
83 0 0 5 100 100 100 100 100 99 43 100 100 100 100 100 92 100 100 100 100 100 18 5 5 34 42 56 100 100 96 84 100 96 67 96 100 95 100 37 96 97 50 95
6 3 10 23 100 100 100 100 100 98 58 100 100 100 100 100 99 99 100 100 100 11 92 19 46 58 22 37 95 98 100 71 100 99 85 100 100 94 38 1 4 4 73 86
5 56 4 23 100 100 100 100 100 100 100 100 100 100 100 98 87 100 34 100 100 100 82 96 94 100 86 5 30 66 78 55 96 26 91 74 100 100 67 0 0 0 18 46
7 48 15 100 100 100 100 100 100 100 100 100 100 100 100 100 100 100 84 100 100 100 100 100 100 100 23 7 17 31 47 64 80 95 100 38 100 100 100 94 2 0 0 2
51 88 5 100 100 100 100 100 100 100 98 100 100 100 100 100 52 50 99 99 100 100 100 100 100 100 100 55 5 5 39 67 81 73 100 11 55 100 100 100 87 13 24 12
5 5 55 23 100 100 100 100 100 100 100 100 100 100 100 100 100 79 100 100 100 100 100 100 100 100 100 96 35 14 86 41 24 38 45 7 4 2 76 100 100 100 100 100
3 5 5 19 100 100 100 100 100 100 100 100 100 100 100 100 100 84 96 100 99 100 100 100 100 100 100 96 100 100 100 100 96 17 49 25 58 13 47 28 24 99 100 100
5 3 4 5 100 100 100 100 100 100 100 100 100 100 100 100 100 100 95 88 100 100 100 100 100 100 100 100 100 100 100 100 100 100 61 78 42 5 24 31 9 2 6 68
22 5 5 5 100 100 100 100 100 100 100 100 100 100 100 100 100 100 100 100 100 98 98 100 100 100 100 100 100 100 100 100 100 100 100 100 90 44 5 52 100 99 73 38
7 51 14 87 100 100 100 100 100 100 100 100 100 100 100 100 100 100 100 100 100 100 98 100 100 100 100 100 100 100 100 100 86 97 99 100 100 100 100 99 100 100 98 100
5 20 9 87 100 100 100 100 100 86 100 100 100 100 100 100 100 100 100 100 100 100 100 100 100 100 100 100 100 92 77 78 65 100 94 93 97 81 96 100 100 100 100 85
5 5 31 23 100 100 100 100 100 100 100 100 100 100 100 100 100 100 100 100 100 100 100 100 100 94 81 92 100 100 100 100 93 69 88 100 100 100 100 100 100 100 100 100
47 5 5 86 100 100 100 100 100 100 100 100 100 100 100 100 100 100 100 100 100 100 100 100 100 81 100 99 89 36 96 99 94 100 89 100 100 100 100 100 100 100 100 100
12 100 5 14 100 100 100 100 100 100 100 100 100 100 100 100 100 100 100 100 100 100 100 100 100 99 100 100 100 100 66 98 100 100 100 99 100 100 100 100 100 100 100 100
52 31 23 24 100 100 100 100 100 100 100 100 100 100 100 100 100 100 100 100 100 100 100 100 100 100 100 99 91 98 84 76 64 91 100 100 86 100 100 100 100 100 100 100
98 100 100 21 51 100 100 100 100 100 100 100 100 100 100 100 100 100 100 100 100 100 100 100 100 99 100 100 100 100 83 95 80 92 100 92 100 100 98 93 100 100 100 100
99 100 100 100 50 93 100 100 100 100 100 100 100 100 100 100 100 75 100 100 100 100 100 100 100 98 100 100 100 100 100 98 98 100 100 100 100 99 98 98 100 100 100 100
100 96 97 100 98 53 100 100 100 100 100 100 100 93 100 100 100 100 100 100 100 100 100 100 100 100 100 100 100 100 100 100 100 100 100 98 100 100 100 100 100 100 100 100
100 100 100 100 100 100 100 100 100 100 100 100 100 100 100 100 100 100 100 100 100 100 100 100 100 100 100 100 100 100 100 100 100 100 100 100 100 100 100 100 100 100 100 100

GFSCGP_prec_cloud_075.txt.gz
Cloud_Cover
100 100 100 77 5 1 5 5 0 0 0 5 5 0 0 21 0 4 21 100 80 100 65 36 61 28 38 71 57 40 55 74 80 100 100 100 100 100 100 100 100 100 100 100
100 85 6 3 2 2 5 1 1 0 2 8 5 0 0 6 0 42 100 100 100 99 100 100 14 82 62 97 67 51 48 100 89 57 85 91 100 100 100 100 100 100 100 100
100 98 5 5 0 0 0 5 5 3 5 83 12 0 5 2 0 67 100 93 100 100 100 100 29 56 95 91 59 24 27 99 100 100 93 100 88 100 100 100 100 100 100 100
100 91 92 5 5 2 5 5 5 5 19 5 62 4 96 4 7 82 100 89 99 100 86 39 5 61 99 82 28 0 7 58 99 100 96 100 59 95 100 100 100 100 100 100
100 100 100 5 4 4 41 5 81 79 25 85 8 56 66 2 100 100 100 100 100 100 48 100 85 69 100 94 100 91 100 98 100 89 100 79 100 100 75 100 100 100 100 100
100 100 68 69 11 5 44 43 11 48 98 97 100 17 9 59 100 100 100 100 100 100 91 96 70 88 100 99 100 100 100 100 100 55 61 50 99 73 96 100 100 100 100 100
100 100 56 5 5 5 27 96 98 100 100 60 100 52 93 100 100 100 100 100 100 100 99 8 100 62 100 100 100 100 100 100 100 80 46 26 0 56 95 94 100 100 100 100
100 60 52 5 5 8 11 60 100 100 86 100 100 96 100 100 100 100 98 100 100 100 100 31 6 84 100 100 100 100 100 100 100 100 94 32 0 65 93 100 100 96 82 100
100 99 68 18 1 30 99 100 100 100 100 57 92 100 100 99 100 100 100 100 100 100 100 99 13 91 71 83 100 100 99 78 97 100 100 93 42 28 71 92 100 100 100 75
100 88 82 5 5 20 90 89 100 100 100 88 88 100 100 100 24 6 85 100 100 100 100 83 71 100 100 54 96 100 100 44 99 100 100 100 49 13 4 0 16 88 100 100
99 76 8 10 5 30 88 100 100 100 100 93 100 100 100 96 37 28 80 100 100 100 100 100 99 98 100 100 100 100 100 94 100 100 100 100 59 14 9 10 0 2 41 48
100 96 8 8 5 12 92 100 100 100 100 94 100 100 100 46 9 35 100 100 100 100 100 100 100 95 100 96 100 100 100 100 100 100 100 100 100 32 100 100 69 0 0 0
100 100 78 85 7 28 94 100 100 100 100 100 100 100 100 100 88 100 100 100 100 100 100 100 100 100 100 38 94 100 60 90 100 100 99 100 100 46 17 84 99 100 97 24
98 100 23 71 88 100 100 100 100 100 100 100 100 100 100 100 100 100 100 100 100 100 100 100 100 100 100 100 100 100 100 100 97 87 100 100 100 28 17 5 5 2 19 91
26 87 97 5 9 7 7 94 100 100 100 100 100 100 100 100 100 100 100 100 100 100 100 100 100 100 100 100 100 100 100 100 84 80 90 100 94 53 68 78 67 92 76 50
65 97 69 5 4 10 11 12 100 100 100 100 100 100 100 100 100 100 100 100 100 100 100 100 100 100 100 100 100 100 100 100 100 100 100 100 100 100 100 100 100 97 93 100
100 100 100 60 4 4 4 5 92 100 100 100 100 100 100 100 100 100 100 100 100 100 100 100 100 100 100 100 100 100 100 100 100 100 100 100 100 100 100 100 100 100 100 100
100 100 75 38 7 8 5 100 96 100 100 100 100 100 100 100 100 100 100 100 100 100 100 100 100 100 100 100 100 100 100 100 100 100 100 100 100 100 100 100 100 100 100 100
100 59 68 11 6 4 8 98 100 100 100 100 100 100 100 100 100 100 100 100 100 100 100 100 100 100 100 100 100 100 100 100 100 100 100 100 100 100 100 100 100 100 100 100
100 100 86 88 5 5 10 100 100 100 100 100 100 100 100 100 100 100 100 100 100 100 100 100 100 100 100 100 100 100 100 100 100 100 100 100 100 100 100 100 100 100 100 100
48 99 100 100 28 5 53 100 100 100 100 100 100 100 100 100 100 100 100 100 100 100 100 100 100 100 100 100 100 100 100 99 100 100 100 100 100 100 100 100 100 100 100 100
73 100 71 100 96 55 16 100 100 100 100 100 100 100 100 100 100 100 100 100 100 100 100 100 100 100 100 100 100 100 100 99 100 100 100 100 95 100 100 100 100 100 100 100
86 93 100 100 77 65 69 100 100 100 100 100 100 100 100 100 100 100 100 100 100 100 100 100 99 100 100 100 100 100 96 35 64 82 100 100 100 100 99 100 90 64 84 90
53 65 100 96 88 58 32 73 100 100 100 100 100 100 100 100 100 100 100 100 100 100 100 99 100 100 100 100 100 100 99 36 28 82 92 100 100 100 100 100 100 100 100 100
98 68 69 91 100 100 100 100 100 100 100 100 100 100 100 100 100 100 100 100 100 100 100 100 100 100 100 100 100 100 100 100 100 100 100 100 100 99 100 100 100 100 100 100
100 100 95 91 100 100 100 100 100 100 100 100 100 100 100 100 100 100 100 100 100 100 100 100 100 100 100 100 99 100 100 90 100 100 100 98 100 100 99 98 100 100 100 100

GFSCGP_prec_cloud_078.txt.gz
Cloud_Cover
100 100 100 100 100 100 100 100 100 68 4 1 0 0 0 0 0 0 0 0 19 75 100 83 100 86 48 87 88 100 100 100 100 100 100 100 100 100 100 100 100 100 100 100
100 100 100 100 98 100 100 100 100 44 2 0 0 0 0 0 0 0 0 0 84 100 100 100 100 86 100 93 100 100 100 100 100 54 100 82 100 100 100 100 100 100 100 100
100 100 100 100 100 100 100 93 8 0 0 0 0 1 0 0 0 0 0 16 100 100 100 100 97 96 73 57 100 100 100 100 99 98 100 80 98 100 100 100 100 100 100 100
94 100 100 100 100 100 100 16 5 5 24 5 2 17 0 0 0 0 2 100 100 100 100 100 100 82 28 78 100 100 100 100 100 40 100 82 100 100 100 100 100 100 100 100
100 100 100 100 100 100 100 100 12 5 6 23 5 5 5 3 0 0 100 100 100 100 98 100 100 100 9 100 100 93 88 100 100 100 100 6 55 98 100 100 100 100 100 100
100 100 100 100 100 100 98 99 22 22 63 98 4 5 96 94 83 63 100 100 100 100 93 93 91 100 72 100 75 50 35 65 99 100 100 3 52 100 79 99 100 100 100 100
100 99 100 100 100 100 100 82 50 98 100 83 44 37 100 100 90 100 100 100 100 100 98 66 95 96 82 100 55 65 100 100 100 100 100 84 12 100 83 84 99 100 100 100
100 100 100 100 100 100 100 90 61 70 97 41 69 96 100 100 100 100 100 100 100 100 85 91 100 100 31 97 92 100 100 100 100 100 100 94 0 8 18 38 72 100 100 100
100 100 100 100 100 100 100 100 84 99 100 94 78 100 100 100 99 100 100 94 100 100 100 100 100 69 21 77 100 100 100 100 100 100 100 100 59 25 100 100 90 100 100 98
100 100 100 100 100 100 94 100 99 100 96 100 100 100 100 100 100 100 100 84 100 100 100 88 23 100 97 100 100 100 100 100 100 100 100 100 100 100 100 100 97 100 100 59
100 89 100 100 100 100 99 100 100 100 100 46 100 100 100 100 100 100 100 100 100 100 100 100 81 97 100 100 100 100 100 100 100 100 100 100 100 100 99 74 89 56 98 100
100 100 100 100 100 98 100 100 89 100 100 82 99 100 100 100 100 100 100 100 100 100 100 100 100 100 100 100 100 100 100 100 100 100 100 100 100 100 84 73 100 100 68 79
98 100 100 100 100 100 100 100 100 90 100 96 100 100 100 100 100 100 100 100 100 100 100 100 100 100 100 100 100 100 100 100 100 100 100 100 100 100 84 6 21 76 98 40
100 100 100 100 100 100 91 100 99 100 100 100 100 100 100 100 100 100 100 100 100 100 100 100 100 100 100 100 100 100 100 100 100 100 100 100 100 100 98 16 14 12 4 12
100 100 100 96 14 92 18 20 20 64 54 100 100 100 100 100 100 100 100 100 100 100 100 100 100 100 100 100 100 100 100 100 100 100 100 100 100 100 100 98 74 60 74 94
100 100 100 100 32 18 100 95 4 5 5 100 100 100 100 100 100 100 100 100 100 100 100 100 100 100 100 100 100 100 100 100 100 100 100 100 100 100 100 100 100 100 100 100
100 100 100 100 85 5 80 31 37 13 30 82 100 100 100 100 100 100 100 100 100 100 100 100 100 100 100 100 100 100 100 100 100 100 100 100 100 100 100 100 100 100 100 100
99 100 100 100 70 3 5 64 6 5 5 10 100 100 100 100 100 100 100 100 100 100 100 100 100 100 100 100 100 100 100 100 100 100 100 100 100 100 100 100 100 100 100 100
98 73 100 87 86 1 11 2 4 5 13 22 100 100 100 100 100 100 100 100 100 100 100 100 100 100 100 100 100 100 100 100 100 100 100 100 100 100 100 100 100 100 100 100
70 85 93 100 96 6 98 71 7 5 3 100 100 100 100 100 100 100 100 100 100 100 100 100 100 100 100 100 100 100 100 100 100 100 100 100 100 100 100 100 100 100 100 100
34 12 99 100 61 81 98 5 12 3 15 100 100 100 100 100 100 100 100 100 100 100 100 100 100 100 100 100 100 100 100 100 100 100 100 100 100 100 100 100 100 100 100 100
5 40 100 100 82 100 100 10 24 73 100 100 100 100 100 100 100 100 100 100 100 100 100 100 100 100 100 100 100 99 100 100 100 100 100 100 100 100 100 100 100 100 100 100
25 70 100 99 21 51 100 100 100 100 100 100 100 100 100 100 100 100 100 100 100 100 100 100 100 100 100 100 100 100 100 100 100 100 100 100 100 100 100 100 100 100 100 100
92 98 100 84 90 97 100 100 100 100 100 100 100 100 100 100 100 100 100 100 100 100 100 100 100 100 100 100 100 100 100 100 100 100 100 100 100 100 100 100 100 100 100 100
99 92 83 88 100 100 100 100 100 100 100 100 100 100 100 100 100 100 100 100 100 100 100 100 100 100 100 100 100 100 100 100 100 100 99 99 100 100 100 100 100 100 100 100
100 99 96 98 100 100 100 100 100 100 100 100 100 100 100 100 100 100 100 100 100 100 100 100 100 100 100 100 100 100 100 97 94 94 95 93 100 95 94 99 100 100 100 100

GFSCGP_prec_cloud_081.txt.gz
Cloud_Cover
100 94 100 100 100 100 100 100 100 100 100 12 6 3 5 5 5 0 0 0 0 0 0 0 0 5 100 85 100 100 100 72 98 100 100 100 98 94 78 94 100 100 100 100
99 100 100 100 100 100 100 100 100 100 100 77 8 47 8 5 0 0 0 0 0 0 0 0 0 60 97 78 87 100 98 85 100 100 80 100 100 100 89 100 100 100 100 100
100 100 100 100 100 100 100 100 100 100 100 86 36 18 59 5 0 0 0 0 0 0 0 0 50 100 68 94 87 100 100 100 100 100 89 100 100 100 100 100 100 100 100 100
100 100 100 100 100 97 99 100 100 100 64 100 74 13 7 5 2 0 0 0 0 0 0 72 100 100 98 100 50 100 100 100 100 95 45 100 100 100 98 100 100 100 100 100
100 100 100 100 100 94 100 100 100 100 100 100 74 63 5 55 0 0 0 0 0 0 5 86 100 95 36 33 69 100 100 100 100 57 4 100 100 100 100 100 100 100 100 100
100 100 100 100 100 100 100 100 100 100 100 100 99 18 5 82 0 5 0 3 0 1 94 100 100 29 7 82 98 100 100 100 100 72 61 97 38 100 100 100 100 100 100 100
100 100 100 100 100 100 100 100 100 100 100 72 16 38 80 4 4 3 47 8 0 28 100 100 100 98 95 93 99 100 100 100 100 78 98 100 52 100 100 100 100 100 100 100
100 100 100 100 100 100 100 100 100 100 98 93 7 33 61 6 17 66 100 95 34 100 100 100 100 100 100 68 100 100 85 100 100 100 100 100 58 80 100 100 100 99 100 100
100 100 100 100 100 100 100 100 99 73 42 94 81 100 8 17 97 71 100 100 100 100 100 100 100 100 100 84 100 100 98 100 100 100 100 100 86 44 66 54 97 100 100 100
100 100 100 100 100 100 100 100 100 98 73 86 88 99 30 69 100 99 100 100 100 100 100 100 100 80 100 99 100 100 100 100 100 100 92 100 100 96 94 100 100 100 100 100
100 100 100 100 100 100 100 100 99 97 95 70 91 74 99 100 100 100 100 100 100 100 100 100 100 100 97 100 100 100 100 100 100 100 100 100 100 100 100 100 14 42 95 100
100 100 100 100 100 100 100 100 100 100 95 91 98 21 97 100 100 100 100 100 100 100 100 100 100 100 100 100 100 100 100 100 100 100 100 100 100 100 100 100 98 100 100 100
86 100 100 100 100 100 100 100 100 100 100 99 87 42 100 100 100 100 100 100 100 100 100 100 100 100 100 100 100 100 100 100 100 100 100 100 100 100 100 100 90 100 100 97
93 99 100 100 100 100 100 100 100 95 92 94 94 30 94 100 100 100 100 100 100 100 100 100 100 100 100 100 100 100 100 100 100 100 100 100 100 100 100 100 84 45 85 99
100 100 100 100 100 100 100 100 100 98 27 55 86 42 100 100 100 100 100 100 100 100 100 100 100 100 100 100 100 100 100 100 100 100 100 100 100 100 100 100 96 89 98 100
100 100 100 98 100 100 100 100 100 100 100 98 18 99 100 100 100 100 100 100 100 100 100 100 100 100 100 100 100 100 100 100 100 100 100 100 100 100 100 100 100 100 100 100
100 100 100 100 100 100 50 5 64 100 100 86 76 100 100 100 100 100 100 100 100 100 100 100 100 100 100 100 100 100 100 100 100 100 100 100 100 100 100 100 100 100 100 100
100 90 92 100 100 100 100 47 31 96 100 77 35 100 100 100 100 100 100 100 100 100 100 100 100 100 100 100 100 100 100 100 100 100 100 100 100 100 100 100 100 100 100 100
100 100 61 100 100 99 100 100 95 97 35 61 96 100 100 100 100 100 100 100 100 100 100 100 100 100 100 100 100 100 100 100 93 100 100 100 100 100 100 100 100 100 100 100
100 98 100 100 100 100 100 91 88 100 65 98 98 100 100 100 100 100 100 100 100 100 100 100 100 100 100 100 100 100 100 100 100 100 100 100 100 100 100 100 100 100 100 100
100 70 5 98 100 84 100 57 91 94 75 97 90 81 100 100 100 100 100 100 100 100 100 100 100 100 100 100 100 100 100 100 100 100 100 100 100 100 100 100 100 100 100 100
5 90 50 81 69 100 100 38 39 99 100 100 100 100 100 100 100 100 100 100 100 100 100 100 100 100 100 100 100 100 100 100 100 100 100 100 100 100 100 100 100 100 100 100
75 96 60 19 9 100 100 100 100 100 100 100 100 100 100 100 100 100 100 100 100 100 100 100 100 100 100 100 100 100 100 100 100 100 100 100 100 100 100 100 100 100 100 100
100 99 100 67 83 100 100 100 94 100 100 100 100 100 100 100 100 100 100 100 100 100 100 100 100 100 100 100 100 100 100 100 100 100 100 100 100 100 100 100 100 100 100 100
93 92 78 67 97 100 100 100 100 100 100 100 100 100 100 100 100 100 100 100 100 100 100 100 100 100 100 100 100 100 100 100 100 100 100 100 100 100 100 100 100 100 100 100
100 100 92 100 100 100 100 100 95 100 100 100 100 100 100 100 100 100 100 100 100 100 100 100 100 100 100 100 100 100 100 100 100 100 100 100 100 100 100 100 100 100 100 100

GFSCGP_prec_cloud_084.txt.gz
Cloud_Cover
100 51 99 100 100 100 100 94 100 100 100 100 100 100 100 100 100 52 18 65 23 5 0 0 0 0 0 0 0 5 99 81 97 100 87 100 98 88 100 100 100 100 100 100
100 100 100 100 100 100 100 100 97 100 100 100 100 100 100 100 98 100 100 68 10 0 0 0 0 0 0 0 0 26 39 94 86 15 12 63 84 92 100 100 79 74 98 100
69 98 100 100 100 100 100 100 100 100 100 100 100 100 100 100 100 90 93 7 0 0 0 0 0 0 0 0 0 38 44 97 56 5 18 95 91 71 87 80 85 50 63 100
18 99 100 100 100 100 100 100 100 100 100 100 100 100 100 100 100 100 5 28 4 0 0 0 0 0 0 1 7 50 74 49 83 38 39 67 3 50 71 58 71 100 100 100
38 100 100 100 100 100 100 100 100 100 100 100 100 100 100 100 97 7 5 5 0 0 0 0 0 0 0 47 94 85 99 79 61 42 12 24 35 64 80 98 81 100 100 100
92 100 100 100 100 100 100 100 100 100 100 100 100 100 100 100 98 7 3 3 0 0 0 0 0 0 9 42 78 98 100 100 95 44 18 20 62 60 52 93 100 100 100 100
84 100 100 100 100 100 100 100 100 100 100 100 100 87 100 100 58 6 1 3 0 0 1 0 0 3 100 97 100 100 100 100 86 68 28 90 85 57 25 94 100 100 100 100
99 95 100 100 100 100 100 100 100 100 100 100 100 100 99 58 88 63 18 0 0 0 5 18 94 42 96 94 100 100 100 100 99 43 49 90 100 72 81 96 100 100 100 100
100 98 100 100 100 100 100 100 100 100 100 100 100 99 100 99 99 8 5 2 2 41 40 15 100 100 100 100 100 100 100 100 100 48 90 86 100 100 92 100 100 100 100 100
79 95 100 100 100 97 100 100 100 100 100 100 100 100 100 85 68 26 5 8 21 95 100 100 100 100 100 100 100 100 100 100 100 100 99 100 100 100 100 100 100 100 96 100
23 67 96 100 100 100 100 100 100 100 100 100 99 91 14 100 53 63 5 50 81 94 100 100 100 100 100 100 100 100 100 100 100 94 100 100 100 100 100 100 100 100 81 100
64 83 100 100 100 100 100 100 100 100 100 100 99 50 21 36 68 45 98 59 95 100 100 100 100 100 100 100 100 100 100 100 100 100 100 100 88 100 100 100 100 100 100 98
100 64 99 100 100 100 100 100 100 100 100 100 99 99 43 92 96 98 82 100 100 100 100 100 100 100 100 100 100 100 100 100 100 100 100 99 85 88 100 100 100 99 100 100
100 100 90 100 100 100 100 100 100 100 100 100 100 100 97 86 15 100 100 100 100 100 100 100 100 100 100 100 100 100 100 100 100 100 100 100 100 100 100 100 100 100 100 100
100 100 100 94 100 100 100 100 100 100 100 100 100 100 100 18 60 100 100 100 100 100 100 100 100 100 100 100 100 100 100 100 100 100 100 100 100 100 100 100 100 100 100 100
100 100 100 100 100 100 100 100 100 100 100 100 99 40 86 75 35 100 100 100 100 100 100 100 100 100 100 100 100 100 100 100 100 100 100 100 100 100 100 100 100 100 100 100
100 100 100 100 100 100 100 100 100 100 99 64 68 62 25 46 80 100 100 100 100 100 100 100 100 100 100 100 100 100 100 100 100 100 100 100 100 100 100 100 100 100 100 100
100 100 100 100 100 100 100 100 100 100 100 100 100 98 99 100 100 100 100 100 100 100 100 100 100 100 100 100 100 100 100 100 100 100 100 100 100 100 100 100 100 100 100 100
100 100 100 100 100 100 100 100 100 100 100 100 100 99 100 100 100 100 100 100 100 100 100 100 100 100 100 100 100 100 100 100 100 100 100 100 100 100 100 100 100 100 100 100
100 100 100 100 100 100 100 100 100 85 63 87 100 100 84 100 100 100 100 100 100 100 100 100 100 100 100 100 100 100 100 100 100 100 100 100 100 100 100 100 100 100 100 100
100 100 99 100 100 100 100 100 91 66 43 73 92 100 96 100 100 100 100 100 100 100 100 100 100 100 100 100 100 100 100 100 100 100 100 100 100 100 100 100 100 100 100 100
100 97 38 98 100 100 100 78 92 73 95 100 100 100 100 100 100 100 100 100 100 100 100 100 100 100 100 100 100 100 100 100 100 100 100 100 100 100 100 100 100 100 100 100
100 100 100 87 100 100 100 100 99 100 100 100 100 100 100 100 100 100 100 100 100 100 100 100 100 100 100 100 100 100 100 100 100 100 100 100 100 100 100 100 100 100 100 100
96 71 100 68 100 100 100 100 100 100 100 100 100 100 88 100 100 100 100 100 100 100 100 100 100 100 100 100 100 100 100 100 100 100 100 100 100 100 100 100 100 100 100 100
100 87 92 94 100 100 97 100 100 100 100 100 100 100 100 100 100 100 100 100 100 100 100 100 100 100 100 100 100 100 100 100 100 100 100 100 100 100 100 100 100 100 100 100
100 99 100 100 100 95 100 100 100 100 100 100 100 100 100 100 100 100 100 100 100 100 100 100 100 100 100 100 100 100 100 100 100 100 100 100 100 100 100 100 100 100 100 100

GFSCGP_prec_cloud_087.txt.gz
Cloud_Cover
38 0 1 77 49 82 100 100 100 100 95 99 97 77 36 100 100 100 100 100 100 100 100 100 86 10 5 0 0 0 22 17 74 56 90 14 37 94 100 100 100 100 100 100
0 0 5 14 61 100 100 100 100 100 100 71 94 20 98 100 100 100 100 100 100 100 100 100 100 84 3 0 0 0 7 7 46 26 7 5 31 50 94 66 52 84 98 100
5 31 81 67 41 100 100 100 100 96 100 100 98 44 100 97 100 100 100 100 100 100 99 96 35 8 0 0 0 0 0 7 98 18 10 7 44 89 79 10 29 87 30 97
1 62 63 99 46 92 100 100 100 100 100 100 77 80 100 100 100 100 100 100 100 100 100 100 16 4 0 0 0 0 0 1 84 28 5 56 16 6 18 48 100 100 81 95
8 26 95 19 89 98 96 100 100 100 100 100 100 100 100 100 100 100 100 100 100 100 100 100 7 4 5 0 0 0 0 6 69 54 48 74 94 5 12 60 91 100 99 88
0 8 40 93 83 100 100 100 100 100 100 100 100 81 100 100 93 100 100 100 100 100 96 12 23 14 65 15 0 0 4 49 99 61 96 94 22 1 2 14 100 100 95 100
55 0 3 100 83 100 100 100 100 100 100 100 100 100 100 100 100 100 100 100 100 100 22 38 73 5 2 34 0 20 24 85 90 88 97 79 6 0 2 52 92 100 100 100
100 100 88 12 60 100 100 100 100 100 100 100 100 100 100 100 100 100 100 100 100 100 26 3 27 0 0 0 0 50 100 100 100 100 91 34 13 0 9 100 89 92 100 100
85 95 4 84 67 78 100 100 100 100 100 100 100 100 100 100 100 100 100 100 10 18 5 7 0 0 0 3 36 82 100 100 100 100 100 27 21 14 34 100 55 99 88 95
4 24 97 81 6 94 100 100 100 100 100 100 100 100 100 100 100 100 100 69 13 3 2 77 11 51 71 52 98 100 100 100 100 100 99 28 27 74 97 100 78 100 98 97
82 64 78 97 5 98 100 100 100 100 100 100 100 100 100 100 100 100 100 65 5 0 17 100 94 43 100 99 100 100 100 100 100 100 98 82 99 100 41 30 95 100 100 97
100 82 27 100 91 82 100 100 100 100 100 100 100 100 100 100 100 100 100 6 4 5 46 100 100 100 100 100 100 100 100 100 100 100 100 100 100 100 100 100 100 100 100 93
83 100 56 100 100 99 100 100 100 100 100 100 100 100 100 100 100 86 68 77 5 1 74 100 100 100 100 100 100 100 100 100 100 100 100 100 93 100 100 100 89 100 100 100
100 75 97 100 100 93 100 100 100 100 100 100 100 100 100 100 90 83 6 27 18 24 95 100 100 100 100 100 100 100 100 100 100 100 100 100 100 100 100 65 100 100 100 100
100 96 95 71 100 100 100 100 100 100 100 100 100 100 100 100 69 14 11 20 51 46 93 100 100 100 100 100 100 100 100 100 100 100 100 100 100 100 100 100 100 100 100 100
100 100 84 100 100 100 100 100 100 100 100 100 64 96 9 84 54 98 90 80 97 86 100 100 100 100 100 100 100 100 100 100 100 100 100 100 100 100 100 100 100 100 100 100
100 100 100 100 99 100 100 100 100 100 100 100 100 97 99 100 100 100 100 100 100 100 100 100 100 100 100 100 100 100 100 100 100 100 100 100 100 100 100 100 100 100 100 100
100 100 100 98 83 100 100 100 100 100 100 100 100 100 100 100 100 100 100 100 100 100 100 100 100 100 100 100 100 100 100 100 100 100 100 100 100 100 100 100 100 100 100 100
100 100 100 100 100 96 100 100 100 100 100 100 100 45 100 100 100 100 100 100 100 100 100 100 100 100 100 100 100 100 100 100 100 100 100 100 100 100 100 100 100 100 100 100
100 100 100 100 100 100 100 100 100 100 100 100 100 100 85 99 100 100 100 100 100 100 100 100 100 100 100 100 100 100 100 100 100 100 100 100 100 100 100 100 100 100 100 100
100 100 100 100 100 100 100 100 100 100 100 100 100 100 100 100 100 100 100 100 100 100 100 100 100 100 100 100 100 100 100 100 100 100 100 100 100 100 100 100 100 100 100 100
100 100 100 54 99 100 100 100 100 100 100 100 100 100 100 100 100 100 100 100 100 100 100 100 100 100 100 100 100 100 100 100 100 100 100 100 100 100 100 100 100 100 100 100
100 100 100 63 100 100 100 100 97 98 100 100 100 100 100 100 100 99 100 100 100 100 100 100 100 100 100 100 100 100 100 100 100 100 100 100 100 100 100 100 100 100 100 100
100 100 100 100 100 100 100 100 100 100 100 100 100 100 100 99 100 100 100 100 100 100 100 100 100 100 100 100 100 100 100 100 100 100 100 100 100 100 100 100 100 100 100 100
100 100 84 98 100 100 99 100 100 100 96 100 100 100 100 100 100 100 100 100 100 100 100 100 100 100 100 100 100 100 100 100 100 100 100 100 100 100 100 100 100 100 100 100
100 100 100 100 100 100 100 100 100 100 100 100 96 100 100 100 100 100 100 100 100 100 100 100 100 100 100 100 100 100 100 100 100 100 100 100 100 100 100 100 100 100 100 100

GFSCGP_prec_cloud_090.txt.gz
Cloud_Cover
19 4 0 0 0 2 5 5 5 5 35 100 5 12 95 100 88 100 100 100 100 100 100 100 100 100 100 100 100 100 9 21 4 6 63 24 0 0 96 100 100 2 23 42
1 0 0 0 1 6 61 5 0 1 10 100 100 50 100 49 100 100 100 100 100 100 100 100 100 100 100 100 100 100 100 62 1 2 50 1 0 0 13 99 100 100 98 30
4 0 3 18 5 13 4 4 4 3 100 100 100 93 100 100 100 99 98 100 100 97 100 100 100 100 100 100 100 100 41 0 3 25 78 6 1 29 19 24 98 100 100 93
0 0 2 53 27 60 5 67 80 77 95 95 100 7 98 100 100 100 85 92 97 74 99 100 100 100 100 100 100 100 99 5 3 66 7 11 0 6 3 9 29 8 28 45
0 0 5 5 5 100 2 33 26 36 91 14 100 29 96 100 100 100 88 85 100 99 100 100 100 100 100 100 100 100 100 52 0 75 15 8 5 32 5 5 3 20 100 98
0 5 4 4 14 24 57 20 100 82 77 5 100 99 97 100 100 100 15 100 100 100 100 100 100 100 100 100 99 98 86 2 2 17 23 14 42 3 24 5 0 100 82 100
59 18 0 0 3 4 90 32 91 85 100 83 100 100 100 100 100 99 100 100 100 100 100 100 100 100 100 100 86 62 5 0 0 36 93 15 10 34 13 0 18 58 99 100
7 4 95 98 40 74 76 62 37 100 100 100 100 100 100 100 100 100 100 100 100 100 100 100 100 100 100 96 19 98 5 0 0 72 94 55 58 51 16 0 97 81 97 8
11 58 6 3 100 68 5 12 100 100 100 100 100 100 100 100 100 100 100 100 100 100 100 100 100 100 100 25 52 5 6 0 10 100 89 100 83 42 5 1 6 96 89 100
4 45 28 76 95 96 7 42 67 100 100 100 100 100 100 100 100 100 100 100 100 100 100 100 100 100 34 8 4 17 9 22 96 100 81 100 89 45 5 17 2 14 95 67
5 60 0 32 51 88 96 10 65 100 99 100 100 100 100 100 100 100 100 100 100 100 100 100 100 100 100 100 54 56 47 64 87 100 100 100 62 53 66 100 67 68 78 98
37 9 16 0 47 100 100 74 86 100 100 100 100 100 100 100 100 100 100 100 100 100 100 100 100 100 100 100 100 100 86 100 100 100 100 100 100 99 100 100 85 100 100 100
37 11 65 2 1 100 100 11 100 100 100 100 100 100 100 100 100 99 100 100 100 100 100 100 100 100 100 100 100 100 100 100 100 100 100 100 100 100 100 100 100 100 100 100
46 15 6 81 64 100 100 99 100 100 100 100 100 100 100 100 100 100 100 100 100 100 100 100 100 100 100 100 100 100 100 100 100 100 100 100 100 100 100 100 100 100 98 100
81 88 80 87 87 89 100 100 100 100 100 100 100 100 100 100 100 100 100 100 100 100 85 97 98 100 100 100 100 100 100 100 100 100 100 100 100 100 100 100 100 100 100 100
100 67 54 71 65 100 89 100 100 100 100 100 100 100 100 100 100 100 100 100 100 100 100 100 100 100 100 100 100 100 100 100 100 100 100 100 100 100 100 100 100 100 100 100
87 93 97 19 69 100 100 100 100 100 100 100 100 100 96 100 100 100 100 100 100 100 100 100 100 100 100 100 100 100 100 100 100 100 100 100 100 100 100 100 100 100 100 100
100 100 100 83 100 100 100 100 100 100 100 100 99 99 100 50 100 100 100 100 100 100 100 100 100 100 100 100 100 100 100 100 100 100 100 100 100 100 100 100 100 100 100 100
100 100 100 100 100 87 93 99 100 100 100 100 100 100 100 100 100 100 100 100 100 100 100 100 100 100 100 100 100 100 100 100 100 100 100 100 100 100 100 100 100 100 100 100
100 100 100 100 100 100 100 100 15 100 98 100 100 100 100 100 100 100 100 100 100 100 100 99 100 100 100 100 100 100 100 100 100 100 100 100 100 100 100 100 100 100 100 100
100 100 100 96 100 100 85 54 49 75 100 100 100 100 100 100 100 100 100 100 100 100 100 100 100 100 100 100 100 100 100 100 100 100 100 100 100 100 100 100 100 100 100 100
100 100 100 100 100 100 100 100 100 100 100 100 100 100 100 100 100 100 100 100 100 100 100 100 100 100 100 100 100 100 100 100 100 100 100 100 100 100 100 100 100 100 100 100
100 100 100 100 100 100 100 99 100 100 100 100 100 100 100 100 100 100 100 100 99 100 100 100 100 100 100 100 100 100 100 100 100 100 100 100 100 100 100 100 100 100 100 100
100 100 100 100 100 100 100 100 100 100 100 100 100 100 100 100 100 100 100 100 100 100 100 100 100 100 100 100 100 100 100 100 100 100 100 100 100 100 100 100 100 100 100 100
100 100 100 100 100 100 100 100 100 100 100 100 99 100 100 100 100 100 100 100 100 100 100 100 100 100 100 100 100 100 100 100 100 100 100 100 100 100 100 100 100 100 100 100
100 100 100 100 100 100 100 100 100 100 100 100 85 100 100 100 100 100 100 100 100 100 100 100 100 100 100 100 100 100 100 100 100 100 100 100 100 100 100 100 100 100 100 100

GFSCGP_prec_cloud_093.txt.gz
Cloud_Cover
67 99 100 39 5 5 5 0 0 0 0 0 0 0 0 0 0 0 5 21 100 14 89 100 29 100 100 95 83 88 100 100 100 100 100 100 100 34 17 2 2 88 100 33
100 100 100 52 19 5 5 0 0 0 0 0 0 0 0 2 0 3 100 100 84 6 11 100 100 100 100 100 100 100 100 100 100 100 100 100 97 10 1 24 99 100 41 16
100 100 95 100 97 8 0 0 1 0 1 0 0 0 0 0 29 87 100 72 89 100 100 92 100 100 100 100 100 100 100 100 100 56 100 100 79 6 10 16 63 100 100 52
99 100 100 92 66 86 4 0 0 3 89 14 4 1 0 1 99 100 100 37 86 9 67 100 100 100 100 100 100 93 100 100 100 100 100 100 100 46 21 2 5 62 100 100
92 32 0 0 0 5 3 100 6 5 54 5 0 3 0 5 84 100 67 63 100 7 96 100 100 100 84 53 35 98 100 100 100 100 100 71 56 5 5 16 5 11 71 37
0 0 2 5 0 0 0 5 26 7 5 2 0 3 0 87 100 96 95 100 100 100 100 100 100 100 100 100 99 100 100 100 100 98 82 63 43 1 2 79 5 10 81 84
1 1 5 4 4 0 5 12 34 13 5 2 1 16 62 16 100 98 100 100 100 100 100 100 100 100 100 100 92 100 100 100 100 98 7 7 0 24 2 70 12 24 34 100
0 0 9 68 58 85 52 98 32 25 0 18 72 61 100 100 100 100 48 100 100 100 98 99 100 100 100 100 100 98 100 100 100 100 64 100 100 73 5 99 8 16 1 31
4 0 0 2 59 80 39 4 21 100 12 5 24 97 100 99 100 100 100 100 100 100 100 100 100 100 100 100 100 94 9 69 73 53 38 100 100 100 67 71 12 17 5 60
30 6 0 1 44 24 76 40 4 34 100 96 100 100 70 100 100 100 100 100 100 100 100 100 100 100 100 100 99 100 100 100 100 100 100 100 100 100 93 84 58 5 100 100
5 17 2 0 0 3 98 100 98 84 90 40 100 100 100 100 100 100 100 100 100 100 100 100 100 100 100 100 93 88 95 100 100 100 100 100 100 100 99 28 21 9 96 97
27 77 5 0 0 0 6 100 100 100 33 97 100 100 100 100 100 100 100 100 100 100 100 100 100 100 100 100 100 100 97 38 99 100 68 90 100 100 86 73 83 99 74 53
3 4 2 0 0 3 6 100 100 100 100 100 100 100 100 100 100 100 100 83 100 100 100 100 100 100 100 100 100 100 100 100 82 75 72 100 100 100 100 100 100 100 100 100
2 4 0 0 21 98 38 59 100 100 100 100 100 100 100 100 100 100 100 68 80 100 100 100 100 100 100 100 100 100 100 100 100 100 100 100 100 100 100 100 100 100 100 100
6 76 5 5 14 93 10 97 100 96 100 100 100 100 100 100 100 100 100 100 96 100 100 100 100 100 100 100 100 100 100 100 100 100 100 100 100 100 100 100 100 100 100 100
73 84 31 5 0 12 98 100 100 100 100 100 100 100 100 100 100 100 100 100 91 100 100 100 100 100 100 100 100 100 100 100 100 100 100 100 100 100 100 100 100 100 100 100
59 97 90 7 19 58 100 100 100 100 100 100 100 100 100 100 100 100 100 100 99 100 100 100 100 100 100 100 100 100 100 100 100 100 100 100 100 100 100 100 100 100 100 100
5 20 98 60 78 100 100 100 100 100 100 100 100 100 99 100 100 100 100 100 100 100 100 100 100 100 100 100 100 100 100 100 100 100 100 100 100 100 100 100 100 100 100 100
4 13 100 100 100 100 100 100 100 100 100 100 100 100 100 100 100 100 100 100 100 100 100 100 100 99 100 100 100 100 100 100 100 100 100 100 100 100 100 100 100 100 100 100
100 100 100 100 100 100 100 100 100 100 100 100 100 100 100 100 100 100 100 100 100 100 100 100 97 100 100 100 100 100 100 100 100 100 100 100 100 100 100 100 100 100 100 100
100 100 100 100 100 100 100 97 100 87 100 100 96 100 100 100 91 100 100 100 100 100 99 92 100 100 100 100 100 100 100 100 100 100 100 100 100 100 100 100 100 100 100 100
100 100 100 100 100 100 100 100 100 100 100 100 100 100 100 100 100 100 100 100 100 99 84 100 100 100 100 100 100 100 100 100 100 100 100 100 100 100 100 100 100 100 100 100
100 100 100 100 100 100 100 100 100 100 100 100 100 100 99 100 100 100 99 100 100 100 100 100 100 100 99 100 100 100 100 100 100 100 100 100 100 100 100 100 100 100 100 100
100 100 100 100 100 100 100 100 100 100 100 100 100 100 92 93 100 100 100 100 100 100 100 100 100 98 100 100 100 100 100 100 100 100 100 100 100 100 100 100 100 100 100 100
100 100 100 100 100 98 100 100 100 100 100 100 100 100 100 86 100 100 100 100 100 100 100 100 100 99 100 100 100 100 100 100 100 100 100 100 100 100 100 100 100 100 100 100
100 100 99 100 100 90 99 91 100 100 100 100 100 99 78 54 100 100 100 100 100 100 100 100 100 100 100 100 100 100 100 100 100 100 100 100 100 100 100 100 100 100 100 100

GFSCGP_prec_cloud_096.txt.gz
Cloud_Cover
6 5 84 7 5 5 52 50 100 100 100 83 5 4 5 1 0 0 0 0 0 0 0 0 1 5 5 100 100 5 100 100 100 100 100 100 100 100 98 100 100 95 15 27
35 16 30 11 92 99 100 100 100 100 100 100 87 2 0 0 0 0 0 0 0 0 0 3 40 94 5 85 100 28 98 100 100 100 100 97 100 97 100 100 69 100 34 100
6 95 95 99 100 100 100 100 100 98 92 40 2 0 0 0 0 0 0 0 0 2 4 67 93 97 70 46 100 99 98 100 100 100 100 90 100 100 92 96 100 67 67 89
84 100 84 34 86 100 100 100 94 24 2 0 0 1 0 0 0 0 0 0 0 74 17 5 69 96 59 6 52 100 100 100 100 100 100 88 100 82 98 93 92 78 100 100
100 100 96 98 98 10 78 6 43 5 82 5 1 28 0 0 0 0 0 1 84 60 100 100 100 100 100 100 100 100 100 100 100 100 100 44 100 83 96 92 5 6 77 100
100 100 98 98 28 3 5 3 5 5 56 63 0 3 0 0 0 4 2 75 100 100 100 100 100 94 44 100 100 100 100 100 100 100 46 37 98 86 100 16 97 61 46 91
6 95 91 5 0 5 5 32 5 6 3 0 0 1 0 0 16 38 57 100 100 100 100 100 100 100 100 100 100 100 100 98 99 93 99 100 100 100 73 66 90 100 96 76
5 5 5 14 5 5 37 26 88 90 5 4 0 2 0 2 79 100 100 100 100 100 100 100 100 100 100 100 100 100 100 90 98 100 100 100 100 100 100 100 100 100 100 100
5 5 4 5 5 78 6 67 89 100 51 81 4 1 1 66 88 100 100 100 100 100 100 100 100 100 100 100 100 100 68 100 100 100 100 100 100 100 100 100 99 100 100 47
17 0 0 1 0 21 94 91 50 90 100 95 2 32 96 100 100 100 100 100 100 100 90 100 100 100 100 100 100 100 100 100 100 100 100 100 100 100 100 100 98 100 41 9
3 2 0 1 0 0 62 67 100 100 88 92 70 58 100 100 100 100 100 100 100 100 94 100 100 100 100 100 100 100 100 99 100 100 100 100 100 100 100 100 34 86 4 62
0 0 5 0 0 0 0 3 97 100 100 30 72 100 100 100 100 100 100 100 100 100 100 100 100 100 100 100 100 100 100 100 100 100 100 100 100 100 100 100 100 58 8 100
2 3 4 0 7 94 74 100 72 88 100 100 100 100 100 100 100 100 100 100 100 100 100 81 100 100 100 100 100 100 100 100 100 100 100 100 100 100 100 100 100 94 79 100
5 5 5 18 3 4 100 100 99 94 88 87 99 100 100 100 100 100 100 100 100 100 100 100 98 100 100 100 100 100 100 100 100 100 100 100 100 100 100 100 100 100 100 100
5 12 5 5 5 5 26 60 100 36 38 100 100 100 100 100 100 100 100 100 100 100 100 100 100 100 100 100 100 100 100 100 100 100 100 100 100 100 100 100 100 100 100 100
68 5 15 4 0 0 80 5 91 100 85 93 100 100 100 100 100 100 100 100 100 100 100 100 100 100 100 100 100 100 100 100 100 100 100 100 100 100 100 100 100 100 100 100
22 5 5 4 1 5 12 2 77 95 100 100 100 100 100 100 100 100 100 100 100 100 100 100 100 100 100 100 100 100 100 100 100 100 100 100 100 100 100 100 100 100 100 100
0 5 5 9 45 91 100 97 100 100 100 100 100 100 100 100 100 100 100 100 100 100 100 100 100 100 100 100 100 100 100 100 100 100 100 100 100 100 100 100 100 100 100 100
0 21 97 48 100 100 100 100 100 100 100 100 100 100 100 100 100 92 100 100 100 100 100 100 100 100 100 100 100 100 100 100 100 100 100 100 100 100 100 100 100 100 100 100
100 100 100 100 100 100 100 100 100 100 100 100 100 100 100 100 100 100 97 100 100 100 100 100 100 100 100 100 100 100 100 100 100 100 100 100 100 100 100 100 100 100 100 100
100 93 100 100 100 100 100 100 100 100 100 100 100 100 100 100 92 94 100 100 100 100 100 100 100 100 100 100 100 100 100 100 100 100 100 100 100 100 100 100 100 100 100 100
100 100 100 100 100 100 100 100 100 100 100 100 100 100 100 100 96 100 100 100 100 100 100 100 100 100 100 100 99 99 100 100 100 100 100 100 100 100 100 100 100 100 100 100
100 100 100 100 100 100 100 100 100 100 100 100 100 100 94 87 95 99 100 100 100 100 100 100 100 100 100 100 100 100 100 100 100 100 100 100 100 100 100 100 100 100 100 100
100 100 100 100 100 100 100 100 100 100 100 86 98 100 100 100 100 97 99 100 95 98 95 100 100 100 100 100 100 100 100 100 100 100 100 100 100 100 100 100 100 100 100 100
100 100 100 100 100 100 100 100 100 96 88 98 96 98 100 99 100 100 100 100 100 99 100 100 100 100 100 100 100 100 100 100 100 100 100 100 100 100 100 100 100 100 100 100
100 100 100 100 100 100 100 100 100 100 100 100 98 94 100 100 87 97 100 100 100 100 100 100 100 100 100 100 100 100 100 98 100 100 100 100 100 100 100 100 100 100 100 100

GFSCGP_prec_cloud_099.txt.gz
Cloud_Cover
68 58 98 7 5 32 5 14 5 5 4 0 1 5 5 100 100 100 100 17 5 0 31 25 0 0 0 0 0 0 7 100 100 100 100 100 100 100 100 80 96 100 74 93
77 100 100 99 11 5 27 5 10 10 79 10 4 2 100 98 100 100 100 83 0 0 0 0 0 0 0 0 0 3 0 10 99 100 100 100 100 100 90 91 100 100 100 100
90 96 30 5 5 5 49 11 99 67 95 5 27 5 5 100 100 73 39 0 0 0 0 0 0 0 0 0 1 4 2 2 10 100 100 100 86 100 100 100 100 100 100 100
5 5 5 5 5 27 17 99 100 97 77 22 75 3 5 88 5 4 0 0 0 0 0 0 0 0 0 2 3 5 48 74 25 100 99 100 99 100 100 88 100 100 100 84
100 99 100 100 100 99 44 100 100 100 100 98 87 0 0 100 2 2 5 0 0 0 0 0 0 12 96 70 96 91 100 100 100 64 100 100 100 99 31 67 100 100 100 100
100 100 100 100 100 100 100 100 100 100 100 55 37 3 0 2 0 0 1 4 5 0 2 26 99 75 100 94 100 100 100 100 100 100 100 100 100 94 96 100 100 100 99 100
100 100 100 100 100 100 100 100 62 46 8 0 0 0 0 6 28 59 85 20 72 5 52 100 100 100 100 100 100 100 79 99 100 100 100 100 100 70 72 86 94 100 64 100
100 100 100 100 100 100 100 100 84 43 5 0 0 1 0 0 0 29 17 13 72 55 100 100 100 100 97 100 100 100 100 100 100 100 100 100 74 92 100 100 100 100 100 100
100 100 100 100 100 99 44 15 7 58 0 4 0 0 0 0 4 5 16 38 100 100 100 100 100 100 100 100 100 100 100 100 100 100 100 73 100 100 100 100 100 100 100 96
74 91 91 96 98 89 40 5 22 74 88 78 1 0 0 1 30 52 100 100 100 100 100 100 100 100 100 100 100 100 100 100 100 100 99 99 100 100 100 100 100 100 100 63
95 24 6 5 57 10 2 0 1 8 61 97 38 9 68 95 98 100 100 100 100 100 100 100 100 100 100 100 100 100 100 100 100 100 100 100 100 100 100 100 100 100 98 41
100 24 8 5 4 2 0 0 8 67 6 100 100 21 100 100 100 100 100 100 100 100 100 100 100 100 100 100 100 100 100 100 100 100 100 100 100 100 100 100 100 100 100 88
51 3 2 0 3 0 0 71 66 94 84 63 100 97 97 100 100 100 100 100 100 100 100 100 100 100 100 100 100 100 100 100 100 100 100 100 100 100 100 100 100 100 100 100
0 2 0 0 0 2 5 0 2 95 94 12 21 2 91 100 100 100 100 100 100 100 100 100 100 100 100 100 100 100 100 100 100 100 100 100 100 100 100 100 100 100 100 98
4 5 5 0 3 5 5 0 0 16 4 38 32 4 100 100 100 100 100 100 100 100 100 100 100 100 100 100 100 100 100 100 100 100 100 100 100 100 100 100 100 100 100 100
5 5 5 68 4 0 0 0 0 0 5 59 77 55 100 100 100 100 100 100 100 100 100 100 100 100 100 100 100 100 100 100 100 100 100 100 100 100 100 100 100 100 100 100
39 14 5 4 0 0 0 27 49 0 41 100 100 100 100 100 100 100 100 100 100 100 100 100 100 100 100 100 100 100 100 100 100 100 100 100 100 100 100 100 100 100 100 100
2 5 6 25 5 34 100 100 95 80 100 100 100 100 100 100 100 100 100 100 100 100 100 100 100 100 100 100 100 100 100 100 100 100 100 100 100 100 100 100 100 100 100 100
70 5 59 16 80 100 100 100 100 100 100 100 100 100 100 100 100 100 100 100 100 100 100 100 100 100 100 100 100 100 100 100 100 100 100 100 100 100 100 100 100 100 100 100
31 95 10 100 100 100 100 100 100 100 100 100 100 100 100 100 100 100 100 100 100 100 100 100 100 100 100 100 100 100 100 100 100 100 100 100 100 100 100 100 100 100 100 100
100 97 100 100 100 100 100 100 100 100 100 100 100 100 100 100 100 100 100 100 97 100 100 100 98 100 100 100 100 100 100 100 100 100 100 100 100 100 100 100 100 100 100 100
100 100 100 100 100 100 100 100 100 100 100 100 100 100 100 100 100 100 100 100 95 95 100 100 100 100 100 100 100 100 100 100 93 89 100 100 100 100 100 100 100 100 100 100
100 100 100 100 100 100 100 100 100 100 100 100 100 100 100 100 100 87 94 100 95 91 98 88 95 100 100 100 100 100 100 96 81 92 100 100 100 100 100 100 100 100 100 100
100 100 100 100 100 100 100 100 100 100 100 100 100 100 100 100 100 94 86 91 92 93 96 94 88 97 99 98 100 100 100 100 99 99 100 100 100 100 100 99 100 100 100 100
100 100 98 100 100 100 100 100 100 100 100 100 100 100 100 100 96 100 100 100 99 100 100 100 100 100 99 97 95 94 100 100 100 100 94 88 100 100 100 100 100 100 100 100
100 100 100 100 100 100 100 100 100 100 100 100 100 100 92 81 97 100 100 100 100 100 94 85 94 100 100 96 73 78 100 100 100 100 100 100 100 100 100 100 100 100 100 100

GFSCGP_prec_cloud_102.txt.gz
Cloud_Cover
8 5 35 14 53 99 100 100 100 100 100 44 65 100 18 12 10 6 5 5 4 0 4 5 6 31 100 100 92 5 4 3 28 94 100 100 100 100 100 100 100 87 100 100
35 93 100 30 5 5 28 78 94 93 100 82 88 90 20 32 60 5 3 4 0 3 0 5 45 98 96 13 4 9 5 2 18 7 86 92 100 100 100 100 99 100 100 100
14 76 96 63 84 73 25 5 7 15 5 3 3 5 5 34 82 99 50 0 0 0 0 4 3 4 0 0 0 12 4 0 0 0 65 100 90 100 100 100 100 100 100 100
3 60 17 9 17 51 11 44 78 7 5 5 73 1 2 14 100 100 30 4 1 0 0 1 0 0 0 0 8 1 0 35 6 22 66 100 90 47 100 100 100 100 100 100
7 5 34 98 100 84 9 83 85 46 39 49 84 100 5 16 100 100 33 22 51 45 1 0 0 0 0 3 39 59 44 52 2 64 18 41 53 24 66 100 100 100 100 100
100 100 100 94 100 98 100 99 100 100 100 32 56 100 8 100 100 100 100 100 61 0 0 0 1 0 11 38 32 60 89 70 72 96 92 94 98 96 33 100 100 100 100 100
100 100 100 100 100 100 100 100 100 100 100 88 100 100 100 100 100 100 47 0 0 0 0 0 12 38 70 94 96 77 100 100 100 88 95 98 73 88 22 100 100 100 100 100
100 100 100 100 100 100 100 100 100 100 100 99 96 32 12 14 26 5 0 1 4 5 5 14 100 100 100 100 100 100 100 100 97 100 100 100 100 42 29 100 100 100 100 100
100 100 100 100 100 100 100 100 100 97 92 100 91 73 29 6 2 29 73 62 47 30 5 32 87 100 100 100 100 100 100 100 100 100 100 100 100 95 98 85 28 100 100 100
100 100 100 100 100 56 35 47 80 54 12 4 0 0 1 59 100 100 100 100 98 100 82 93 100 100 100 100 100 100 100 100 100 100 100 100 100 100 90 100 100 100 100 100
100 100 100 100 100 99 56 22 38 43 33 34 5 11 97 100 100 100 100 100 100 100 100 100 100 100 100 100 100 100 100 100 100 100 100 100 100 100 100 100 100 100 100 100
100 100 100 100 100 100 100 100 69 5 16 79 76 14 61 45 100 100 100 100 100 100 100 100 100 100 100 100 100 100 100 100 100 100 100 100 100 100 100 100 100 100 100 100
100 100 78 37 36 85 6 2 2 5 79 6 68 8 54 100 100 100 100 100 100 100 100 100 100 100 100 100 100 100 100 100 100 100 100 100 100 100 100 100 100 100 100 100
100 89 5 8 27 8 30 1 0 4 61 3 4 2 2 70 100 97 100 100 100 100 100 100 100 100 100 100 100 100 100 100 100 100 100 100 100 100 100 100 100 100 100 100
5 5 5 4 2 2 5 5 2 1 0 20 0 0 0 93 100 100 100 100 100 100 100 100 100 100 100 100 100 100 100 100 100 100 100 100 100 100 100 100 100 100 100 100
5 2 5 4 1 5 2 0 0 0 0 5 1 0 5 100 100 100 100 100 100 100 100 100 100 100 100 100 100 100 100 100 100 100 100 100 100 100 100 100 100 100 100 100
13 5 23 16 0 0 0 8 25 18 54 94 5 2 92 96 100 100 100 100 100 100 100 100 100 100 100 100 100 100 100 100 100 100 100 100 100 100 100 100 100 100 100 100
5 5 7 20 5 26 0 6 40 100 100 100 69 100 100 100 100 100 100 100 100 100 100 100 100 100 100 100 100 100 100 100 100 100 100 100 100 100 100 100 100 100 100 100
0 5 16 5 34 14 99 94 100 100 100 100 100 100 100 100 100 100 100 100 100 100 100 100 100 100 100 100 100 100 100 100 100 100 100 100 100 100 100 100 100 100 100 100
96 100 95 88 58 98 95 92 100 100 100 100 100 100 100 100 100 100 100 100 100 100 100 100 100 100 100 100 100 100 100 100 100 100 100 100 100 100 100 100 100 100 100 100
100 99 91 100 100 100 98 100 100 100 100 100 100 100 100 100 100 100 100 100 100 100 100 100 100 100 100 100 100 100 100 100 100 100 100 100 100 100 100 100 100 100 100 100
100 100 100 100 100 100 100 100 100 100 100 100 100 100 100 100 100 100 100 100 100 100 86 100 100 100 100 98 99 100 100 100 100 100 100 100 100 100 100 100 100 100 100 100
100 100 100 100 100 100 100 100 100 100 100 100 100 100 100 100 100 100 100 100 100 100 100 97 94 100 97 97 99 97 100 100 100 100 100 100 100 97 100 100 100 100 100 100
100 100 100 100 100 100 100 100 100 100 100 100 100 100 100 100 100 100 100 100 100 100 100 100 100 100 100 100 98 96 95 100 100 97 100 100 99 100 100 100 100 100 96 100
100 100 100 100 100 100 100 100 100 100 100 100 100 100 100 100 100 100 100 100 100 100 100 100 100 96 96 56 99 80 98 100 100 100 100 100 100 99 100 100 100 100 100 100
99 100 100 100 100 100 100 100 100 100 100 100 100 100 100 100 100 92 100 100 96 82 81 81 88 79 90 97 99 92 100 100 100 100 100 100 100 93 73 99 99 100 100 100

GFSCGP_prec_cloud_105.txt.gz
Cloud_Cover
0 0 0 5 5 5 29 80 10 5 9 2 5 53 84 37 74 100 100 100 99 100 98 97 39 26 46 5 5 1 2 5 2 5 28 65 100 92 100 100 100 100 100 100
0 0 0 0 4 2 6 99 96 11 14 5 5 12 59 96 100 92 88 92 99 100 93 66 16 9 5 2 4 5 0 0 0 1 2 5 4 96 92 100 100 100 100 100
5 0 0 0 0 4 5 4 22 39 24 5 1 5 20 72 47 7 7 5 5 5 5 14 10 78 100 100 90 4 3 30 4 0 0 3 9 83 100 100 100 100 100 100
5 0 0 1 2 2 3 4 2 3 5 2 0 4 5 53 24 5 4 1 0 4 5 8 21 100 92 100 100 96 12 56 29 25 10 38 12 74 95 100 100 100 100 100
4 0 6 68 67 94 40 68 95 43 5 3 0 0 5 0 31 100 100 22 7 6 5 2 10 100 100 100 100 100 100 100 76 66 21 92 85 25 16 99 84 100 100 100
97 79 68 99 98 99 100 100 100 99 61 2 4 23 5 6 5 98 100 100 96 66 11 26 95 100 100 100 100 100 100 100 100 100 70 33 92 45 88 88 84 100 100 100
7 98 100 100 100 100 100 100 99 54 12 4 5 5 52 16 100 96 92 97 64 57 92 95 80 100 58 22 54 100 100 100 100 100 100 31 17 100 96 91 50 99 100 100
100 100 100 100 100 100 100 100 100 73 26 76 99 57 60 65 96 100 100 100 100 100 32 50 47 26 97 84 98 100 100 100 100 100 100 60 0 98 100 77 71 64 82 88
100 100 100 100 100 100 100 100 100 86 100 100 100 100 100 100 100 100 100 98 100 100 77 96 50 51 98 89 100 100 100 100 100 100 100 100 86 88 100 100 91 100 100 100
100 100 100 100 100 100 100 100 100 89 81 99 72 21 5 59 14 39 60 91 100 99 30 53 54 88 100 82 100 100 100 100 100 100 100 99 95 100 100 100 100 100 100 100
100 100 100 100 100 100 100 100 100 100 79 12 5 4 76 72 100 100 100 91 55 34 39 66 73 100 100 100 100 100 100 100 100 100 100 100 100 100 100 100 100 100 100 100
100 100 100 100 100 100 100 100 100 87 23 15 5 1 85 100 100 100 94 73 56 54 37 82 100 100 100 100 100 100 100 100 100 100 100 100 100 100 100 100 100 100 100 100
100 100 100 100 100 100 100 100 57 5 5 12 5 1 14 40 99 49 72 74 63 72 100 100 100 100 100 100 100 100 100 100 100 100 100 100 100 100 100 100 100 100 100 100
100 100 100 100 100 100 81 6 5 4 5 3 2 0 1 0 21 36 90 78 91 100 100 100 100 100 100 100 100 100 100 100 100 100 100 100 100 100 100 100 100 100 100 100
100 100 100 100 91 11 5 4 1 5 5 11 0 0 0 0 38 66 90 66 97 100 100 100 100 100 100 100 100 100 100 100 100 100 100 100 100 100 100 100 100 100 100 100
100 100 73 40 5 1 3 0 0 0 0 0 0 0 0 19 76 34 82 100 100 100 100 100 100 100 100 100 100 100 100 100 100 100 100 100 100 100 100 100 100 100 100 100
32 23 7 7 5 0 0 1 34 67 95 86 91 14 8 100 86 86 100 100 100 100 100 100 100 100 100 100 100 100 100 100 100 100 100 100 100 100 100 100 100 100 100 100
83 22 4 5 1 0 0 47 55 96 97 58 56 100 91 91 100 100 100 100 100 100 100 100 100 100 100 100 100 100 100 100 100 100 100 100 100 100 100 100 100 100 100 100
3 5 5 4 26 0 7 68 87 97 90 100 100 100 100 100 100 100 100 100 100 100 100 100 100 100 100 100 100 100 100 100 100 100 100 100 100 100 100 100 100 100 100 100
82 7 39 39 7 8 96 65 100 100 100 100 100 100 100 100 100 100 100 100 100 100 100 100 100 100 100 100 100 100 100 100 100 100 100 100 100 100 100 100 100 100 100 100
100 100 100 98 97 12 86 100 100 100 100 100 100 100 100 100 100 100 100 100 100 100 100 100 100 100 100 100 100 100 100 100 100 100 100 100 100 100 100 100 100 100 100 100
93 97 100 100 97 96 100 100 100 100 100 100 100 100 100 100 100 100 100 100 100 100 100 100 100 100 100 100 100 100 100 100 100 100 100 100 100 100 100 100 100 100 100 100
99 100 100 100 100 100 100 100 100 100 100 100 100 100 100 100 100 100 100 100 100 100 100 100 100 100 100 100 100 100 100 100 100 100 100 100 100 100 100 100 100 100 100 100
100 100 100 100 100 100 100 100 100 100 100 100 100 100 100 100 100 100 100 100 100 100 100 100 100 95 92 81 81 90 89 100 100 100 100 100 100 100 100 100 100 100 100 100
100 100 100 100 100 100 100 100 100 100 100 100 100 100 100 100 100 100 100 100 100 100 100 100 98 83 87 9 12 66 56 62 96 99 100 100 100 100 100 100 100 100 100 100
100 100 100 100 100 100 100 100 100 100 100 100 100 100 100 100 100 100 100 100 100 100 99 73 99 90 100 50 78 62 52 67 95 98 90 65 91 100 100 100 100 100 100 100

GFSCGP_prec_cloud_108.txt.gz
Cloud_Cover
0 0 0 0 0 0 0 0 4 5 1 0 5 5 13 100 59 95 63 48 84 5 6 73 100 100 100 100 100 100 100 100 98 83 100 100 68 5 5 5 5 57 98 100
27 3 0 0 0 0 0 0 0 5 5 0 4 5 5 34 5 14 15 5 5 23 88 99 99 98 100 100 100 100 100 98 47 64 98 89 12 4 5 5 9 99 90 100
72 64 9 38 0 0 0 0 0 0 0 0 0 27 88 54 10 6 7 5 5 5 5 4 5 10 53 46 38 5 5 5 5 9 4 4 5 5 5 47 57 90 98 46
98 46 46 68 92 5 4 0 0 0 4 0 0 5 5 28 16 5 5 5 1 1 0 0 2 5 5 11 5 0 2 4 5 29 95 99 35 88 78 88 92 8 100 100
77 100 100 91 52 100 53 6 5 5 1 0 0 0 5 3 6 5 3 3 0 0 0 0 0 0 0 1 4 74 100 100 100 100 100 99 56 25 69 8 96 100 100 100
100 100 100 98 46 100 100 100 100 100 100 38 2 2 0 0 0 5 5 79 32 5 4 2 4 22 28 37 79 100 100 100 100 100 100 100 100 100 100 100 100 100 100 100
100 100 100 100 100 100 100 100 100 99 85 18 2 5 10 0 0 9 65 97 96 84 49 48 9 5 33 97 100 100 85 71 74 97 100 100 100 100 100 100 100 100 100 100
100 100 100 100 100 100 100 100 100 100 100 100 30 24 72 6 97 28 43 4 5 91 100 99 50 14 5 31 79 92 79 83 92 100 100 100 100 100 56 16 100 100 100 100
100 100 100 100 100 100 91 100 100 100 100 100 100 100 100 72 100 100 79 9 23 6 6 6 57 20 22 51 91 83 94 100 100 100 100 100 100 100 73 16 40 100 100 100
100 100 100 100 100 100 100 100 100 100 100 100 100 100 100 97 100 98 92 62 52 28 7 5 5 13 62 75 90 78 100 100 100 100 100 100 100 100 46 97 61 100 100 100
100 100 100 100 100 100 100 100 100 100 100 100 100 100 100 100 90 68 11 5 7 5 5 5 11 39 76 95 93 100 100 100 100 100 100 100 100 100 99 41 14 100 100 99
100 100 100 100 100 100 100 100 100 100 100 100 100 100 100 100 100 43 5 5 5 15 28 27 27 39 57 68 100 93 100 100 100 100 100 100 100 100 100 99 100 100 100 100
100 100 100 100 100 100 100 100 100 100 100 100 100 100 95 23 5 12 7 5 22 55 38 23 29 68 44 100 100 100 100 100 100 100 100 100 100 100 100 100 100 100 100 100
100 100 100 100 100 100 100 100 100 99 47 98 99 49 6 13 4 14 62 14 52 72 51 37 80 97 100 100 100 100 100 100 100 100 100 100 100 100 100 100 100 100 100 100
100 100 100 100 100 100 100 100 100 100 100 51 6 0 5 0 0 26 64 14 52 66 67 100 99 100 100 100 100 100 100 100 100 100 100 100 100 100 100 100 100 100 100 100
100 100 100 100 100 100 100 99 16 5 5 0 0 0 0 4 9 98 85 60 66 95 100 100 100 100 100 100 100 100 100 100 100 100 100 100 100 100 100 100 100 100 100 100
100 100 100 100 100 68 7 56 5 3 24 62 70 17 100 92 85 100 100 86 98 100 100 100 100 100 100 100 100 100 100 100 100 100 100 100 100 100 100 100 100 100 100 100
100 100 49 88 99 20 33 69 40 64 63 93 84 80 70 99 100 100 100 100 100 100 100 100 100 100 100 100 100 100 100 100 100 100 100 100 100 100 100 100 100 100 100 100
100 100 100 85 29 3 5 66 76 86 98 83 86 100 100 98 99 100 100 100 100 100 100 100 100 100 100 100 100 100 100 100 100 100 100 100 100 100 100 100 100 100 100 100
84 67 100 100 100 77 98 97 100 98 100 95 100 100 100 100 100 100 100 100 100 100 100 100 100 100 100 100 100 100 100 100 100 100 100 100 100 100 100 100 100 100 100 100
100 100 100 100 100 100 90 84 98 100 100 100 100 100 100 100 100 100 100 100 100 100 100 100 100 100 100 100 100 100 100 100 100 100 100 100 100 100 100 100 100 100 100 100
100 100 100 100 100 99 92 100 100 100 100 100 100 100 100 100 100 100 100 100 100 100 100 100 100 100 100 100 100 100 100 100 100 100 100 100 100 100 100 100 100 100 100 100
96 91 100 100 100 100 100 100 100 100 100 100 100 100 100 100 100 100 100 100 100 100 100 100 100 100 100 100 100 100 100 100 100 100 100 100 100 100 100 100 100 100 100 100
100 100 100 100 100 100 100 100 100 100 100 100 100 100 100 100 100 100 100 100 100 100 100 100 100 100 100 100 100 100 100 100 100 100 100 100 100 100 100 100 100 100 100 100
100 100 100 100 100 100 100 100 100 100 100 100 100 100 100 100 100 100 100 100 100 100 100 100 100 100 100 100 32 100 97 100 100 100 100 100 100 100 100 100 100 100 100 100
100 100 100 100 100 100 100 100 100 100 100 100 100 100 100 100 100 100 100 100 100 100 100 100 100 94 96 94 85 23 55 70 88 89 100 100 100 100 100 100 100 100 100 100

GFSCGP_prec_cloud_111.txt.gz
Cloud_Cover
3 2 0 0 0 0 4 6 9 5 5 2 0 0 0 0 5 5 5 96 100 60 19 5 5 5 5 5 31 62 100 100 100 100 100 100 100 100 100 100 100 100 100 100
31 8 0 0 1 5 0 2 7 5 2 3 0 0 0 0 0 5 5 5 6 46 14 22 5 5 5 5 6 66 23 16 61 58 88 96 100 100 100 100 100 100 100 100
22 6 1 2 1 4 5 5 4 4 5 89 4 0 0 0 0 0 5 86 6 5 21 50 9 5 18 16 36 5 12 24 11 5 5 10 25 18 38 65 99 100 100 90
100 69 100 98 90 33 97 33 88 91 80 48 35 18 36 4 0 0 0 5 11 89 88 30 17 37 32 5 5 5 4 4 5 5 24 69 26 16 32 10 3 10 24 15
8 56 9 95 7 97 100 100 100 100 100 98 5 64 0 22 96 4 78 83 38 3 30 5 5 5 4 3 0 0 0 0 0 0 20 24 11 1 5 4 4 99 100 98
81 100 100 100 98 100 100 100 100 100 100 100 21 95 32 100 60 90 70 55 46 0 0 0 0 0 0 0 0 0 0 0 4 46 67 96 100 87 41 84 61 85 100 100
98 99 100 97 86 99 100 100 100 100 100 100 100 100 94 100 97 98 36 95 28 50 6 5 5 1 0 0 0 0 0 7 38 71 78 89 90 100 100 94 100 100 71 96
100 100 99 100 100 100 100 100 100 100 100 100 100 100 100 44 17 83 67 57 100 96 78 13 5 2 0 0 0 1 26 41 55 89 100 96 100 100 100 98 30 0 5 16
100 100 100 56 83 96 100 100 100 100 100 100 100 100 91 98 100 100 100 100 100 100 100 84 41 5 1 0 26 83 100 89 100 100 100 100 100 100 100 100 98 15 0 0
100 100 100 95 98 100 100 100 100 100 100 100 100 100 100 86 100 100 100 100 100 100 100 86 67 20 5 6 62 93 100 100 100 100 96 100 100 100 100 100 100 48 0 0
100 100 100 96 95 100 100 100 100 100 100 100 100 100 100 100 100 100 100 100 100 99 50 7 5 6 13 26 80 94 78 100 98 100 97 100 100 100 100 100 100 100 84 65
100 100 99 100 91 100 100 100 100 100 100 100 100 100 100 100 100 100 100 100 100 100 91 26 6 29 40 66 98 100 99 100 96 100 100 100 100 100 100 100 100 100 100 100
100 100 100 100 100 100 100 100 100 100 100 100 100 100 100 100 100 94 71 99 95 89 42 6 22 47 43 97 100 100 100 100 100 100 100 100 100 100 100 100 100 100 100 100
100 100 100 100 100 100 100 100 100 100 100 100 100 100 100 100 100 100 90 100 82 6 36 64 60 62 69 100 100 100 99 100 100 100 100 100 100 100 100 100 100 100 100 100
100 100 100 100 100 100 100 100 100 100 100 79 100 92 100 100 78 16 32 13 6 58 90 83 81 62 100 100 100 100 100 100 100 100 100 100 100 100 100 100 100 100 100 100
100 100 100 100 100 100 100 100 100 100 100 100 100 100 99 5 4 4 6 12 95 100 100 89 76 94 100 100 100 100 100 100 100 100 100 100 100 100 100 100 100 100 100 100
100 100 100 100 100 99 98 100 100 100 52 8 4 4 100 58 82 87 100 100 100 100 100 98 100 100 100 100 100 100 100 100 100 100 100 100 100 100 100 100 100 100 100 100
100 100 100 100 100 52 22 91 32 5 5 26 75 100 70 84 100 100 100 100 100 100 100 100 100 100 100 100 100 100 100 100 100 100 100 100 100 100 100 100 100 100 100 100
100 100 100 100 100 76 24 46 30 88 10 44 88 100 100 100 100 100 100 100 100 100 100 100 100 100 100 100 100 100 100 100 100 100 100 100 100 100 100 100 100 100 100 100
100 91 95 100 100 100 98 79 88 72 53 100 97 100 100 91 100 100 100 100 100 100 100 100 100 100 100 100 100 100 100 100 100 100 100 100 100 100 100 100 100 100 100 100
100 100 100 100 100 100 100 88 85 99 99 92 99 100 100 100 100 100 100 100 100 100 100 100 100 100 100 100 100 100 100 100 100 100 100 100 100 100 100 100 100 100 100 100
95 100 100 100 100 100 74 96 96 100 96 100 100 100 100 100 100 100 100 100 100 100 100 100 100 100 100 100 100 100 100 100 100 100 100 100 100 100 100 100 100 100 100 100
85 81 100 82 100 97 100 99 100 100 100 100 100 100 100 100 100 100 100 100 100 100 100 100 100 100 100 100 100 100 100 100 100 100 100 100 100 100 100 100 100 100 100 100
57 54 92 94 100 100 100 100 100 100 100 100 100 100 100 100 100 100 100 100 100 100 100 100 100 100 100 100 100 100 100 100 100 100 100 100 100 100 100 100 100 100 100 100
92 84 100 97 100 100 100 100 100 100 100 100 100 100 100 100 100 100 100 100 100 100 100 100 100 100 100 100 100 97 93 100 100 100 100 100 100 100 100 100 100 100 100 100
100 99 100 100 100 100 100 100 100 100 100 100 100 100 100 100 100 100 100 100 100 100 100 100 100 100 100 100 100 100 100 100 89 100 100 100 100 100 100 100 100 100 100 100

GFSCGP_prec_cloud_114.txt.gz
Cloud_Cover
0 0 5 0 5 7 4 5 1 0 5 21 80 46 36 8 5 0 5 5 3 0 5 0 0 5 43 99 7 5 5 41 76 54 100 93 100 100 100 100 100 100 100 100
7 2 2 5 5 37 42 25 22 53 5 5 1 58 0 0 0 0 0 4 4 5 1 0 0 0 0 1 88 100 90 5 5 5 5 5 5 5 5 37 87 100 100 100
70 4 5 50 45 74 24 47 4 15 5 39 94 78 5 0 0 0 0 14 94 99 4 2 1 0 5 4 5 6 100 98 50 3 1 0 5 5 5 4 5 12 59 93
18 4 28 73 14 43 98 12 82 99 100 88 44 96 96 2 1 11 0 96 19 2 0 0 0 0 0 16 51 8 35 90 100 95 26 35 45 8 12 5 5 24 75 12
4 36 12 48 7 58 97 99 93 5 9 85 46 93 23 98 78 88 100 8 0 0 0 0 0 0 0 0 83 88 74 68 47 38 24 36 29 5 0 0 0 0 0 16
25 8 90 93 27 97 94 7 8 46 78 88 12 100 38 100 100 100 100 30 0 0 5 1 0 0 0 0 0 6 83 97 59 12 44 14 78 100 61 17 2 0 0 0
23 19 6 100 79 69 16 53 87 50 94 84 98 100 84 100 100 100 100 100 54 9 3 5 0 0 0 0 0 0 0 0 3 15 49 93 100 100 100 99 68 30 4 4
100 23 87 100 61 48 99 100 100 100 100 100 100 100 100 99 100 100 100 100 100 100 77 10 5 5 5 0 0 0 0 7 25 97 99 100 100 100 100 97 94 70 48 1
98 96 22 100 97 100 100 92 100 100 95 91 100 100 100 100 100 100 100 100 100 100 97 85 76 5 5 8 15 5 6 6 44 100 100 98 100 100 100 100 100 100 91 36
82 88 100 99 82 70 100 95 92 100 100 97 86 100 100 100 100 100 100 100 100 100 52 31 84 44 88 90 82 8 50 70 61 100 92 99 100 100 100 100 100 100 100 96
100 93 63 92 71 100 100 100 76 100 100 100 100 100 100 100 100 100 100 100 100 100 100 100 98 72 100 100 100 100 38 39 41 100 100 100 100 100 100 100 100 100 100 100
79 100 100 78 100 79 100 56 87 100 100 100 100 100 100 100 100 100 100 100 100 100 100 100 100 100 100 100 95 75 39 41 79 100 100 100 100 100 100 100 100 100 100 100
75 100 98 100 100 97 42 98 100 100 100 100 100 100 100 100 100 100 100 100 100 100 100 100 100 100 100 100 82 43 79 48 53 100 100 100 100 100 100 100 100 100 100 96
100 99 99 100 100 100 100 100 100 100 100 100 100 100 100 100 100 100 100 100 100 100 100 100 100 100 95 100 100 36 87 67 63 100 100 100 100 100 100 100 100 100 100 100
100 100 100 100 100 100 100 100 100 98 100 96 100 100 100 100 100 99 100 100 15 36 91 100 100 100 100 100 56 75 76 100 100 100 100 100 100 100 100 100 100 100 100 100
100 100 100 100 100 100 89 100 100 100 100 100 100 100 100 100 100 100 100 100 100 100 100 100 100 88 100 82 100 100 100 100 100 100 100 100 100 100 100 100 100 100 100 100
100 73 93 100 99 100 75 93 71 100 100 99 100 100 100 100 99 85 74 59 71 100 100 100 95 97 100 100 100 100 100 100 100 100 100 100 100 100 100 100 100 100 100 100
100 78 35 83 85 25 83 44 100 100 100 100 92 29 52 74 98 59 97 100 98 100 98 94 99 100 100 100 100 100 100 100 100 100 100 100 100 100 100 100 100 100 100 100
100 98 100 40 84 100 98 100 100 100 100 76 97 79 94 88 57 100 100 100 100 92 96 100 100 100 100 100 100 100 100 100 100 100 100 100 100 100 100 100 100 100 100 100
100 100 100 99 100 71 73 93 100 80 49 70 86 100 100 100 99 100 100 97 94 100 100 100 100 100 100 100 100 100 100 100 100 100 100 100 100 100 100 100 100 100 100 100
100 100 100 59 96 89 78 54 88 93 58 100 91 92 100 99 94 100 91 100 100 100 100 100 100 100 100 100 100 100 100 100 100 100 100 100 100 100 100 100 100 100 100 100
100 100 84 90 100 97 28 80 78 90 98 80 100 100 100 99 100 100 100 100 100 100 100 100 100 100 100 100 100 100 100 100 100 100 100 100 100 100 100 100 100 100 100 100
79 56 99 96 98 99 99 99 100 98 100 100 100 100 100 100 100 100 100 100 100 100 100 100 100 100 100 100 100 100 100 100 100 100 100 100 100 100 100 100 100 100 100 100
8 5 87 52 96 100 100 100 100 100 100 100 100 100 100 100 100 100 100 100 100 100 100 100 100 100 100 100 100 100 100 100 100 100 100 100 100 100 100 100 100 100 100 100
90 30 97 86 96 100 100 100 100 100 100 100 100 100 100 100 100 100 100 100 100 100 100 100 100 100 100 100 100 100 100 100 100 100 100 100 100 100 100 100 100 100 100 100
94 93 95 100 82 96 100 100 100 100 100 100 100 100 100 100 100 100 100 100 100 100 100 100 100 100 100 100 100 100 100 100 100 100 79 65 100 100 100 100 100 100 100 100

GFSCGP_prec_cloud_117.txt.gz
Cloud_Cover
99 16 11 100 64 1 4 0 0 0 3 11 5 0 2 5 5 62 62 5 4 18 6 0 0 0 0 4 6 0 5 5 5 5 5 12 78 100 100 96 100 100 100 100
26 5 8 22 71 5 5 3 0 0 0 0 0 0 0 3 5 31 100 91 36 100 38 6 1 0 0 1 1 0 0 0 2 5 2 2 5 28 5 26 42 62 36 16
2 0 5 5 16 98 80 100 41 44 36 4 0 0 0 0 0 4 3 9 22 100 92 59 0 0 0 0 0 0 0 0 2 0 0 0 3 57 79 21 5 2 2 5
5 5 25 14 62 13 4 35 100 69 56 5 0 3 0 0 0 0 73 98 100 100 100 35 0 0 0 0 0 0 0 0 0 0 2 1 0 0 5 5 5 0 0 0
0 0 0 69 10 4 7 99 6 13 95 100 5 18 0 0 0 88 100 100 100 95 99 32 10 0 0 0 0 0 0 0 0 0 0 0 5 5 5 5 18 34 5 4
1 2 3 0 5 5 7 100 9 72 66 3 0 22 0 3 8 100 92 98 100 100 94 100 100 38 15 5 0 0 0 0 0 0 0 0 0 27 48 14 9 5 4 3
5 2 5 97 78 67 98 92 39 13 22 0 3 31 3 4 24 90 70 59 96 100 100 100 100 93 43 5 1 0 1 0 0 0 0 4 72 86 100 90 91 74 43 6
5 5 22 6 9 64 100 100 74 33 5 3 2 5 88 99 100 82 100 100 70 100 100 100 100 80 36 46 20 4 3 5 5 5 5 5 78 100 100 100 100 100 100 74
55 5 0 5 5 10 16 99 100 33 100 33 57 75 98 100 100 100 100 100 100 100 100 100 100 100 91 91 71 6 5 5 5 5 18 34 31 66 100 100 100 100 100 100
62 80 4 5 0 4 56 92 79 92 100 64 6 25 100 100 100 100 100 100 100 100 100 95 99 100 100 100 78 65 81 95 71 27 44 56 52 75 96 100 100 100 100 100
49 6 23 52 49 10 64 78 96 100 100 100 35 49 5 100 100 100 100 100 100 68 18 87 99 100 100 100 100 100 100 92 98 100 96 69 90 95 95 100 100 100 100 100
42 4 47 100 22 5 10 19 100 100 98 87 9 31 45 100 100 97 98 5 38 100 100 100 100 100 100 100 100 100 100 100 100 100 100 96 100 100 100 100 100 100 100 100
48 32 61 21 33 84 39 74 100 100 100 100 98 40 100 100 92 92 88 68 100 100 100 100 56 98 100 100 100 100 100 100 100 100 99 98 100 100 100 100 100 100 100 100
47 80 100 100 100 92 63 100 100 100 100 100 100 100 100 100 67 99 98 98 100 100 100 100 100 100 100 100 100 100 100 100 100 100 100 100 100 100 100 100 100 100 100 100
83 100 100 100 100 100 100 100 100 100 100 100 100 100 100 100 99 100 100 100 100 100 100 100 100 100 100 100 82 83 100 98 100 95 97 100 100 100 100 100 100 100 100 100
98 100 100 100 100 100 100 100 100 100 100 100 100 100 100 42 17 63 100 39 21 100 100 100 100 100 100 100 100 100 100 81 100 100 100 100 100 100 100 100 100 100 100 100
82 100 94 87 85 25 34 86 97 100 100 61 23 68 99 100 100 100 55 33 60 100 100 100 100 96 84 90 92 86 87 95 100 100 100 100 100 100 100 100 100 100 100 100
90 85 100 100 100 40 100 100 100 100 65 5 6 18 36 90 100 100 98 92 100 100 100 92 75 74 98 99 88 96 98 100 100 100 100 100 100 100 100 100 100 100 100 100
91 42 46 100 100 100 98 100 100 100 100 100 100 81 54 64 22 100 100 100 86 74 83 90 92 100 100 100 100 100 100 100 100 100 100 100 100 100 100 100 100 100 100 100
52 100 61 100 100 100 100 98 7 34 46 6 5 6 94 98 58 98 100 84 76 83 76 99 100 100 100 100 100 100 100 100 100 100 100 100 100 100 100 100 100 100 100 100
90 100 100 100 100 100 99 20 67 71 21 100 42 30 90 93 82 100 93 100 97 100 100 100 100 100 100 100 100 100 100 100 100 100 100 100 100 100 100 100 100 100 100 100
100 100 100 100 100 87 6 23 69 74 95 58 96 99 100 100 91 88 100 100 100 100 100 100 100 100 100 100 100 100 100 100 100 100 100 100 100 100 100 100 100 100 100 100
100 100 100 100 70 86 83 84 87 100 99 99 100 100 100 100 100 100 100 100 100 100 100 100 100 100 100 100 100 100 100 100 100 100 100 100 100 100 100 100 100 100 100 100
100 100 100 31 52 100 100 100 100 100 100 100 100 100 100 100 100 100 100 100 100 100 100 100 100 100 100 100 100 100 100 100 100 100 100 100 100 100 100 100 100 100 100 100
100 100 22 84 95 100 100 100 100 100 100 100 100 100 100 100 100 100 100 100 100 100 100 100 100 100 100 100 100 100 100 100 100 100 100 100 100 100 100 100 100 100 100 100
100 62 82 86 30 75 76 100 100 100 100 100 100 100 100 100 100 100 100 100 100 100 100 100 100 100 100 100 100 100 100 100 100 100 100 100 100 100 100 100 100 100 100 100

GFSCGP_prec_cloud_120.txt.gz
Cloud_Cover
72 91 100 100 47 65 5 5 2 5 0 0 0 0 0 0 0 0 5 5 83 100 98 0 0 0 0 0 4 0 3 3 0 0 0 3 0 0 4 4 12 100 100 100
95 5 6 5 5 6 2 5 5 4 3 3 1 0 0 0 0 2 2 100 100 100 74 5 6 0 0 0 5 37 100 59 1 0 0 0 0 0 0 3 6 86 100 100
45 42 10 5 5 5 5 10 5 3 3 5 5 1 0 2 0 0 0 11 100 100 65 8 99 16 1 0 3 55 100 100 41 5 0 0 0 0 0 0 1 4 8 86
29 78 6 9 5 7 5 11 5 5 5 4 2 56 0 0 0 0 0 0 9 87 50 54 30 71 3 0 0 5 25 11 5 5 4 0 0 0 0 0 0 0 0 0
5 3 2 5 10 5 5 13 97 7 5 23 0 70 0 0 0 0 0 0 0 0 16 0 88 18 24 23 89 99 100 100 100 4 0 2 5 0 0 0 0 0 0 0
5 2 1 0 1 4 34 93 96 23 31 28 0 17 0 64 38 2 5 81 85 32 11 55 100 100 100 100 100 100 79 16 44 5 1 0 0 0 0 0 14 12 3 2
28 22 18 5 5 18 86 82 92 65 86 44 0 0 59 100 90 77 80 41 100 100 100 100 100 100 100 100 100 84 99 47 29 5 5 5 5 3 4 39 48 100 93 39
4 5 5 5 0 5 5 96 96 95 59 1 0 0 34 100 100 94 100 99 90 100 100 100 100 100 100 100 100 99 52 28 100 100 51 6 8 53 93 72 93 99 96 99
8 3 0 0 0 0 0 4 5 66 24 55 0 62 100 100 97 100 100 100 100 100 100 100 100 100 100 100 100 73 94 55 89 100 100 100 100 100 100 100 97 100 99 100
5 8 1 2 0 0 1 4 6 78 71 72 4 55 31 100 100 100 100 100 100 100 100 100 100 100 100 100 100 100 12 99 100 100 100 100 100 100 100 100 100 100 100 100
99 72 3 0 0 0 4 5 5 13 88 72 8 12 42 4 100 100 100 100 100 100 100 100 100 100 100 100 99 78 96 100 100 100 100 100 100 100 100 100 100 100 100 100
99 100 39 3 5 0 4 7 45 39 45 46 86 5 73 46 5 100 100 96 51 66 100 100 100 100 100 74 100 72 100 100 100 100 100 100 100 100 86 100 100 100 100 100
100 100 21 50 20 5 19 81 100 100 100 100 99 27 100 32 10 9 100 100 100 46 93 100 96 100 100 100 100 100 100 100 100 99 90 100 100 100 89 100 100 100 100 100
100 99 95 64 53 59 75 100 100 100 100 99 57 99 100 94 47 5 40 95 100 100 100 100 100 100 100 100 100 100 100 100 73 78 62 76 100 100 100 100 100 100 100 100
100 100 100 100 92 88 95 100 100 100 100 65 94 46 14 39 5 74 83 51 43 52 89 100 100 100 100 100 100 100 95 97 71 72 78 97 99 98 100 100 100 100 100 100
100 100 90 99 100 55 99 100 99 94 82 100 93 92 100 81 59 49 100 100 91 100 100 100 100 100 100 100 92 67 80 70 78 90 100 100 100 100 100 100 100 100 100 100
100 100 100 16 100 62 100 100 100 97 90 28 50 79 57 77 85 87 76 76 100 100 100 100 100 100 100 100 100 100 92 98 90 99 100 100 100 100 100 100 100 100 100 100
100 100 100 96 100 94 61 29 100 78 40 11 26 98 87 71 75 75 84 100 100 100 100 100 100 95 94 57 27 66 60 80 92 100 100 100 100 100 100 100 100 100 100 100
100 100 52 66 42 20 9 100 73 39 38 100 72 60 100 100 100 100 100 100 99 100 100 100 100 95 68 74 93 98 99 99 100 100 100 100 100 100 100 100 100 100 100 100
100 100 78 43 91 63 100 30 39 59 100 100 100 100 100 87 89 94 100 100 94 100 98 86 100 79 99 100 100 100 100 100 100 100 100 100 100 100 100 100 100 100 100 100
100 100 100 100 100 100 97 94 100 100 90 26 5 5 96 85 38 83 84 98 100 99 85 97 100 100 100 100 100 100 100 100 100 100 100 100 100 100 100 100 100 100 100 100
100 100 100 100 100 94 92 63 62 48 7 43 44 46 100 100 100 87 98 100 100 100 100 100 100 100 100 100 100 100 100 100 100 100 100 100 100 100 100 100 100 100 100 100
100 100 100 100 100 100 70 53 60 78 78 66 43 89 97 100 100 100 100 100 100 100 100 100 100 100 100 100 100 100 100 100 100 100 100 100 100 100 100 100 100 100 100 100
100 98 100 100 100 92 100 100 100 15 74 28 100 83 100 100 100 100 100 100 100 100 100 100 100 100 100 100 100 100 100 100 100 100 100 100 100 100 100 100 100 100 100 100
100 100 100 100 98 100 100 92 99 86 67 98 99 100 100 96 88 100 100 100 100 100 100 100 100 100 100 100 100 100 100 100 100 100 100 100 100 100 100 100 100 100 100 100
100 100 100 98 73 9 48 91 9 52 94 78 100 100 100 100 100 100 100 100 100 100 100 100 100 100 100 100 100 100 100 100 100 100 100 100 100 100 100 100 100 100 100 100

GFSCGP_prec_cloud_123.txt.gz
Cloud_Cover
100 100 100 100 100 23 5 5 10 46 12 8 5 10 14 28 27 100 39 5 1 1 4 0 0 0 4 3 0 4 2 0 0 0 0 0 0 0 0 0 0 0 76 100
100 41 100 100 100 100 100 100 78 5 5 6 19 5 5 12 14 3 1 4 0 0 4 16 8 6 24 32 2 0 0 0 0 44 4 0 0 0 0 0 0 0 1 47
100 100 100 100 100 100 100 94 98 14 30 5 5 2 5 4 0 0 0 0 0 0 0 2 86 78 41 99 29 5 5 14 23 0 76 47 3 0 1 0 0 0 0 5
100 100 100 100 100 100 100 100 53 12 9 5 36 18 5 0 0 0 0 0 0 0 0 3 6 5 100 98 89 100 98 69 87 4 5 81 100 92 17 5 4 2 0 0
100 100 100 100 82 17 92 97 78 14 5 5 15 4 5 0 45 6 1 7 42 57 58 80 88 95 69 100 100 100 93 96 100 98 51 26 74 100 100 97 14 5 4 1
100 10 34 96 100 100 100 97 15 8 22 86 0 38 0 25 99 70 25 40 95 100 100 100 100 100 100 100 100 100 100 99 91 44 5 9 5 7 60 87 99 67 56 5
100 100 94 12 29 41 8 35 54 64 20 10 1 5 5 92 100 90 97 58 86 100 100 100 100 100 100 100 100 100 100 100 100 100 100 81 44 68 99 100 100 98 66 92
100 100 100 100 98 98 13 12 26 14 77 5 4 4 5 90 99 100 79 74 100 100 100 100 100 100 100 96 99 100 100 96 100 100 100 100 100 100 100 100 100 100 100 100
97 100 100 100 100 64 20 5 5 65 34 17 0 46 72 100 100 76 50 83 98 100 100 100 100 100 100 100 100 100 100 99 100 100 100 100 100 100 100 100 100 100 100 100
100 55 50 100 98 84 7 5 21 53 83 72 2 3 5 95 100 100 100 96 100 100 100 100 100 100 100 100 99 91 100 100 100 100 100 100 100 100 100 100 100 100 100 100
33 67 62 20 86 50 9 5 5 55 66 5 15 1 5 14 25 100 65 21 100 100 100 98 100 100 100 100 100 100 100 100 96 100 100 100 100 100 100 100 100 100 100 100
95 81 31 64 94 65 96 27 12 100 11 40 98 7 96 100 65 94 5 5 100 100 100 100 100 100 100 100 100 100 100 100 100 100 92 100 100 100 100 100 100 100 100 100
72 26 74 5 99 43 100 97 79 88 29 91 76 72 100 38 87 83 5 5 91 100 100 83 54 75 100 100 100 94 100 100 100 100 100 99 100 100 100 100 100 100 100 100
82 6 5 5 91 62 97 92 99 100 97 25 81 93 100 98 72 66 66 7 43 100 100 99 77 89 100 100 100 100 100 100 100 100 100 100 100 100 80 90 91 92 96 100
100 50 63 45 53 100 100 99 100 100 65 99 93 99 41 6 76 100 81 63 87 91 98 100 100 98 100 100 100 98 100 100 100 94 97 87 78 73 69 75 85 89 96 99
100 71 54 100 100 100 61 27 65 100 85 46 96 81 53 18 6 60 100 100 94 100 100 100 83 100 100 100 100 60 82 99 87 100 100 80 87 84 95 100 100 100 100 100
100 100 100 95 98 100 99 83 73 94 28 9 38 47 100 85 38 39 62 80 100 100 100 98 80 95 100 100 100 100 100 99 76 53 96 100 100 100 100 100 100 100 98 100
100 100 100 100 100 76 30 30 98 18 36 88 77 40 47 59 100 98 77 92 100 100 89 91 100 100 100 100 100 100 100 100 100 79 88 98 100 100 99 100 100 100 100 100
100 100 100 100 98 14 9 100 34 5 22 86 28 66 94 100 99 98 87 83 78 42 47 88 100 100 100 100 100 100 100 100 100 100 100 100 100 100 100 100 100 100 100 100
100 100 100 100 81 8 100 96 34 97 94 5 5 80 98 100 100 75 81 8 45 17 80 99 100 99 100 100 100 100 100 100 100 100 100 100 100 100 100 100 100 100 100 100
100 100 100 100 84 50 100 100 100 65 5 5 12 61 100 78 47 83 95 68 66 61 92 100 98 100 100 100 100 100 100 100 100 100 100 100 100 100 100 100 100 100 100 100
100 100 100 100 100 100 100 100 94 29 18 6 46 21 8 97 96 100 100 100 87 100 100 100 100 100 100 100 100 100 100 100 100 100 100 100 100 100 100 100 100 100 100 100
100 100 100 100 100 100 100 100 100 30 11 91 66 38 92 100 100 100 100 100 100 99 100 100 100 100 100 100 100 100 100 100 100 100 100 100 100 100 100 100 100 100 100 100
100 100 100 100 100 100 100 100 20 5 74 29 8 8 88 71 94 100 99 97 100 100 100 100 100 100 100 100 100 100 100 100 100 100 100 100 100 100 100 100 100 100 100 100
100 100 100 100 100 100 100 77 65 100 100 96 64 76 74 86 96 95 100 100 100 100 100 100 100 100 100 100 100 100 100 100 100 100 100 100 100 100 100 100 100 100 100 100
100 95 84 100 100 100 100 34 20 100 100 95 30 95 100 96 87 99 90 94 100 100 100 100 100 100 100 100 100 100 100 100 100 100 100 100 100 100 100 100 100 100 100 100

GFSCGP_prec_cloud_126.txt.gz
Cloud_Cover
77 19 37 100 100 100 97 99 100 100 100 100 100 100 100 100 84 5 5 8 72 96 26 14 7 5 5 7 6 1 0 3 0 0 0 0 0 0 0 0 0 0 0 5
90 6 52 100 100 68 19 87 99 97 61 17 24 82 100 99 42 12 5 5 5 13 11 8 4 0 0 2 5 6 19 67 3 0 0 0 0 0 0 0 0 0 0 0
100 98 100 100 100 100 100 100 100 100 100 100 90 68 67 100 77 8 45 49 17 26 48 63 78 66 26 2 17 40 56 68 85 10 69 4 0 0 5 4 2 0 0 0
87 100 100 100 100 100 100 100 100 100 100 94 44 13 28 53 90 88 6 5 38 70 92 99 100 100 98 52 44 3 57 98 100 88 88 11 56 32 1 5 5 4 0 0
100 100 100 100 100 100 100 100 100 100 100 100 94 49 60 65 69 66 36 28 46 75 92 100 100 100 100 100 100 94 42 5 4 94 97 100 100 71 94 50 37 12 7 28
100 11 62 84 57 99 100 100 100 100 98 77 100 32 96 17 5 31 36 31 9 8 18 46 86 100 100 100 100 100 100 94 24 100 88 100 100 100 100 100 100 100 100 100
100 100 100 100 78 100 100 100 100 100 100 100 50 6 67 5 8 4 18 62 18 56 74 80 100 92 100 98 100 100 100 100 100 100 90 100 100 100 100 100 100 100 100 100
100 100 100 98 72 100 100 59 95 92 82 85 38 21 5 5 2 5 98 99 23 10 65 40 66 100 100 99 98 100 100 100 100 84 96 97 100 100 100 100 100 100 100 100
100 93 100 100 99 32 58 9 51 78 5 73 6 0 5 98 99 51 97 86 97 100 33 19 50 99 100 100 100 98 100 92 78 93 98 100 100 100 100 100 100 100 100 100
100 100 100 100 100 100 42 40 8 36 7 64 2 0 2 90 100 62 35 88 94 100 88 4 97 100 100 100 100 100 100 100 98 100 99 100 100 100 100 100 100 100 100 100
100 100 100 100 100 100 100 87 86 99 93 87 39 1 0 4 0 6 37 76 82 100 98 16 90 100 100 100 98 100 100 100 100 100 100 100 100 100 100 100 100 100 100 100
100 100 33 59 100 100 100 96 100 100 27 20 71 12 3 5 4 5 54 89 85 99 25 5 20 100 100 100 100 100 100 100 100 100 100 100 100 100 99 100 100 100 100 100
100 100 100 93 64 100 100 100 100 100 97 7 99 16 5 40 96 48 86 95 100 100 74 12 5 99 100 100 100 100 100 100 100 100 100 100 100 100 94 86 99 100 99 96
100 100 100 100 100 99 34 5 70 100 99 100 28 32 33 82 90 99 100 94 96 100 54 96 59 100 100 100 89 66 92 100 93 100 100 97 84 94 98 100 98 100 96 91
100 84 100 100 100 97 5 6 91 100 100 99 65 10 43 52 100 100 100 99 76 59 92 100 100 100 100 100 90 97 96 80 55 94 96 94 99 100 100 97 100 100 100 97
100 100 100 100 100 100 39 5 57 100 100 63 58 5 5 50 83 34 25 94 77 100 100 99 14 45 71 97 100 100 100 100 100 76 53 100 73 100 100 100 100 100 100 100
98 98 100 100 100 100 30 65 98 100 100 100 15 9 8 58 99 76 55 57 100 100 100 100 75 43 39 40 59 80 100 100 100 100 100 84 99 100 100 100 100 100 100 100
41 98 100 100 100 92 14 67 100 100 100 36 5 6 5 28 86 71 86 94 98 100 95 37 34 14 6 5 5 72 99 100 100 100 100 100 100 100 100 100 100 100 100 100
91 100 100 100 100 29 68 100 100 100 53 84 41 99 84 99 100 100 96 92 96 100 76 84 77 71 70 99 92 100 100 100 100 100 100 100 100 100 100 100 100 100 100 100
100 100 100 100 98 77 89 100 100 100 78 59 23 100 100 100 100 40 73 5 42 54 78 74 69 96 89 91 100 100 100 100 100 100 100 100 100 100 100 100 100 100 100 100
100 100 98 98 99 32 99 100 100 100 78 100 100 100 100 75 5 32 70 96 90 79 99 100 100 97 94 100 100 100 100 100 100 100 100 100 100 100 100 100 100 100 100 100
66 100 100 100 100 91 100 100 99 99 100 100 96 88 34 76 90 100 100 99 96 99 99 98 100 100 100 100 100 100 100 100 100 100 100 100 100 100 100 100 100 100 100 100
100 100 100 100 98 99 99 87 100 100 100 98 73 21 7 58 92 100 100 100 100 89 92 100 100 100 100 100 100 100 100 100 100 100 100 100 100 100 100 100 100 100 100 100
100 100 100 100 96 100 100 100 100 100 85 97 15 12 62 92 99 94 100 100 100 98 100 100 100 100 100 100 100 100 100 100 100 100 100 100 100 100 100 100 100 100 100 100
100 100 99 98 100 100 100 100 100 100 94 46 17 5 10 69 86 96 100 89 100 100 100 100 100 100 100 100 100 100 100 100 100 100 100 100 100 100 100 100 100 100 100 100
100 100 100 100 100 100 100 100 100 100 100 83 31 90 97 88 88 73 91 99 100 100 100 100 100 100 100 100 100 100 100 100 100 100 100 100 100 100 100 99 100 100 100 100

GFSCGP_prec_cloud_129.txt.gz
Cloud_Cover
22 11 5 5 30 49 5 8 5 59 60 9 36 90 100 100 100 100 100 100 100 100 100 100 100 89 35 32 74 15 5 5 2 0 4 4 0 0 0 0 0 0 0 0
82 5 5 5 5 5 5 5 5 5 6 10 20 52 51 100 100 100 100 100 100 100 100 100 100 100 93 77 58 27 6 5 5 5 4 5 5 0 1 0 0 0 0 0
7 50 38 5 5 5 4 4 5 5 13 29 5 15 79 100 100 100 100 100 100 100 100 100 100 100 100 55 22 25 14 3 2 12 82 44 5 2 1 0 2 0 0 0
100 100 32 10 84 23 5 56 12 5 5 60 100 92 100 100 100 100 100 100 100 100 100 100 100 100 100 99 98 100 98 96 84 38 9 5 14 11 94 25 35 33 8 26
74 96 98 100 100 100 100 100 100 100 84 33 98 100 98 100 100 100 100 93 66 71 60 27 20 12 15 82 67 5 21 93 100 97 99 28 5 14 88 99 70 66 100 79
100 92 75 99 100 100 100 100 100 100 74 31 58 5 76 34 35 8 9 16 28 5 5 15 71 29 14 4 4 16 24 44 84 61 54 39 57 65 53 65 70 100 59 85
100 100 100 100 63 77 97 100 100 100 98 82 57 80 100 22 5 5 5 5 5 16 74 81 36 5 0 4 5 5 13 19 26 92 84 88 90 99 100 100 100 100 98 97
100 100 100 100 99 100 100 100 100 100 47 37 38 98 100 96 82 10 6 5 5 63 97 60 3 3 5 5 5 30 6 23 100 100 94 84 100 100 100 100 100 100 100 100
87 89 100 100 100 99 100 100 100 100 100 95 26 25 58 66 77 44 5 12 35 100 99 25 3 5 5 5 9 38 92 100 100 100 100 99 100 100 100 100 100 100 100 99
88 21 96 100 99 100 100 100 100 100 100 84 82 76 78 32 47 96 39 18 37 94 100 83 5 5 5 17 35 49 100 100 100 100 100 100 100 100 100 100 100 100 100 100
100 96 76 97 100 100 100 100 100 100 100 100 66 11 23 5 2 4 6 5 34 77 100 95 5 5 8 41 53 83 99 100 100 100 100 100 100 100 100 100 100 100 100 100
100 100 14 95 100 100 100 100 100 100 100 54 100 11 0 5 5 5 5 12 32 69 100 93 5 5 43 78 96 98 100 100 100 100 100 100 100 100 100 100 100 100 100 100
100 91 9 100 78 100 100 100 100 100 100 32 100 11 6 5 6 39 87 68 87 99 99 64 6 32 79 99 63 28 71 89 92 98 98 96 100 100 100 100 100 100 100 100
100 44 98 57 91 100 100 100 100 100 94 87 18 98 52 8 50 79 95 46 94 100 89 6 21 81 100 35 5 94 100 91 55 78 81 84 98 100 100 100 96 100 100 100
100 98 100 29 86 100 88 52 100 100 100 100 36 77 99 100 95 9 46 50 36 99 68 82 100 88 92 83 30 48 100 100 97 78 69 98 99 100 100 100 100 100 99 98
94 100 100 31 100 100 100 100 100 100 100 92 76 8 100 100 57 5 6 26 81 100 98 100 87 99 78 8 5 5 38 56 97 98 100 100 100 100 100 98 99 100 97 100
90 100 98 14 82 84 96 86 100 90 91 78 53 5 47 74 8 8 32 60 96 100 100 98 94 84 60 46 26 8 68 100 99 100 100 100 100 100 100 100 100 100 97 100
35 100 100 86 98 94 5 37 67 100 100 100 16 13 8 7 91 52 100 80 96 98 98 94 84 56 45 49 18 91 100 100 100 100 100 100 100 100 100 100 100 100 100 100
5 45 100 99 94 8 0 4 74 100 100 100 100 100 95 82 58 98 100 100 100 100 87 83 67 41 40 49 74 98 100 100 100 100 100 100 100 100 100 100 100 100 100 100
100 100 100 100 100 75 1 5 60 74 6 97 100 99 98 98 100 78 100 93 94 86 71 64 47 70 87 100 100 100 100 100 100 100 100 100 100 100 100 100 100 100 100 100
100 100 100 100 100 45 72 30 96 96 68 89 99 65 100 98 96 100 86 85 72 83 94 74 81 76 87 98 100 100 100 100 100 100 100 100 100 100 100 100 100 100 100 100
100 100 100 100 100 96 100 100 91 78 82 53 95 99 100 100 100 97 83 88 96 95 99 89 88 85 96 100 100 100 100 100 100 100 100 100 100 100 100 100 100 100 100 100
100 100 100 100 68 100 100 100 100 78 80 100 99 100 100 100 96 92 100 100 94 92 99 96 86 92 100 100 100 100 100 100 100 100 100 100 100 100 100 100 100 100 100 100
98 100 100 100 100 100 100 100 100 100 100 100 100 100 100 100 94 100 100 100 95 94 98 92 98 100 100 100 100 100 100 100 100 100 100 100 100 100 100 100 100 100 100 100
99 100 100 100 100 100 99 100 100 100 100 100 100 100 93 81 95 88 89 96 97 91 100 99 100 100 100 100 100 100 100 100 100 100 100 100 100 100 100 100 100 100 100 100
100 100 93 100 100 76 100 100 100 100 100 100 100 100 82 19 81 83 84 83 94 99 100 100 100 100 100 100 100 100 100 100 100 100 100 100 100 100 100 100 100 100 100 100

GFSCGP_prec_cloud_132.txt.gz
Cloud_Cover
100 60 23 5 27 96 24 5 5 5 5 5 5 5 80 54 64 80 100 100 100 100 100 100 100 76 88 100 100 72 58 100 96 100 100 100 100 55 62 10 5 5 5 18
80 25 17 53 9 47 31 5 5 4 5 5 5 7 23 8 5 9 5 11 28 41 48 79 98 100 100 100 100 100 100 100 98 46 8 12 5 5 5 5 5 5 4 4
100 52 100 100 47 35 5 11 9 5 3 5 5 5 5 32 24 99 96 100 100 100 100 100 100 99 94 100 100 100 100 100 100 100 100 98 89 65 22 46 81 5 4 0
100 100 69 100 75 9 64 26 26 6 5 5 5 5 4 5 5 45 100 100 100 100 100 100 88 13 24 53 71 45 64 100 100 78 33 55 30 21 5 5 5 9 7 17
100 100 100 95 94 100 100 100 100 100 100 23 69 96 100 79 94 100 100 83 63 81 98 91 78 69 5 5 3 3 2 2 1 1 5 5 5 5 5 5 5 5 5 5
100 100 100 100 100 100 99 18 97 100 100 100 74 41 99 57 100 99 100 71 57 21 6 32 17 4 5 2 0 0 0 0 0 0 1 18 16 8 5 13 5 3 3 4
100 100 100 100 100 100 21 9 34 21 65 88 51 73 100 35 11 5 25 41 38 21 66 82 38 5 2 4 2 5 4 4 5 8 7 27 40 57 48 85 77 87 46 38
100 100 100 100 98 96 99 12 8 5 5 54 38 46 92 97 28 37 51 19 5 35 87 54 1 2 0 5 4 5 1 5 2 28 45 59 70 99 94 100 100 100 100 100
100 100 91 91 100 100 87 46 32 55 57 66 67 75 82 95 8 19 78 100 99 76 98 56 5 3 5 4 5 10 12 8 36 60 68 72 90 100 100 100 100 100 100 100
90 100 78 100 99 100 100 100 92 98 76 98 62 77 100 26 62 100 100 94 100 100 100 56 5 4 4 5 5 10 24 42 68 91 89 84 100 100 100 100 100 100 100 100
100 19 21 45 99 100 69 100 100 100 100 100 96 38 98 84 95 93 23 19 94 100 78 41 50 5 5 5 5 12 50 82 78 81 67 100 100 100 100 100 100 100 100 100
100 74 39 8 86 100 95 62 99 100 100 100 100 18 9 17 37 9 6 11 100 98 39 12 99 41 5 5 5 17 48 79 98 98 88 94 100 100 100 100 100 100 100 100
63 15 2 5 37 75 20 62 100 100 100 99 100 12 64 100 72 97 70 33 100 86 75 36 98 100 90 14 5 43 8 28 58 91 87 98 100 100 100 100 100 100 100 100
14 5 5 5 45 100 100 100 100 100 100 100 100 100 100 100 56 98 40 44 58 12 40 66 35 60 23 48 87 87 5 3 4 6 43 19 47 76 100 100 100 100 100 100
65 52 96 79 100 100 100 100 100 100 100 100 100 100 99 100 100 100 81 67 89 18 42 71 32 81 98 87 47 11 5 5 5 5 29 88 100 100 100 100 99 100 100 100
6 3 6 5 94 91 11 5 99 100 100 100 100 46 100 95 100 100 100 32 78 64 80 58 100 86 100 21 57 5 5 5 5 5 52 83 96 100 100 100 100 100 100 92
100 86 100 26 75 58 45 5 5 5 26 93 50 71 82 14 75 14 49 10 61 86 88 100 100 95 92 33 18 5 5 5 9 39 64 98 100 100 100 100 100 100 100 96
99 98 100 22 93 100 4 5 2 5 3 72 100 90 5 69 5 5 32 70 99 100 100 100 100 100 92 61 5 5 22 68 80 90 85 100 100 100 100 100 100 100 100 100
97 100 100 91 61 34 0 2 4 5 5 4 88 100 81 87 26 92 98 100 100 100 100 100 98 98 100 100 75 46 79 98 83 99 99 100 100 100 100 100 100 100 100 100
100 100 100 31 62 32 0 5 5 49 5 5 25 88 8 5 48 92 100 100 100 100 100 100 100 100 100 100 92 70 93 97 91 100 100 100 100 100 100 100 100 100 100 100
88 100 100 83 93 9 21 19 50 5 7 22 12 30 42 77 100 100 100 100 100 100 99 100 100 100 100 98 91 87 94 100 100 100 100 100 100 100 100 100 100 100 100 100
8 93 98 98 100 96 95 84 56 95 100 99 95 96 100 100 100 100 100 100 100 100 100 100 100 100 100 80 96 100 100 100 100 100 100 100 100 100 100 100 100 100 100 100
64 96 100 71 78 100 92 65 89 100 100 100 100 100 100 100 100 100 100 100 100 100 100 100 100 100 100 98 98 100 100 100 100 100 100 100 100 100 100 100 100 100 100 100
96 94 18 71 90 7 92 100 86 99 100 100 100 100 100 100 100 100 100 100 100 100 100 100 100 100 98 89 100 100 100 100 100 100 100 100 100 100 100 100 100 100 100 100
98 97 100 76 70 100 100 100 91 100 100 100 100 100 100 100 100 99 100 100 100 100 100 100 100 100 100 100 100 100 100 100 100 100 100 100 100 100 100 100 100 100 100 100
100 100 100 100 100 99 87 77 100 100 100 100 100 100 100 100 99 100 100 100 100 100 100 100 100 100 100 100 100 100 100 100 100 100 100 100 100 100 100 100 100 100 100 100